[[{"header":{"parameterUnit":"m.s-1","parameterCategory":1,"la1":31.0,"la2":29.5877,"lo1":-88.7671,"lo2":-86.6584,"dy":0.0162,"dx":0.0185,"nx":115,"ny":88,"refTime":"2023-09-22T18:00:00:Z","depth":0,"parameterNumber":2,"parameterNumberName":"U-component_of_WINDS"},"data":[0.0,0.0,0.0,0.0,0.0,0.0,0.0,0.0,0.0,0.0,0.0,0.0,0.0,0.0,0.0,0.0,0.0,0.0,0.0,0.0,0.0,0.0,0.0,0.0,0.0,0.0,0.0,0.0,0.0,0.0,0.0,0.0,0.0,0.0,0.0,0.0,0.0,0.0,0.0,0.0,0.0,0.0,0.0,0.0,0.0,0.0,0.0,0.0,0.0,0.0,0.0,0.0,0.0,0.0,0.0,0.0,0.0,0.0,0.0,0.0,0.0,0.0,0.0,0.0,0.0,0.0,0.0,0.0,0.0,0.0,0.0,0.0,0.0,0.0,0.0,0.0,0.0,0.0,0.0,0.0,0.0,0.0,0.0,0.0,0.0,0.0,0.0,0.0,0.0,0.0,0.0,0.0,0.0,0.0,0.0,0.0,0.0,0.0,0.0,0.0,0.0,0.0,0.0,0.0,0.0,0.0,0.0,0.0,0.0,0.0,0.0,0.0,0.0,0.0,0.0,0.0,0.0,0.0,0.0,0.0,0.0,0.0,0.0,0.0,0.0,0.0,0.0,0.0,0.0,0.0,0.0,0.0,0.0,0.0,0.0,0.0,0.0,0.0,0.0,0.0,0.0,0.0,0.0,0.0,0.0,0.0,0.0,0.0,0.0,0.0,0.0,0.0,0.0,0.0,0.0,0.0,0.0,0.0,0.0,0.0,0.0,0.0,0.0,0.0,0.0,0.0,0.0,0.0,0.0,0.0,0.0,0.0,0.0,0.0,0.0,0.0,0.0,0.0,0.0,0.0,0.0,0.0,0.0,0.0,0.0,0.0,0.0,0.0,0.0,0.0,0.0,0.0,0.0,0.0,0.0,0.0,0.0,0.0,0.0,0.0,0.0,0.0,0.0,0.0,0.0,0.0,0.0,0.0,0.0,0.0,0.0,0.0,0.0,0.0,0.0,0.0,0.0,0.0,0.0,0.0,0.0,0.0,0.0,0.0,0.0,0.0,0.0,0.0,0.0,0.0,0.0,0.0,0.0,0.0,0.0,0.0,0.0,0.0,0.0,0.0,0.0,0.0,0.0,0.0,0.0,0.0,0.0,0.0,0.0,0.0,0.0,0.0,0.0,0.0,0.0,0.0,0.0,0.0,0.0,0.0,0.0,0.0,0.0,0.0,0.0,0.0,0.0,0.0,0.0,0.0,0.0,0.0,0.0,0.0,0.0,0.0,0.0,0.0,0.0,0.0,0.0,0.0,0.0,0.0,0.0,0.0,0.0,0.0,0.0,0.0,0.0,0.0,0.0,0.0,0.0,0.0,0.0,0.0,0.0,0.0,0.0,0.0,0.0,0.0,0.0,0.0,0.0,0.0,0.0,0.0,0.0,0.0,0.0,0.0,0.0,0.0,0.0,0.0,0.0,0.0,0.0,0.0,0.0,0.0,0.0,0.0,0.0,0.0,0.0,0.0,0.0,0.0,0.0,0.0,0.0,0.0,0.0,0.0,0.0,0.0,0.0,0.0,0.0,0.0,0.0,0.0,0.0,0.0,0.0,0.0,0.0,0.0,0.0,0.0,0.0,0.0,0.0,0.0,0.0,0.0,0.0,0.0,0.0,0.0,0.0,0.0,0.0,0.0,0.0,0.0,0.0,0.0,0.0,0.0,0.0,0.0,0.0,0.0,0.0,0.0,0.0,0.0,0.0,0.0,0.0,0.0,0.0,0.0,0.0,0.0,0.0,0.0,0.0,0.0,0.0,0.0,0.0,0.0,0.0,0.0,0.0,0.0,0.0,0.0,0.0,0.0,0.0,0.0,0.0,0.0,0.0,0.0,0.0,0.0,0.0,0.0,0.0,0.0,0.0,0.0,0.0,0.0,0.0,0.0,0.0,0.0,0.0,0.0,0.0,0.0,0.0,0.0,0.0,0.0,0.0,0.0,0.0,0.0,0.0,0.0,0.0,0.0,0.0,0.0,0.0,0.0,0.0,0.0,0.0,0.0,0.0,0.0,0.0,0.0,0.0,0.0,0.0,0.0,0.0,0.0,0.0,0.0,0.0,0.0,0.0,0.0,0.0,0.0,0.0,0.0,0.0,0.0,0.0,0.0,0.0,0.0,0.0,0.0,0.0,0.0,0.0,0.0,0.0,0.0,0.0,0.0,0.0,0.0,0.0,0.0,0.0,0.0,0.0,0.0,0.0,0.0,0.0,0.0,0.0,0.0,0.0,0.0,0.0,0.0,0.0,0.0,0.0,0.0,0.0,0.0,0.0,0.0,0.0,0.0,0.0,0.0,0.0,0.0,0.0,0.0,0.0,0.0,0.0,0.0,0.0,0.0,0.0,0.0,0.0,0.0,0.0,0.0,0.0,0.0,0.0,0.0,0.0,0.0,0.0,0.0,0.0,0.0,0.0,0.0,0.0,0.0,0.0,0.0,0.0,0.0,0.0,0.0,0.0,0.0,0.0,0.0,0.0,0.0,0.0,0.0,0.0,0.0,0.0,0.0,0.0,0.0,0.0,0.0,0.0,0.0,0.0,0.0,0.0,0.0,0.0,0.0,0.0,0.0,0.0,0.0,0.0,0.0,0.0,0.0,0.0,0.0,0.0,0.0,0.0,0.0,0.0,0.0,0.0,0.0,0.0,0.0,0.0,0.0,0.0,0.0,0.0,0.0,0.0,0.0,0.0,0.0,0.0,0.0,0.0,0.0,0.0,0.0,0.0,0.0,0.0,0.0,0.0,0.0,0.0,0.0,0.0,0.0,0.0,0.0,0.0,0.0,0.0,0.0,0.0,0.0,0.0,0.0,0.0,0.0,0.0,0.0,0.0,0.0,0.0,0.0,0.0,0.0,0.0,0.0,0.0,0.0,0.0,0.0,0.0,0.0,0.0,0.0,0.0,0.0,0.0,0.0,0.0,0.0,0.0,0.0,0.0,0.0,0.0,0.0,0.0,0.0,0.0,0.0,0.0,0.0,0.0,0.0,0.0,0.0,0.0,0.0,0.0,0.0,0.0,0.0,0.0,0.0,0.0,0.0,0.0,0.0,0.0,0.0,0.0,0.0,0.0,0.0,0.0,0.0,0.0,0.0,0.0,0.0,0.0,0.0,0.0,0.0,0.0,0.0,0.0,0.0,0.0,0.0,0.0,0.0,0.0,0.0,0.0,0.0,0.0,0.0,0.0,0.0,0.0,0.0,0.0,0.0,0.0,0.0,0.0,0.0,0.0,0.0,0.0,0.0,0.0,0.0,0.0,0.0,0.0,0.0,0.0,0.0,0.0,0.0,0.0,0.0,0.0,0.0,0.0,0.0,0.0,0.0,0.0,0.0,0.0,0.0,0.0,0.0,0.0,0.0,0.0,0.0,0.0,0.0,0.0,0.0,0.0,0.0,0.0,0.0,0.0,0.0,0.0,0.0,0.0,0.0,0.0,0.0,0.0,0.0,0.0,0.0,0.0,0.0,0.0,0.0,0.0,0.0,0.0,0.0,0.0,0.0,0.0,0.0,0.0,0.0,0.0,0.0,0.0,0.0,0.0,0.0,0.0,0.0,0.0,0.0,0.0,0.0,0.0,0.0,0.0,0.0,0.0,0.0,0.0,0.0,0.0,0.0,0.0,0.0,0.0,0.0,0.0,0.0,0.0,0.0,0.0,0.0,0.0,0.0,0.0,0.0,0.0,0.0,0.0,0.0,0.0,0.0,0.0,0.0,0.0,0.0,0.0,0.0,0.0,0.0,0.0,0.0,0.0,0.0,0.0,0.0,0.0,0.0,0.0,0.0,0.0,0.0,0.0,0.0,0.0,0.0,0.0,0.0,0.0,0.0,0.0,0.0,0.0,0.0,0.0,0.0,0.0,0.0,0.0,0.0,0.0,0.0,0.0,0.0,0.0,0.0,0.0,0.0,0.0,0.0,0.0,0.0,0.0,0.0,0.0,0.0,0.0,0.0,0.0,0.0,0.0,0.0,0.0,0.0,0.0,0.0,0.0,0.0,0.0,0.0,0.0,0.0,0.0,0.0,0.0,0.0,0.0,0.0,0.0,0.0,0.0,0.0,0.0,0.0,0.0,0.0,0.0,0.0,0.0,0.0,0.0,0.0,0.0,0.0,0.0,0.0,0.0,0.0,0.0,0.0,0.0,0.0,0.0,0.0,0.0,0.0,0.0,0.0,0.0,0.0,0.0,0.0,0.0,0.0,0.0,0.0,0.0,0.0,0.0,0.0,0.0,0.0,0.0,0.0,0.0,0.0,0.0,0.0,0.0,0.0,0.0,0.0,0.0,0.0,1.5106,0.0,0.0,0.0,0.0,0.0,0.0,0.0,0.0,0.0,0.0,0.0,0.0,0.0,0.0,0.0,0.0,0.0,0.0,0.0,0.0,0.0,0.0,0.0,0.0,0.0,0.0,0.0,0.0,0.0,0.0,0.0,0.0,0.0,0.0,0.0,0.0,0.0,0.0,0.0,0.0,0.0,0.0,0.0,0.0,0.0,0.0,0.0,0.0,0.0,0.0,0.0,0.0,0.0,0.0,0.0,0.0,0.0,0.0,0.0,0.0,0.0,0.0,0.0,0.0,0.0,0.0,0.0,0.0,0.0,0.0,0.0,0.0,0.0,0.0,0.0,0.0,0.0,0.0,0.0,0.0,0.0,0.0,0.0,0.0,0.0,0.0,0.0,0.0,0.0,0.0,0.0,0.0,0.0,0.0,0.0,0.0,0.0,0.0,0.0,0.0,0.0,0.0,0.0,0.0,0.0,0.0,0.0,0.0,0.0,0.0,1.5113,1.5146,1.5146,1.5133,1.5112,0.0,0.0,0.0,0.0,0.0,0.0,0.0,0.0,0.0,0.0,0.0,0.0,0.0,0.0,0.0,0.0,0.0,0.0,0.0,0.0,0.0,0.0,0.0,0.0,0.0,0.0,0.0,0.0,0.0,0.0,0.0,0.0,0.0,0.0,0.0,0.0,0.0,0.0,0.0,0.0,0.0,0.0,0.0,0.0,0.0,0.0,0.0,0.0,0.0,0.0,0.0,0.0,0.0,0.0,0.0,0.0,0.0,0.0,0.0,0.0,0.0,0.0,0.0,0.0,0.0,0.0,0.0,0.0,0.0,0.0,0.0,0.0,0.0,0.0,0.0,0.0,0.0,0.0,0.0,0.0,0.0,0.0,0.0,0.0,0.0,0.0,0.0,0.0,0.0,0.0,0.0,0.0,0.0,0.0,0.0,0.0,0.0,0.0,0.0,0.0,0.0,0.0,0.0,0.0,0.0,0.0,0.0,0.0,0.0,0.0,0.0,0.0,1.5193,1.517,1.512,0.0,0.0,0.0,0.0,0.0,0.0,0.0,0.0,0.0,0.0,0.0,0.0,0.0,0.0,0.0,0.0,0.0,0.0,0.0,0.0,0.0,0.0,0.0,0.0,0.0,0.0,0.0,0.0,0.0,0.0,0.0,0.0,0.0,0.0,0.0,0.0,0.0,0.0,0.0,0.0,0.0,0.0,0.0,0.0,0.0,0.0,0.0,0.0,0.0,0.0,0.0,0.0,0.0,0.0,0.0,0.0,0.0,0.0,0.0,0.0,0.0,0.0,0.0,0.0,0.0,0.0,0.0,0.0,0.0,0.0,0.0,0.0,0.0,0.0,0.0,0.0,0.0,0.0,0.0,0.0,0.0,0.0,0.0,0.0,0.0,0.0,0.0,0.0,0.0,0.0,0.0,0.0,0.0,0.0,0.0,0.0,0.0,0.0,0.0,0.0,0.0,0.0,0.0,0.0,0.0,0.0,0.0,0.0,0.0,0.0,1.5197,1.5204,1.5202,0.0,1.5189,0.0,0.0,0.0,0.0,0.0,0.0,0.0,0.0,0.0,0.0,0.0,0.0,0.0,0.0,0.0,0.0,0.0,0.0,0.0,0.0,0.0,0.0,0.0,0.0,0.0,0.0,0.0,0.0,0.0,0.0,0.0,0.0,0.0,0.0,0.0,0.0,0.0,0.0,0.0,0.0,0.0,0.0,0.0,0.0,0.0,0.0,0.0,0.0,0.0,0.0,0.0,0.0,0.0,0.0,0.0,0.0,0.0,0.0,0.0,0.0,0.0,0.0,0.0,0.0,0.0,0.0,0.0,0.0,0.0,0.0,0.0,0.0,0.0,0.0,0.0,0.0,0.0,0.0,0.0,0.0,0.0,0.0,0.0,0.0,0.0,0.0,0.0,0.0,0.0,0.0,0.0,0.0,0.0,0.0,0.0,0.0,0.0,0.0,0.0,0.0,0.0,0.0,0.0,0.0,0.0,0.0,0.0,0.0,0.0,0.0,1.5225,1.526,1.5229,1.5226,0.0,0.0,0.0,0.0,0.0,0.0,0.0,0.0,0.0,0.0,0.0,0.0,0.0,0.0,0.0,0.0,0.0,0.0,0.0,0.0,0.0,0.0,0.0,0.0,0.0,0.0,0.0,0.0,0.0,0.0,0.0,0.0,0.0,0.0,0.0,0.0,0.0,0.0,0.0,0.0,0.0,0.0,0.0,0.0,0.0,0.0,0.0,0.0,0.0,0.0,0.0,0.0,0.0,0.0,0.0,0.0,0.0,0.0,0.0,0.0,0.0,0.0,0.0,0.0,0.0,0.0,0.0,0.0,0.0,0.0,0.0,0.0,0.0,0.0,0.0,0.0,0.0,0.0,0.0,0.0,0.0,0.0,0.0,0.0,0.0,0.0,0.0,0.0,0.0,0.0,0.0,0.0,0.0,0.0,0.0,0.0,0.0,0.0,0.0,0.0,0.0,0.0,0.0,0.0,0.0,0.0,0.0,0.0,0.0,0.0,1.5272,1.5287,1.5326,1.529,1.5253,1.5287,0.0,0.0,0.0,0.0,0.0,0.0,0.0,0.0,0.0,0.0,0.0,0.0,0.0,0.0,0.0,0.0,0.0,0.0,0.0,0.0,0.0,0.0,0.0,0.0,0.0,0.0,0.0,0.0,0.0,0.0,0.0,0.0,0.0,0.0,0.0,0.0,0.0,0.0,0.0,0.0,0.0,0.0,0.0,0.0,0.0,0.0,0.0,0.0,0.0,0.0,0.0,0.0,0.0,0.0,0.0,0.0,0.0,0.0,0.0,0.0,0.0,0.0,0.0,0.0,0.0,0.0,0.0,0.0,0.0,0.0,0.0,0.0,0.0,0.0,0.0,0.0,0.0,0.0,0.0,0.0,0.0,0.0,0.0,0.0,0.0,0.0,0.0,0.0,0.0,0.0,0.0,0.0,0.0,0.0,0.0,0.0,0.0,0.0,0.0,0.0,0.0,0.0,0.0,0.0,0.0,0.0,0.0,0.0,1.5387,1.5407,1.5407,1.539,1.5387,1.5377,0.0,0.0,0.0,0.0,0.0,0.0,0.0,0.0,0.0,0.0,0.0,0.0,0.0,0.0,0.0,0.0,0.0,0.0,0.0,0.0,0.0,0.0,0.0,0.0,0.0,0.0,0.0,0.0,0.0,0.0,0.0,0.0,0.0,0.0,0.0,0.0,0.0,0.0,0.0,0.0,0.0,0.0,0.0,0.0,0.0,0.0,0.0,0.0,0.0,0.0,0.0,0.0,0.0,0.0,0.0,0.0,0.0,0.0,0.0,0.0,0.0,0.0,0.0,0.0,0.0,0.0,0.0,0.0,0.0,0.0,0.0,0.0,0.0,0.0,0.0,0.0,0.0,0.0,0.0,0.0,0.0,0.0,0.0,0.0,0.0,0.0,0.0,0.0,0.0,0.0,0.0,0.0,0.0,0.0,0.0,0.0,0.0,0.0,0.0,0.0,0.0,0.0,0.0,0.0,0.0,0.0,0.0,0.0,0.0,1.5409,1.5409,1.5409,1.5409,1.5409,1.5387,0.0,0.0,0.0,0.0,0.0,0.0,0.0,0.0,0.0,0.0,0.0,0.0,0.0,0.0,0.0,0.0,0.0,0.0,0.0,0.0,0.0,0.0,0.0,0.0,0.0,0.0,0.0,0.0,0.0,0.0,0.0,0.0,0.0,0.0,0.0,0.0,0.0,0.0,0.0,0.0,0.0,0.0,0.0,0.0,0.0,0.0,0.0,0.0,0.0,0.0,0.0,0.0,0.0,0.0,0.0,0.0,0.0,0.0,0.0,0.0,0.0,0.0,0.0,0.0,0.0,0.0,0.0,0.0,0.0,0.0,0.0,0.0,0.0,0.0,0.0,0.0,0.0,0.0,0.0,0.0,0.0,0.0,0.0,0.0,0.0,0.0,0.0,0.0,0.0,0.0,0.0,0.0,0.0,0.0,0.0,0.0,0.0,0.0,0.0,0.0,0.0,0.0,0.0,0.0,0.0,0.0,0.0,0.0,0.0,1.5409,0.0,1.5409,1.5409,1.5409,1.5409,0.0,0.0,0.0,0.0,0.0,0.0,0.0,0.0,0.0,0.0,0.0,0.0,0.0,0.0,0.0,0.0,0.0,0.0,0.0,0.0,0.0,0.0,0.0,0.0,0.0,0.0,0.0,0.0,0.0,0.0,0.0,0.0,0.0,0.0,0.0,0.0,0.0,0.0,0.0,0.0,0.0,0.0,0.0,0.0,0.0,0.0,0.0,0.0,0.0,0.0,0.0,0.0,0.0,0.0,0.0,0.0,0.0,0.0,0.0,0.0,0.0,0.0,0.0,0.0,0.0,0.0,0.0,0.0,0.0,0.0,0.0,0.0,0.0,0.0,0.0,0.0,0.0,0.0,0.0,0.0,0.0,0.0,0.0,0.0,0.0,0.0,0.0,0.0,0.0,0.0,0.0,0.0,0.0,0.0,0.0,0.0,0.0,0.0,0.0,0.0,0.0,0.0,0.0,0.0,0.0,0.0,0.0,0.0,1.5468,1.5429,1.5489,1.5546,1.5448,1.547,1.5448,0.0,0.0,0.0,0.0,0.0,0.0,0.0,0.0,0.0,0.0,0.0,0.0,0.0,0.0,0.0,0.0,0.0,0.0,0.0,0.0,0.0,0.0,0.0,0.0,0.0,0.0,0.0,0.0,0.0,0.0,0.0,0.0,0.0,0.0,0.0,0.0,0.0,0.0,0.0,0.0,0.0,0.0,0.0,0.0,0.0,0.0,0.0,0.0,0.0,0.0,0.0,0.0,0.0,0.0,0.0,0.0,0.0,0.0,0.0,0.0,0.0,0.0,0.0,0.0,0.0,0.0,0.0,0.0,0.0,0.0,0.0,0.0,0.0,0.0,0.0,0.0,0.0,0.0,0.0,0.0,0.0,0.0,0.0,0.0,0.0,0.0,0.0,0.0,0.0,0.0,0.0,0.0,0.0,0.0,0.0,0.0,0.0,0.0,0.0,0.0,0.0,0.0,0.0,0.0,0.0,0.0,0.0,0.0,0.0,1.7201,1.7201,1.7201,1.7182,1.6597,1.6286,0.0,0.0,0.0,0.0,0.0,0.0,0.0,0.0,0.0,0.0,0.0,0.0,0.0,0.0,0.0,0.0,0.0,0.0,0.0,0.0,0.0,0.0,0.0,0.0,0.0,0.0,0.0,0.0,0.0,0.0,0.0,0.0,0.0,0.0,0.0,0.0,0.0,0.0,0.0,0.0,0.0,0.0,0.0,0.0,0.0,0.0,0.0,0.0,0.0,0.0,0.0,0.0,0.0,0.0,0.0,0.0,0.0,0.0,0.0,0.0,0.0,0.0,0.0,0.0,0.0,0.0,0.0,0.0,0.0,0.0,0.0,0.0,0.0,0.0,0.0,0.0,0.0,0.0,0.0,0.0,0.0,0.0,0.0,0.0,0.0,0.0,0.0,0.0,0.0,0.0,0.0,0.0,0.0,0.0,0.0,0.0,0.0,0.0,0.0,0.0,0.0,0.0,0.0,0.0,0.0,0.0,0.0,0.0,0.0,1.9386,1.8782,1.8448,1.8448,1.7925,1.7496,1.7182,0.0,0.0,0.0,0.0,0.0,0.0,0.0,0.0,0.0,0.0,0.0,0.0,0.0,0.0,0.0,0.0,0.0,0.0,0.0,0.0,0.0,0.0,0.0,0.0,0.0,0.0,0.0,0.0,0.0,0.0,0.0,0.0,0.0,0.0,0.0,0.0,0.0,0.0,0.0,0.0,0.0,0.0,0.0,0.0,0.0,0.0,0.0,0.0,0.0,0.0,0.0,0.0,0.0,0.0,0.0,0.0,0.0,0.0,0.0,0.0,0.0,0.0,0.0,0.0,0.0,0.0,0.0,0.0,0.0,0.0,0.0,0.0,0.0,0.0,0.0,0.0,0.0,0.0,0.0,0.0,0.0,0.0,0.0,0.0,0.0,0.0,0.0,0.0,0.0,0.0,0.0,0.0,0.0,0.0,0.0,0.0,0.0,0.0,0.0,0.0,0.0,0.0,0.0,0.0,0.0,0.0,0.0,0.0,2.1844,2.0324,1.9506,1.9467,1.9331,1.8899,0.0,0.0,0.0,0.0,0.0,0.0,0.0,0.0,0.0,0.0,0.0,0.0,0.0,0.0,0.0,0.0,0.0,0.0,0.0,0.0,0.0,0.0,0.0,0.0,0.0,0.0,0.0,0.0,0.0,0.0,0.0,0.0,0.0,0.0,0.0,0.0,0.0,0.0,0.0,0.0,0.0,0.0,0.0,0.0,0.0,0.0,0.0,0.0,0.0,0.0,0.0,0.0,0.0,0.0,0.0,0.0,0.0,0.0,0.0,0.0,0.0,0.0,0.0,0.0,0.0,0.0,0.0,0.0,0.0,0.0,0.0,0.0,0.0,0.0,0.0,0.0,0.0,0.0,0.0,0.0,0.0,0.0,0.0,0.0,0.0,0.0,0.0,0.0,0.0,0.0,0.0,0.0,0.0,0.0,0.0,0.0,0.0,0.0,0.0,0.0,0.0,0.0,0.0,0.0,0.0,0.0,0.0,0.0,0.0,2.2721,2.2936,2.2737,2.2094,2.0851,2.0071,0.0,0.0,0.0,0.0,0.0,0.0,0.0,0.0,0.0,0.0,0.0,0.0,0.0,0.0,0.0,0.0,0.0,0.0,0.0,0.0,0.0,0.0,0.0,0.0,0.0,0.0,0.0,0.0,0.0,0.0,0.0,0.0,0.0,0.0,0.0,0.0,0.0,0.0,0.0,0.0,0.0,0.0,0.0,0.0,0.0,0.0,0.0,0.0,0.0,0.0,0.0,0.0,0.0,0.0,0.0,0.0,0.0,0.0,0.0,0.0,0.0,0.0,0.0,0.0,0.0,0.0,0.0,0.0,0.0,0.0,0.0,0.0,0.0,0.0,0.0,0.0,0.0,0.0,0.0,0.0,0.0,0.0,0.0,0.0,0.0,0.0,0.0,0.0,0.0,0.0,0.0,0.0,0.0,0.0,0.0,0.0,0.0,0.0,0.0,0.0,0.0,0.0,0.0,0.0,0.0,0.0,0.0,0.0,2.2588,2.3104,2.4316,2.4703,2.4199,2.2504,2.1416,0.0,0.0,0.0,0.0,0.0,0.0,0.0,0.0,0.0,0.0,0.0,0.0,0.0,0.0,0.0,0.0,0.0,0.0,0.0,0.0,0.0,0.0,0.0,0.0,0.0,0.0,0.0,0.0,0.0,0.0,0.0,0.0,0.0,0.0,0.0,0.0,0.0,0.0,0.0,0.0,0.0,0.0,0.0,0.0,0.0,0.0,0.0,0.0,0.0,0.0,0.0,0.0,0.0,0.0,0.0,0.0,0.0,0.0,0.0,0.0,0.0,0.0,0.0,0.0,0.0,0.0,0.0,0.0,0.0,0.0,0.0,0.0,0.0,0.0,0.0,0.0,0.0,0.0,0.0,0.0,0.0,0.0,0.0,0.0,0.0,0.0,0.0,0.0,0.0,0.0,0.0,0.0,0.0,0.0,0.0,0.0,0.0,0.0,0.0,0.0,0.0,0.0,0.0,0.0,0.0,0.0,0.0,0.0,2.316,2.3254,2.4842,2.5696,2.5652,2.4011,2.2741,0.0,0.0,0.0,0.0,0.0,0.0,0.0,0.0,0.0,0.0,0.0,0.0,0.0,0.0,0.0,0.0,0.0,0.0,0.0,0.0,0.0,0.0,0.0,0.0,0.0,0.0,0.0,0.0,0.0,0.0,0.0,0.0,0.0,0.0,0.0,0.0,0.0,0.0,0.0,0.0,0.0,0.0,0.0,0.0,0.0,0.0,0.0,0.0,0.0,0.0,0.0,0.0,0.0,0.0,0.0,0.0,0.0,0.0,0.0,0.0,0.0,0.0,0.0,0.0,0.0,0.0,0.0,0.0,0.0,0.0,0.0,0.0,0.0,0.0,0.0,0.0,0.0,0.0,0.0,0.0,0.0,0.0,0.0,0.0,0.0,0.0,0.0,0.0,0.0,0.0,0.0,0.0,0.0,0.0,0.0,0.0,0.0,0.0,0.0,0.0,0.0,0.0,0.0,0.0,0.0,0.0,0.0,0.0,2.3433,2.4137,2.5155,2.569,2.5693,2.4005,2.3015,0.0,0.0,0.0,0.0,0.0,0.0,0.0,0.0,0.0,0.0,0.0,0.0,0.0,0.0,0.0,0.0,0.0,0.0,0.0,0.0,0.0,0.0,0.0,0.0,0.0,0.0,0.0,0.0,0.0,0.0,0.0,0.0,0.0,0.0,0.0,0.0,0.0,0.0,0.0,0.0,0.0,0.0,0.0,0.0,0.0,0.0,0.0,0.0,2.1185,0.0,0.0,0.0,0.0,0.0,0.0,0.0,0.0,0.0,0.0,0.0,0.0,0.0,0.0,0.0,0.0,0.0,0.0,0.0,0.0,0.0,0.0,0.0,0.0,0.0,0.0,0.0,0.0,0.0,0.0,0.0,0.0,0.0,0.0,0.0,0.0,0.0,0.0,0.0,0.0,0.0,0.0,0.0,0.0,0.0,0.0,0.0,0.0,0.0,0.0,0.0,0.0,0.0,0.0,0.0,0.0,0.0,0.0,0.0,2.353,2.4388,2.5258,2.5696,2.5619,2.4409,2.3524,0.0,0.0,0.0,0.0,0.0,0.0,0.0,0.0,0.0,0.0,0.0,0.0,0.0,0.0,0.0,0.0,0.0,0.0,0.0,0.0,0.0,0.0,0.0,0.0,0.0,0.0,0.0,0.0,0.0,0.0,0.0,0.0,0.0,0.0,0.0,0.0,0.0,0.0,0.0,0.0,0.0,0.0,0.0,0.0,0.0,0.0,0.0,0.0,0.0,0.0,0.0,0.0,0.0,0.0,0.0,0.0,0.0,0.0,0.0,0.0,0.0,0.0,0.0,0.0,0.0,0.0,0.0,0.0,0.0,0.0,0.0,0.0,0.0,0.0,0.0,0.0,0.0,0.0,0.0,0.0,0.0,0.0,0.0,0.0,0.0,0.0,0.0,0.0,0.0,0.0,0.0,0.0,0.0,0.0,0.0,0.0,0.0,0.0,0.0,0.0,0.0,0.0,0.0,0.0,0.0,0.0,0.0,2.2725,2.3589,2.4581,2.5308,2.567,2.5602,2.4824,2.3964,2.3134,0.0,0.0,0.0,0.0,0.0,0.0,0.0,0.0,0.0,0.0,0.0,0.0,0.0,0.0,0.0,0.0,0.0,0.0,0.0,0.0,0.0,0.0,0.0,0.0,0.0,0.0,0.0,0.0,0.0,0.0,0.0,0.0,0.0,0.0,0.0,0.0,0.0,0.0,2.0662,2.0515,0.0,0.0,0.0,0.0,0.0,0.0,0.0,0.0,2.1055,0.0,0.0,0.0,0.0,0.0,0.0,0.0,0.0,0.0,0.0,0.0,0.0,0.0,0.0,0.0,0.0,0.0,0.0,0.0,0.0,0.0,0.0,0.0,0.0,0.0,0.0,0.0,0.0,0.0,0.0,0.0,0.0,0.0,0.0,0.0,0.0,0.0,0.0,0.0,0.0,0.0,0.0,0.0,0.0,0.0,0.0,0.0,0.0,0.0,0.0,0.0,0.0,0.0,0.0,0.0,0.0,2.2795,2.2999,2.3884,2.5451,2.5572,2.5642,2.5658,2.4802,2.3925,2.3125,0.0,0.0,0.0,0.0,0.0,0.0,0.0,0.0,0.0,0.0,0.0,0.0,0.0,0.0,0.0,0.0,0.0,0.0,0.0,0.0,0.0,0.0,0.0,0.0,0.0,0.0,0.0,0.0,0.0,0.0,0.0,0.0,0.0,0.0,0.0,0.0,0.0,0.0,0.0,2.0778,2.0636,0.0,0.0,0.0,0.0,0.0,0.0,0.0,0.0,2.1564,0.0,0.0,0.0,0.0,0.0,0.0,0.0,0.0,0.0,0.0,0.0,0.0,0.0,0.0,0.0,0.0,0.0,0.0,0.0,0.0,0.0,0.0,0.0,0.0,0.0,0.0,0.0,0.0,0.0,0.0,0.0,0.0,0.0,0.0,0.0,0.0,0.0,0.0,0.0,0.0,0.0,0.0,0.0,0.0,0.0,0.0,0.0,0.0,0.0,0.0,0.0,0.0,0.0,0.0,0.0,2.2955,2.3525,2.4381,2.5593,2.5637,2.5644,2.5634,2.4764,2.3915,0.0,0.0,0.0,0.0,0.0,0.0,0.0,0.0,0.0,0.0,0.0,0.0,0.0,0.0,0.0,0.0,0.0,0.0,0.0,0.0,0.0,0.0,0.0,0.0,0.0,0.0,0.0,0.0,0.0,0.0,0.0,0.0,0.0,0.0,0.0,0.0,0.0,0.0,0.0,0.0,2.117,2.1185,2.1989,0.0,0.0,0.0,0.0,0.0,0.0,2.1748,2.1629,0.0,0.0,0.0,0.0,0.0,0.0,0.0,0.0,0.0,0.0,0.0,0.0,0.0,0.0,0.0,0.0,0.0,0.0,0.0,0.0,0.0,0.0,0.0,0.0,0.0,0.0,0.0,0.0,0.0,0.0,0.0,0.0,0.0,0.0,0.0,0.0,0.0,0.0,0.0,0.0,0.0,0.0,0.0,0.0,0.0,0.0,0.0,0.0,0.0,0.0,0.0,0.0,0.0,0.0,0.0,2.2994,2.394,2.4788,2.5562,2.5664,2.5659,2.5574,2.4596,2.3734,0.0,0.0,0.0,0.0,0.0,0.0,0.0,0.0,0.0,0.0,0.0,0.0,0.0,0.0,0.0,0.0,0.0,0.0,0.0,0.0,0.0,0.0,0.0,0.0,0.0,0.0,0.0,0.0,0.0,0.0,0.0,0.0,0.0,0.0,0.0,0.0,0.0,0.0,0.0,0.0,0.0,2.1693,2.2498,2.1923,0.0,0.0,0.0,0.0,2.1713,2.1831,0.0,0.0,0.0,0.0,0.0,0.0,0.0,0.0,0.0,0.0,0.0,0.0,0.0,0.0,0.0,0.0,0.0,0.0,0.0,0.0,0.0,0.0,0.0,0.0,0.0,0.0,0.0,0.0,0.0,0.0,0.0,0.0,0.0,0.0,0.0,0.0,0.0,0.0,0.0,0.0,0.0,0.0,0.0,0.0,0.0,0.0,0.0,0.0,0.0,0.0,0.0,0.0,0.0,0.0,0.0,0.0,2.299,2.3921,2.4804,2.556,2.5603,2.56,2.5582,2.401,2.3135,0.0,0.0,0.0,0.0,0.0,0.0,0.0,0.0,0.0,0.0,0.0,0.0,0.0,0.0,0.0,0.0,0.0,0.0,0.0,0.0,0.0,0.0,0.0,0.0,0.0,0.0,0.0,0.0,0.0,0.0,0.0,0.0,0.0,0.0,0.0,0.0,0.0,0.0,0.0,0.0,0.0,2.1704,2.2566,2.1959,2.1391,0.0,0.0,2.245,2.2397,2.2958,0.0,0.0,0.0,0.0,0.0,0.0,0.0,0.0,0.0,0.0,0.0,0.0,0.0,0.0,0.0,0.0,0.0,0.0,0.0,0.0,0.0,0.0,0.0,0.0,0.0,0.0,0.0,0.0,0.0,0.0,0.0,0.0,0.0,0.0,0.0,0.0,0.0,0.0,0.0,0.0,0.0,0.0,0.0,0.0,0.0,0.0,0.0,0.0,0.0,0.0,0.0,0.0,0.0,0.0,0.0,2.2653,2.3059,2.4861,2.5971,2.6347,2.6828,2.6855,2.634,2.466,2.3755,0.0,0.0,0.0,0.0,0.0,0.0,0.0,0.0,0.0,0.0,0.0,0.0,0.0,0.0,0.0,0.0,0.0,0.0,0.0,0.0,0.0,0.0,0.0,0.0,0.0,0.0,0.0,0.0,0.0,0.0,0.0,0.0,0.0,0.0,0.0,0.0,0.0,0.0,0.0,0.0,0.0,0.0,2.2534,2.2336,0.0,0.0,0.0,2.2441,2.2,0.0,0.0,0.0,0.0,0.0,0.0,0.0,0.0,0.0,0.0,0.0,0.0,0.0,0.0,0.0,0.0,0.0,0.0,0.0,0.0,0.0,0.0,0.0,0.0,0.0,0.0,0.0,0.0,0.0,0.0,0.0,0.0,0.0,0.0,0.0,0.0,0.0,0.0,0.0,0.0,0.0,0.0,0.0,0.0,0.0,0.0,0.0,0.0,0.0,0.0,0.0,0.0,0.0,0.0,0.0,0.0,0.0,2.3717,2.6016,2.7231,2.7228,2.785,2.7878,2.7212,2.5749,0.0,0.0,0.0,0.0,0.0,0.0,0.0,0.0,0.0,0.0,0.0,0.0,0.0,0.0,0.0,0.0,0.0,0.0,0.0,0.0,0.0,0.0,0.0,0.0,0.0,0.0,0.0,2.0866,0.0,0.0,0.0,0.0,0.0,0.0,0.0,0.0,0.0,0.0,0.0,0.0,0.0,0.0,2.2652,2.2536,2.2592,2.2659,0.0,0.0,2.245,2.2096,2.3167,2.359,0.0,0.0,0.0,0.0,0.0,0.0,0.0,0.0,0.0,0.0,0.0,0.0,0.0,0.0,0.0,0.0,0.0,0.0,0.0,0.0,0.0,0.0,0.0,0.0,0.0,0.0,0.0,0.0,0.0,0.0,0.0,0.0,0.0,0.0,0.0,0.0,0.0,0.0,0.0,0.0,0.0,0.0,0.0,0.0,0.0,0.0,0.0,0.0,0.0,0.0,0.0,0.0,0.0,0.0,2.5506,2.5586,2.7231,2.8106,2.8123,2.8158,2.8164,2.8101,2.722,2.6322,0.0,0.0,0.0,0.0,0.0,0.0,0.0,0.0,0.0,0.0,0.0,0.0,0.0,0.0,0.0,0.0,0.0,0.0,0.0,0.0,0.0,0.0,0.0,0.0,0.0,0.0,0.0,0.0,0.0,0.0,0.0,0.0,0.0,0.0,0.0,0.0,0.0,0.0,0.0,0.0,0.0,2.2652,2.2517,2.2517,2.2756,0.0,2.3006,2.2799,2.3372,2.4214,2.4314,2.2783,0.0,0.0,0.0,0.0,0.0,0.0,0.0,0.0,0.0,0.0,0.0,0.0,0.0,0.0,0.0,0.0,0.0,0.0,0.0,0.0,0.0,0.0,0.0,0.0,0.0,0.0,0.0,0.0,0.0,0.0,0.0,0.0,0.0,0.0,0.0,0.0,0.0,0.0,0.0,0.0,0.0,0.0,0.0,0.0,0.0,0.0,0.0,0.0,0.0,0.0,0.0,0.0,0.0,2.5702,2.5722,2.7876,2.9019,2.9032,2.9526,2.9562,2.901,2.8179,2.7288,0.0,0.0,0.0,0.0,0.0,0.0,0.0,0.0,0.0,0.0,0.0,0.0,0.0,0.0,0.0,0.0,0.0,0.0,0.0,0.0,0.0,0.0,0.0,0.0,0.0,0.0,0.0,0.0,2.2447,2.2447,2.1957,0.0,0.0,0.0,0.0,0.0,0.0,0.0,0.0,0.0,0.0,2.2804,2.3241,2.3317,0.0,0.0,2.3474,2.3241,2.302,2.42,2.4583,2.2978,2.3195,0.0,0.0,0.0,0.0,0.0,0.0,0.0,0.0,0.0,0.0,0.0,0.0,0.0,0.0,0.0,0.0,0.0,0.0,0.0,0.0,0.0,0.0,0.0,0.0,0.0,0.0,0.0,0.0,0.0,0.0,0.0,0.0,0.0,0.0,0.0,0.0,0.0,0.0,0.0,0.0,0.0,0.0,0.0,0.0,0.0,0.0,0.0,0.0,0.0,0.0,0.0,0.0,2.6482,2.6482,2.8737,2.9887,2.9887,3.0498,3.0516,2.9902,2.9299,2.8569,0.0,0.0,0.0,0.0,0.0,0.0,0.0,0.0,0.0,0.0,0.0,0.0,0.0,0.0,0.0,0.0,0.0,0.0,0.0,0.0,0.0,0.0,0.0,0.0,0.0,0.0,0.0,0.0,2.2568,2.2492,2.1944,0.0,0.0,0.0,0.0,0.0,0.0,0.0,0.0,0.0,0.0,2.3097,2.3374,2.3622,2.3781,2.3739,2.3812,2.3766,2.3426,2.4438,2.4839,2.3678,0.0,0.0,0.0,0.0,0.0,0.0,0.0,0.0,0.0,0.0,0.0,0.0,0.0,0.0,0.0,0.0,0.0,0.0,0.0,0.0,0.0,0.0,0.0,0.0,0.0,0.0,0.0,1.9323,0.0,0.0,2.0488,0.0,0.0,0.0,0.0,0.0,0.0,0.0,0.0,0.0,0.0,0.0,0.0,0.0,0.0,0.0,0.0,0.0,0.0,0.0,0.0,0.0,0.0,2.8201,2.824,2.9877,3.074,3.074,3.078,3.0785,3.0745,3.074,3.0273,2.9327,0.0,0.0,0.0,0.0,0.0,0.0,0.0,0.0,0.0,0.0,0.0,0.0,0.0,0.0,0.0,0.0,0.0,0.0,0.0,0.0,0.0,0.0,0.0,0.0,0.0,0.0,2.0809,2.1363,2.1835,0.0,0.0,0.0,0.0,0.0,0.0,0.0,0.0,0.0,2.1571,2.2873,2.3545,2.2715,2.3271,2.3835,2.3843,2.4009,2.434,2.499,2.5107,2.5075,0.0,0.0,0.0,0.0,0.0,0.0,0.0,0.0,0.0,0.0,0.0,0.0,0.0,0.0,0.0,0.0,0.0,0.0,0.0,0.0,0.0,0.0,0.0,0.0,0.0,0.0,0.0,2.0976,2.1043,0.0,0.0,0.0,0.0,0.0,0.0,0.0,0.0,0.0,0.0,0.0,2.4814,2.4814,0.0,0.0,0.0,0.0,0.0,0.0,0.0,0.0,0.0,0.0,0.0,0.0,2.8298,2.8376,2.9955,3.0801,3.0801,3.0791,3.0798,3.0798,3.0769,3.0281,2.9355,0.0,0.0,0.0,0.0,0.0,0.0,0.0,0.0,0.0,0.0,0.0,0.0,0.0,0.0,0.0,0.0,0.0,0.0,0.0,0.0,0.0,0.0,0.0,0.0,0.0,2.1766,0.0,0.0,0.0,0.0,0.0,0.0,0.0,0.0,0.0,0.0,0.0,2.2624,2.3099,2.3541,2.3926,2.4188,2.4359,2.4707,0.0,0.0,0.0,0.0,0.0,0.0,0.0,0.0,0.0,0.0,0.0,0.0,0.0,0.0,2.5001,2.3499,2.3714,2.4138,2.4138,0.0,0.0,0.0,0.0,0.0,0.0,0.0,0.0,0.0,0.0,0.0,0.0,0.0,0.0,2.2128,2.1922,2.2146,0.0,0.0,0.0,0.0,0.0,0.0,0.0,0.0,2.5199,2.6056,2.6605,2.6605,2.7054,0.0,2.76,2.6864,0.0,0.0,0.0,0.0,0.0,0.0,0.0,0.0,2.83,2.8379,2.9934,3.0799,3.0794,3.0785,3.079,3.0769,3.0728,3.04,2.9776,2.891,2.8178,0.0,0.0,0.0,0.0,0.0,0.0,0.0,0.0,0.0,0.0,0.0,0.0,0.0,0.0,0.0,0.0,0.0,0.0,0.0,0.0,0.0,0.0,0.0,2.2828,0.0,0.0,0.0,0.0,0.0,0.0,0.0,0.0,0.0,2.2658,2.319,2.387,2.4351,2.4568,2.4683,2.4669,0.0,0.0,0.0,0.0,0.0,0.0,0.0,2.548,2.5051,2.5768,2.6543,2.7031,2.7207,2.7217,2.7201,0.0,0.0,2.5058,2.5246,2.5687,2.5653,2.5672,2.5823,2.6352,2.6352,2.635,0.0,0.0,0.0,0.0,0.0,0.0,0.0,0.0,2.3249,2.2857,0.0,2.2955,0.0,0.0,0.0,0.0,2.4464,2.5297,0.0,0.0,2.7522,2.8342,2.8381,2.8362,2.883,2.9552,2.8771,2.8381,2.8362,2.8373,0.0,0.0,0.0,0.0,0.0,0.0,2.8319,2.8397,2.9968,3.0794,3.0798,3.0798,3.0759,3.0703,3.0711,3.0668,3.0565,2.9768,2.9297,2.9175,2.7731,0.0,0.0,0.0,0.0,0.0,0.0,0.0,0.0,0.0,0.0,0.0,0.0,0.0,0.0,0.0,0.0,0.0,0.0,0.0,0.0,2.4319,0.0,0.0,0.0,0.0,0.0,0.0,0.0,0.0,0.0,0.0,2.4244,2.4822,2.5262,2.5195,0.0,0.0,0.0,0.0,2.5755,2.4293,2.4733,2.5298,2.534,2.5849,2.65,2.7233,0.0,0.0,2.8449,2.7768,2.725,2.7279,2.7793,2.7881,2.7102,2.7045,2.7171,2.7189,2.7189,2.7189,2.7154,2.699,2.6728,2.5949,0.0,0.0,0.0,0.0,2.4629,2.51,2.5885,2.5885,2.5746,2.5551,2.5787,0.0,0.0,0.0,0.0,0.0,0.0,2.6954,2.76,2.8713,2.9533,3.0079,3.0079,3.0235,3.0431,3.0216,3.0079,3.0079,3.0064,2.9056,2.7011,0.0,0.0,0.0,0.0,2.8592,2.9255,3.0261,3.0794,3.079,3.0798,3.0769,3.0711,3.0697,3.0626,3.0443,3.0211,2.9796,2.9158,2.8683,0.0,0.0,0.0,0.0,0.0,0.0,0.0,0.0,0.0,0.0,0.0,0.0,0.0,0.0,0.0,0.0,0.0,0.0,0.0,2.4296,2.4764,2.4691,0.0,0.0,0.0,0.0,0.0,0.0,0.0,0.0,0.0,2.6736,2.585,2.5248,0.0,0.0,2.5352,2.4889,2.5628,2.6257,2.6328,2.6499,0.0,2.739,2.7236,2.7088,2.7248,2.7896,2.8425,2.8425,2.8633,2.882,2.8764,2.8909,2.8961,2.8756,2.8722,2.8723,2.8723,2.8742,2.8723,2.8742,2.8641,2.8498,2.8656,2.7608,2.6278,2.5906,2.6212,2.6232,2.6702,2.7522,2.7503,2.7327,2.7034,2.7366,2.6839,2.5722,2.6058,0.0,0.0,0.0,2.8479,2.9318,2.9826,3.0333,3.0782,3.0801,3.0801,3.0801,3.0801,3.0801,3.0801,3.047,2.9556,2.8079,0.0,0.0,2.7519,2.8395,2.9076,2.9602,3.0392,3.0785,3.0786,3.0774,3.073,3.0697,3.069,3.0618,3.0413,3.0383,3.0147,2.9562,2.9274,2.8681,0.0,0.0,0.0,0.0,0.0,0.0,0.0,0.0,0.0,0.0,0.0,2.5044,2.4603,0.0,0.0,0.0,2.5723,2.5712,2.5684,2.5815,0.0,0.0,0.0,0.0,0.0,0.0,0.0,2.5619,2.6853,2.7755,2.7739,2.6864,2.6331,2.6665,2.6687,2.6536,2.6161,0.0,2.7225,2.7299,2.7253,2.7353,2.7843,2.7853,2.7869,2.8142,2.8575,2.8895,2.8896,2.9232,2.9454,2.9412,2.939,2.9388,2.9388,2.9388,2.9388,2.9388,2.9388,2.9368,2.9262,2.924,2.9178,3.0958,3.0645,2.752,2.6661,2.7286,2.7308,2.7756,2.8498,2.8498,2.8049,2.7383,2.8147,2.7618,2.6169,2.6935,0.0,2.9687,2.9708,3.0079,3.0801,3.0801,3.0801,3.0801,3.0801,3.0801,3.0801,3.0801,3.0801,3.0762,3.006,2.9669,2.9611,2.9611,2.9162,2.8381,2.9103,2.9513,2.9611,3.032,3.0735,3.0802,3.0736,3.069,3.069,3.071,3.0591,3.0413,3.0402,3.0333,3.0194,2.956,2.9165,2.9036,0.0,0.0,0.0,0.0,0.0,0.0,0.0,0.0,0.0,0.0,0.0,0.0,0.0,0.0,0.0,2.7903,0.0,2.79,2.7237,0.0,0.0,0.0,2.709,2.781,2.7894,2.7862,2.7794,0.0,0.0,2.7797,2.7797,2.8103,2.8891,2.8872,2.8483,2.7627,2.8145,2.8392,2.7582,2.7443,2.7411,2.7655,2.8106,2.8744,2.942,2.9701,2.9626,2.957,2.9513,2.9472,2.9394,2.939,2.9368,2.9347,2.9347,2.9347,2.9286,2.9344,2.9283,2.9071,2.9003,2.898,3.2383,3.1719,3.0919,3.0313,2.9904,2.9884,3.0021,3.0196,3.0216,3.0079,2.9901,3.0099,2.996,2.9589,2.9806,3.0118,3.0509,3.0509,3.0626,3.0801,3.0801,3.0801,3.0801,3.0801,3.0801,3.0801,3.0801,3.0801,3.0801,3.0606,3.0216,2.963,2.9611,2.9162,2.8362,2.8498,2.8928,2.9611,2.9734,3.0096,3.07,3.0698,3.069,3.069,3.0645,3.0567,3.0393,3.0356,3.0279,3.0199,3.0029,2.9621,2.8977,2.8096,0.0,0.0,0.0,0.0,0.0,0.0,0.0,0.0,0.0,2.6413,2.5859,0.0,2.6726,0.0,2.8025,2.8737,2.8767,2.8615,0.0,0.0,2.7718,2.7641,2.7753,2.8379,2.8522,2.7821,2.823,2.8605,2.8605,2.8605,2.8943,2.9726,2.8698,2.7788,2.7688,2.8232,2.8623,2.8391,2.8772,2.9152,2.9062,2.9232,2.9439,2.9664,2.9701,2.9683,2.9607,2.955,2.9472,2.9394,2.939,2.9326,2.9134,2.9071,2.8984,2.8808,2.8938,2.9071,2.9003,2.8975,2.8975,3.3124,3.2675,3.2675,3.2187,3.1348,3.0977,3.0801,3.0801,3.0801,3.0801,3.0801,3.0801,3.0801,3.0801,3.0801,3.0801,3.0801,3.0801,3.0801,3.0801,3.0801,3.0801,3.0801,3.0801,3.0801,3.0801,3.0801,3.0801,3.0801,3.0801,3.0567,3.0138,3.0118,2.9728,2.8908,2.8474,2.8491,2.8979,2.9312,2.9898,3.0665,3.0704,3.0522,3.0128,3.0044,2.9803,2.9313,2.922,2.9154,2.9104,2.909,2.8861,2.8383,2.7676,2.7075,0.0,0.0,0.0,0.0,0.0,0.0,0.0,0.0,0.0,0.0,0.0,2.7015,2.6963,2.8147,2.8739,2.8339,2.8338,2.8332,2.8267,2.8321,2.8506,2.8766,2.9264,2.9398,2.888,2.9211,2.9478,2.9478,2.9478,2.9636,3.0104,2.925,2.8597,2.8679,2.8988,2.9162,2.9132,2.9472,2.9756,2.9701,2.9701,2.9701,2.9701,2.9701,2.9683,2.9607,2.955,2.9472,2.9412,2.9289,2.9178,2.9026,2.8868,2.8713,2.8578,2.8646,2.8737,2.8773,2.8707,2.8749,3.3668,3.3573,3.3573,3.3066,3.2207,3.1328,3.0899,3.0801,3.0801,3.0801,3.0801,3.0801,3.0801,3.0801,3.0801,3.0801,3.0801,3.0801,3.0801,3.0801,3.0801,3.0801,3.0801,3.0801,3.0801,3.0801,3.0801,3.0801,3.0801,3.0801,3.0762,3.0645,3.064,3.0231,2.9435,2.8594,2.8193,2.8203,2.9059,2.9839,3.0522,3.0432,3.0011,2.9291,2.9152,2.873,2.7932,2.7824,2.7762,2.772,2.7708,2.7746,2.7835,2.7106,2.6721,0.0,2.6083,0.0,0.0,0.0,0.0,0.0,0.0,0.0,0.0,2.7714,2.76,2.7541,2.8285,2.8457,2.7689,2.7706,2.807,2.8757,2.8974,2.935,3.0028,3.0142,3.0157,3.0157,3.0171,3.0204,3.0166,3.0185,3.0157,3.0102,2.9915,2.9737,2.9834,2.9765,2.9734,2.9719,2.9701,2.972,2.9683,2.9701,2.9701,2.9701,2.9701,2.9664,2.9607,2.955,2.9472,2.9353,2.9163,2.8962,2.8915,2.8621,2.8453,2.8376,2.835,2.842,2.8551,2.8489,2.8386,3.5115,3.4471,3.4452,3.3964,3.3085,3.2226,3.1446,3.0801,3.0801,3.0801,3.0801,3.0801,3.0801,3.0801,3.0801,3.0801,3.0801,3.0801,3.0801,3.0801,3.0801,3.0801,3.0801,3.0801,3.0801,3.0801,3.0801,3.0801,3.0801,3.0801,3.045,2.9826,2.978,2.9331,2.8572,0.0,0.0,0.0,2.9063,2.9537,2.9608,2.901,2.8565,2.8346,2.8216,0.0,2.7813,2.7731,2.7708,2.7714,2.7701,0.0,0.0,0.0,0.0,0.0,0.0,0.0,0.0,0.0,0.0,0.0,2.7262,2.7388,2.7852,2.7733,2.7827,2.8332,2.8546,2.8836,2.9261,2.9298,2.9336,2.9485,2.9506,2.9545,2.9712,2.9851,2.9937,2.9972,3.0113,3.0204,3.0204,3.0161,3.0117,3.0068,2.9943,2.9842,2.9806,2.9808,2.979,2.9773,2.9738,2.9701,2.9701,2.9701,2.9701,2.9701,2.9701,2.9664,2.9607,2.9531,2.9373,2.9166,2.903,2.8821,2.8368,2.8237,2.8112,2.7897,2.7829,2.7971,2.8669,2.854,2.8368,3.5759,3.533,3.533,3.4842,0.0,3.3573,3.2636,3.1407,3.0977,3.0801,3.0801,3.0801,3.0801,3.0801,3.0801,3.0801,3.0801,3.0801,3.0801,3.0801,3.0801,3.0801,3.0801,3.0801,3.0801,3.0799,3.0768,3.0758,3.0758,3.072,3.0492,3.0102,3.0058,2.9839,2.9455,2.931,2.9063,2.8686,2.9136,2.9518,2.9854,2.9508,2.9074,2.8667,2.8541,0.0,0.0,0.0,0.0,0.0,0.0,0.0,0.0,2.7685,0.0,2.7919,2.7574,2.7513,2.7869,2.7869,2.8058,2.8499,2.8566,2.843,2.8118,2.8493,2.8812,2.8988,2.9045,2.923,2.9551,2.9589,2.9607,2.9608,2.9626,2.9644,2.9625,2.9767,2.9907,2.9926,3.0087,3.0204,3.0204,3.0147,3.0072,3.0007,2.9874,2.979,2.9774,2.9756,2.9737,2.9737,2.9719,2.9701,2.9701,2.9701,2.9645,2.9607,2.9626,2.9626,2.947,2.9372,2.923,2.9016,2.8761,2.842,2.8183,2.7992,2.7897,2.7858,2.7818,2.7943,2.8412,2.8174,2.7915,3.601,3.601,3.601,3.5603,3.492,3.4764,3.371,3.2051,3.1172,0.0,0.0,3.0801,3.0801,3.0801,3.0796,3.0794,3.0794,3.0768,3.0765,3.0765,3.0765,3.0785,3.0765,3.0765,3.0765,3.0765,3.0715,3.0677,3.0672,3.062,3.0613,3.0613,3.0579,3.0556,3.0532,3.0498,3.0124,2.9415,2.9255,2.9506,3.0162,3.0032,2.9638,2.8975,2.8912,2.8549,2.7811,2.7701,2.7656,2.7631,2.7476,2.7411,2.7544,2.7398,2.7392,2.7492,2.7529,2.7809,2.8483,2.8558,2.8875,2.966,2.9786,2.9451,2.8595,2.9338,2.9716,2.9427,2.9492,2.9531,2.9407,2.9434,2.9436,2.9453,2.9532,2.9551,2.9513,2.9662,2.977,2.9825,2.9956,3.0109,3.0104,3.0049,2.9991,2.9891,2.9825,2.9774,2.9701,2.9683,2.972,2.972,2.9683,2.9683,2.9645,2.9589,2.9531,2.9353,2.9414,2.9433,2.9265,2.9079,2.8971,2.8827,2.8438,2.8156,2.802,2.784,2.776,2.7915,2.7915,2.7943,2.7982,2.7719,2.7483,3.601,3.601,3.601,3.5935,3.5759,3.5018,3.371,3.2051,3.1172,3.0801,3.0801,3.0801,3.0801,3.0799,3.0735,3.07,3.0715,3.065,3.0626,3.0626,3.0626,3.0626,3.0646,3.0626,3.0626,3.0626,3.0614,3.0614,3.0607,3.062,3.0613,3.0598,3.0537,3.043,3.0273,3.0375,3.0294,3.0048,2.9484,2.9245,2.9361,2.8627,2.8164,2.7999,2.8022,2.7896,2.7708,2.7542,2.7452,2.7437,2.7248,2.7448,2.8123,2.8197,2.8483,2.9024,2.9118,2.9153,2.9082,2.9079,2.9156,2.9349,2.945,2.9454,2.9439,2.9551,2.9589,2.9409,2.9429,2.9427,2.9388,2.9307,2.9246,2.9243,2.9156,2.9089,2.9093,2.9291,2.9415,2.9436,2.9551,2.9748,2.9845,2.9784,2.9735,2.9771,2.9737,2.972,2.9683,2.9701,2.9701,2.9701,2.9701,2.9626,2.9453,2.9314,2.9209,2.8997,2.8929,2.8888,2.8814,2.8724,2.8621,2.8368,2.8183,2.802,2.7829,2.776,2.7701,2.7689,2.7659,2.7617,2.7587,2.7421,2.739,3.601,3.601,3.601,3.601,3.5932,3.5076,3.3983,3.2753,3.1875,3.1231,3.0799,3.0765,3.0758,3.0755,3.0672,3.0645,3.0639,3.0614,3.0613,3.0613,3.0613,3.0613,3.062,3.062,3.062,3.0613,3.0564,3.0548,3.0543,3.0519,3.0482,3.0443,3.0409,3.0304,3.0202,3.0254,3.0241,3.0199,2.9902,2.9678,2.9583,2.9301,2.9028,2.8802,2.8884,2.8855,2.8736,2.8636,2.8602,2.8586,2.8409,2.8464,2.8838,2.8816,2.8901,2.9163,2.9286,2.9307,2.92,2.9283,2.9326,2.9344,2.9386,2.9427,2.947,2.951,2.9451,2.9407,2.9388,2.9386,2.9326,2.9262,2.9178,2.9134,2.9062,2.9017,2.9021,2.9203,2.9347,2.9453,2.9509,2.9607,2.977,2.9643,2.9551,2.9626,2.9589,2.9531,2.9531,2.9434,2.9414,2.9511,2.9549,2.9394,2.9188,2.9082,2.8929,2.8676,2.8676,2.8628,2.8547,2.8446,2.8324,2.8166,2.801,2.784,2.773,2.7672,2.763,2.7539,2.7483,2.7438,2.7345,2.733,2.7345,3.6186,3.601,3.601,3.601,3.5955,3.5271,3.4491,3.3632,3.2753,3.1892,3.112,3.0821,3.0701,3.0686,3.0607,3.0591,3.0583,3.0568,3.056,3.056,3.056,3.056,3.054,3.0559,3.0559,3.054,3.049,3.0492,3.0452,3.0406,3.0336,3.0279,3.0292,3.0253,3.0213,3.0226,3.018,3.0123,3.0142,3.0049,2.9905,3.0,2.9902,2.9626,2.9732,2.977,2.9608,2.957,2.9532,2.9514,2.9334,2.9209,2.9228,2.916,2.9089,2.9062,2.9156,2.9262,2.9262,2.9347,2.9388,2.9388,2.9388,2.9388,2.9388,2.9388,2.9388,2.9388,2.9386,2.9344,2.9302,2.92,2.9175,2.9089,2.904,2.9017,2.8998,2.9138,2.9277,2.9421,2.9397,2.9437,2.954,2.9481,2.9415,2.9397,2.9375,2.9332,2.9312,2.9191,2.9169,2.9249,2.9291,2.9188,2.8906,2.879,2.8603,2.836,2.8394,2.8324,2.8228,2.8147,2.8093,2.801,2.784,2.7742,2.7683,2.7659,2.7587,2.7526,2.7452,2.7376,2.7313,2.7299,2.7299,3.6716,3.6049,3.601,3.601,3.5991,3.5893,3.5347,3.4488,3.3632,3.2755,3.1802,3.1042,3.0661,3.06,3.0554,3.051,3.0501,3.0449,3.0425,3.0425,3.0425,3.0425,3.0417,3.0417,3.0425,3.0425,3.0425,3.0394,3.0371,3.0316,3.0267,3.0234,3.0221,3.0194,3.0204,3.0204,3.0094,2.994,2.9921,2.9924,2.9888,2.9734,2.9644,2.9608,2.9626,2.9626,2.957,2.9416,2.9334,2.9314,2.9138,2.9021,2.9044,2.9112,2.9197,2.9178,2.9304,2.9386,2.9386,2.9386,2.9388,2.9388,2.9368,2.9368,2.9368,2.9368,2.9388,2.9347,2.9323,2.9304,2.9302,2.9175,2.913,2.9108,2.9021,2.8975,2.8998,2.8998,2.904,2.9035,2.9058,2.9015,2.9168,2.9135,2.9097,2.9191,2.9148,2.9144,2.9144,2.906,2.8993,2.8962,2.8943,2.8879,2.8707,2.8438,2.8255,2.8073,2.7886,2.784,2.7829,2.78,2.776,2.7829,2.7742,2.773,2.7672,2.7642,2.7569,2.7513,2.7438,2.7376,2.733,2.7267,2.725,3.6794,3.603,3.601,3.601,3.5991,3.5951,3.5431,3.4573,3.3682,3.2759,3.1841,3.096,3.0576,3.0554,3.0472,3.0439,3.0439,3.0421,3.0398,3.0398,3.0398,3.0398,3.0398,3.0398,3.0398,3.0398,3.0398,3.033,3.0169,3.0022,2.9931,2.9902,2.9869,2.9853,2.9855,2.9836,2.9803,2.9735,2.9608,2.9551,2.9551,2.9589,2.9493,2.9291,2.9355,2.9355,2.9249,2.916,2.9115,2.9115,2.9062,2.8975,2.8975,2.9108,2.9152,2.9152,2.9262,2.9344,2.9326,2.9386,2.9326,2.9178,2.9156,2.9093,2.8879,2.8879,2.8855,2.8832,2.9093,2.9262,2.9178,2.9112,2.9067,2.9062,2.9017,2.8975,2.8975,2.8975,2.9035,2.909,2.896,2.8901,2.8985,2.898,2.898,2.9079,2.9056,2.8984,2.8984,2.8821,2.8676,2.8594,2.8456,2.8378,2.8388,2.821,2.8017,2.7847,2.776,2.7701,2.7701,2.7701,2.7701,2.7701,2.7701,2.7672,2.763,2.7569,2.7526,2.7452,2.7376,2.7282,2.699,2.6957,2.6875,3.7145,3.6381,3.6127,3.601,3.601,3.5966,3.5568,3.489,3.3965,3.3172,3.2396,3.1333,3.0849,3.08,3.054,3.0398,3.0398,3.0398,3.0398,3.0398,3.0398,3.0398,3.0398,3.0398,3.0355,3.0279,3.0273,3.0161,2.9927,2.9767,2.9699,2.9681,2.9626,2.9608,2.9608,2.9608,2.9551,2.9494,2.9375,2.9272,2.9249,2.9355,2.9291,2.9044,2.9119,2.916,2.8998,2.8975,2.8975,2.8975,2.8947,2.8881,2.8881,2.8874,2.8865,2.8888,2.9012,2.9071,2.9048,2.9134,2.9052,2.8892,2.885,2.8761,2.8554,2.8478,2.8435,2.8428,2.8737,2.8957,2.8998,2.904,2.9062,2.9017,2.8975,2.8975,2.8975,2.8994,2.9012,2.9067,2.8894,2.8791,2.8869,2.8828,2.8845,2.8897,2.8868,2.881,2.8743,2.8562,2.8406,2.8327,2.8136,2.8071,2.8109,2.8007,2.7864,2.776,2.7701,2.7701,2.7701,2.7701,2.7701,2.7701,2.7701,2.7672,2.763,2.7557,2.7465,2.739,2.7313,2.7137,2.6842,2.6742,2.647,3.8024,3.7126,3.6342,3.601,3.601,3.5988,3.5947,3.5688,3.4859,3.4357,3.3866,3.2425,3.1697,3.1595,3.0852,3.0417,3.0398,3.0398,3.0398,3.0398,3.0398,3.0398,3.0398,3.0398,3.0267,3.0061,3.0041,2.9921,2.9717,2.9699,2.9681,2.957,2.957,2.9589,2.957,2.9551,2.9494,2.9314,2.9291,2.9206,2.9044,2.904,2.8998,2.897,2.8998,2.8998,2.8952,2.8975,2.8975,2.8975,2.8743,2.8601,2.8601,2.8395,2.8311,2.836,2.8488,2.8529,2.8496,2.8572,2.8554,2.8529,2.8529,2.8504,2.8428,2.8376,2.8298,2.8298,2.829,2.8404,2.8626,2.881,2.8929,2.8947,2.8975,2.8975,2.8994,2.8929,2.8892,2.8892,2.8791,2.8687,2.863,2.8587,2.8594,2.8619,2.8612,2.8587,2.8484,2.8424,2.8327,2.8219,2.8081,2.7996,2.7968,2.7893,2.776,2.7701,2.7701,2.7672,2.7701,2.7701,2.7701,2.7701,2.7672,2.7659,2.7617,2.7526,2.7421,2.7327,2.7233,2.704,2.6505,2.6624,2.6367,3.777,3.6462,3.6127,3.601,3.5988,3.5875,3.5807,3.5675,3.4768,3.4318,3.4056,3.3003,3.2485,3.2429,3.1602,3.0929,3.0417,3.0398,3.0398,3.0398,3.0398,3.0398,3.0379,3.0222,3.0122,2.9999,2.9883,2.9719,2.9516,2.9342,2.9228,2.9206,2.9225,2.9206,2.9225,2.9206,2.9181,2.9093,2.8962,2.8821,2.8779,2.8533,2.8412,2.8438,2.8626,2.8651,2.8438,2.8412,2.8412,2.8412,2.8334,2.8281,2.8264,2.8236,2.8174,2.8174,2.8298,2.8376,2.835,2.842,2.8376,2.8246,2.8246,2.8166,2.8037,2.7926,2.7858,2.7829,2.7915,2.8,2.8083,2.8299,2.8438,2.8438,2.8626,2.8743,2.8767,2.8815,2.8887,2.8821,2.8718,2.8637,2.8562,2.851,2.8458,2.8458,2.8406,2.8327,2.8273,2.8209,2.8109,2.8053,2.7922,2.776,2.7617,2.7719,2.7701,2.7672,2.7612,2.7539,2.7509,2.74,2.7369,2.7352,2.743,2.7539,2.7465,2.739,2.7264,2.7055,2.6957,2.6657,2.6052,2.6139,2.5815,3.775,3.6482,3.6108,3.5985,3.5951,3.582,3.5729,3.5591,3.4944,3.4655,3.4462,3.3699,3.3314,3.3179,3.2449,3.1795,3.116,3.0686,3.0386,3.0279,3.0267,3.0241,3.0188,3.0003,2.9861,2.978,2.957,2.9407,2.9269,2.909,2.9163,2.9384,2.9402,2.9549,2.9732,2.9787,2.9722,2.9625,2.9414,2.9303,2.9143,2.873,2.8421,2.833,2.8317,2.8255,2.8102,2.8102,2.8102,2.8102,2.802,2.7908,2.7886,2.7915,2.7904,2.7888,2.7943,2.802,2.8037,2.8075,2.8065,2.7926,2.7897,2.7829,2.7642,2.7569,2.7496,2.7496,2.7557,2.763,2.763,2.7742,2.7897,2.8075,2.8308,2.843,2.8404,2.85,2.8507,2.8422,2.8317,2.8291,2.8309,2.8255,2.8237,2.8237,2.8128,2.8063,2.7989,2.7864,2.7719,2.7677,2.7552,2.74,2.7324,2.7338,2.7369,2.7338,2.7338,2.7261,2.7166,2.7103,2.7021,2.7004,2.71,2.7261,2.731,2.7201,2.699,2.6742,2.6556,2.6315,2.5872,2.5594,2.5368,3.8082,3.7165,3.6362,3.5974,3.5919,3.5878,3.5764,3.56,3.5538,3.5418,3.5218,3.4545,3.4199,3.4026,3.3282,3.2859,3.2519,3.1264,3.0522,3.039,3.0257,3.0129,2.9964,2.9899,2.9664,2.9414,2.9193,2.9095,2.9145,2.9208,2.9557,3.0094,3.0119,3.038,3.1286,3.1045,3.1042,3.0731,3.0585,3.0546,3.0321,2.9585,2.9066,2.8785,2.824,2.8023,2.819,2.8101,2.802,2.802,2.7829,2.7552,2.7421,2.7438,2.7425,2.7407,2.7452,2.7483,2.7469,2.7526,2.7569,2.7569,2.7509,2.7539,2.7526,2.7452,2.7425,2.7407,2.7376,2.733,2.7345,2.7376,2.7539,2.7982,2.8075,2.8093,2.801,2.7954,2.7869,2.7818,2.7795,2.7701,2.773,2.78,2.7869,2.7858,2.78,2.7701,2.7595,2.743,2.7213,2.7103,2.7117,2.7135,2.707,2.7006,2.6973,2.6973,2.6973,2.694,2.6791,2.6674,2.6539,2.6522,2.6691,2.6841,2.6923,2.6842,2.6641,2.6385,2.621,2.5961,2.5631,2.5346,2.5269,3.8102,3.7223,3.6362,3.597,3.5889,3.5801,3.5706,3.5607,3.5553,3.5528,3.5449,3.5218,3.5103,3.4845,3.4064,3.357,3.3391,3.2232,3.1705,3.1768,3.1583,3.1142,3.0656,3.0433,2.9893,2.9322,2.9614,2.9819,2.9862,3.0134,3.0493,3.0612,3.0441,3.0484,3.0818,3.0736,3.0632,3.0545,3.0373,3.0221,3.0096,2.9677,2.9393,2.9277,2.9069,2.898,2.9007,2.8115,2.7574,2.7587,2.7483,2.739,2.733,2.733,2.733,2.7299,2.7362,2.7376,2.7425,2.7407,2.7452,2.7465,2.7496,2.7496,2.7496,2.7421,2.7393,2.7393,2.7362,2.7299,2.7299,2.7299,2.739,2.7509,2.7683,2.78,2.7725,2.7747,2.7776,2.7707,2.7618,2.7558,2.7513,2.753,2.7444,2.7413,2.7321,2.7244,2.7181,2.7103,2.707,2.7006,2.6973,2.6875,2.6775,2.664,2.6538,2.6538,2.6538,2.6487,2.6349,2.6227,2.612,2.6139,2.6264,2.6402,2.6488,2.6419,2.6229,2.6016,2.5762,2.5519,2.523,2.513,2.5091,3.8277,3.7653,3.6466,3.5909,3.5827,3.5704,3.563,3.5558,3.5509,3.5507,3.5493,3.5479,3.5493,3.5331,3.4665,3.432,3.4175,3.3375,3.3052,3.3052,3.2336,3.1748,3.1198,3.1009,3.0512,2.9923,3.0202,3.0389,3.0295,3.0585,3.0851,3.1056,3.0933,3.1034,3.1266,3.1301,3.124,3.1083,3.0961,3.0779,3.061,3.0179,2.9955,2.9903,2.9679,2.9455,2.923,2.834,2.7858,2.7681,2.7471,2.7299,2.7299,2.7299,2.7299,2.7299,2.7299,2.733,2.7362,2.7345,2.7376,2.7438,2.7421,2.7421,2.7421,2.7376,2.7345,2.7362,2.733,2.7299,2.7299,2.7233,2.7233,2.7233,2.7369,2.743,2.7369,2.7361,2.7344,2.7279,2.723,2.7197,2.7156,2.7115,2.7021,2.6989,2.6908,2.6842,2.6825,2.6759,2.6759,2.6725,2.6623,2.6537,2.6468,2.6293,2.6099,2.6063,2.6046,2.5974,2.5864,2.5775,2.5663,2.5742,2.5872,2.6087,2.6175,2.6016,2.5835,2.5577,2.5389,2.523,2.5068,2.5029,2.4989,3.8567,3.8349,3.665,3.5807,3.5704,3.5621,3.557,3.552,3.5493,3.5474,3.5479,3.5412,3.5412,3.5383,3.5007,3.4829,3.4906,3.436,3.4004,3.3691,3.2799,3.1941,3.1556,3.1336,3.0969,3.0722,3.0875,3.079,3.0606,3.0731,3.0866,3.1542,3.1586,3.1902,3.2296,3.266,3.2343,3.2038,3.2109,3.1917,3.1647,3.1093,3.0748,3.0713,3.0162,2.9659,2.9319,2.8972,2.8693,2.8338,2.7755,2.7511,2.7385,2.7351,2.7291,2.7336,2.7316,2.7267,2.7299,2.733,2.733,2.733,2.7282,2.7282,2.7282,2.725,2.725,2.7299,2.7299,2.7299,2.725,2.7201,2.7103,2.7085,2.7135,2.7087,2.6909,2.6842,2.6825,2.6775,2.6657,2.6621,2.6674,2.6674,2.6674,2.6674,2.6623,2.6572,2.6537,2.6434,2.6258,2.6258,2.6329,2.6241,2.6189,2.5964,2.5783,2.5733,2.5659,2.5584,2.5508,2.5432,2.5339,2.5422,2.5503,2.5689,2.5726,2.5594,2.5481,2.5368,2.523,2.5029,2.4966,2.4966,2.4791,3.8449,3.8249,3.6508,3.5724,3.564,3.5618,3.5565,3.5507,3.5446,3.5412,3.5412,3.5364,3.5235,3.5102,3.4889,3.4675,3.4427,3.4165,3.3979,3.3899,3.3534,3.2735,3.1928,3.1311,3.0884,3.0718,3.116,3.138,3.1342,3.1532,3.1839,3.2086,3.183,3.1847,3.2038,3.2109,3.202,3.1965,3.1929,3.1893,3.1802,3.161,3.1507,3.1489,3.1248,3.0891,3.0425,2.9644,2.8893,2.834,2.8431,2.8305,2.7937,2.7538,2.7418,2.7564,2.7209,2.7057,2.7302,2.7368,2.7351,2.7267,2.7226,2.6973,2.725,2.7023,2.7023,2.7218,2.7299,2.7233,2.7184,2.7152,2.7055,2.6957,2.6925,2.6942,2.6876,2.6792,2.6674,2.664,2.6571,2.6502,2.6434,2.6399,2.6364,2.6364,2.6329,2.631,2.6293,2.631,2.6168,2.6134,2.6154,2.603,2.5888,2.5628,2.5459,2.54,2.5317,2.524,2.5201,2.5201,2.5123,2.513,2.5208,2.5384,2.5285,2.5146,2.513,2.5192,2.5052,2.4926,2.4926,2.4902,2.4589,3.8284,3.8148,3.6357,3.559,3.5543,3.5495,3.5457,3.5407,3.5379,3.5364,3.5315,3.5184,3.5086,3.4962,3.4653,3.4416,3.4176,3.3979,3.3842,3.3788,3.3597,3.3184,3.256,3.1928,3.15,3.1274,3.165,3.1764,3.1737,3.1969,3.2056,3.202,3.1893,3.18,3.1819,3.18,3.18,3.18,3.18,3.18,3.18,3.18,3.1651,3.1576,3.1483,3.1257,3.0542,2.9865,2.9124,2.8461,2.8448,2.8491,2.8216,2.7838,2.7801,2.8134,2.7843,2.7811,2.8114,2.823,2.8213,2.8197,2.798,2.7842,2.7786,2.7518,2.7516,2.7203,2.7218,2.7152,2.7087,2.7023,2.6957,2.6859,2.6792,2.6792,2.6825,2.6742,2.6674,2.6606,2.6553,2.6449,2.6295,2.6258,2.6187,2.6203,2.6222,2.6203,2.6203,2.6168,2.6129,2.6072,2.5868,2.573,2.5556,2.531,2.5178,2.5132,2.5089,2.4961,2.5114,2.5123,2.4989,2.4949,2.4958,2.4966,2.4926,2.4926,2.5029,2.5029,2.4926,2.4766,2.4726,2.4589,2.4287,3.8112,3.8025,3.6238,3.547,3.5457,3.5355,3.5296,3.5266,3.5251,3.52,3.5152,3.4943,3.4851,3.4889,3.4435,3.4184,3.4123,3.3902,3.377,3.3606,3.3379,3.3051,3.2937,3.2594,3.2287,3.2055,3.2214,3.2056,3.1844,3.1802,3.1837,3.1819,3.1746,3.1709,3.1617,3.1634,3.1634,3.1559,3.1521,3.1504,3.1504,3.1521,3.1329,3.1072,3.0902,3.0584,3.0038,2.9664,2.9237,2.8352,2.8349,2.8448,2.8382,2.827,2.8362,2.8588,2.8578,2.8648,2.9178,2.9007,2.9196,2.9041,2.9023,2.9059,2.8357,2.8049,2.781,2.7469,2.7245,2.7367,2.7418,2.7249,2.725,2.725,2.708,2.6962,2.6894,2.681,2.6657,2.6572,2.6502,2.6415,2.6329,2.6222,2.6203,2.6203,2.6151,2.6115,2.6026,2.5901,2.5901,2.5913,2.5664,2.5427,2.521,2.4983,2.4916,2.487,2.4848,2.4839,2.513,2.5164,2.4947,2.4848,2.5045,2.492,2.471,2.4766,2.4878,2.4726,2.4523,2.4441,2.4359,2.412,2.3867,3.8028,3.7892,3.6103,3.534,3.534,3.5296,3.5219,3.5049,3.5015,3.4906,3.4755,3.4655,3.4508,3.4371,3.4269,3.4099,3.3928,3.3815,3.368,3.3332,3.2749,3.2537,3.2504,3.2437,3.2214,3.1984,3.1929,3.1856,3.18,3.1763,3.18,3.1709,3.1372,3.124,3.1257,3.1004,3.0764,3.0764,3.0804,3.0845,3.0861,3.0845,3.0723,3.0535,3.0208,2.9995,2.9793,2.9425,2.913,2.9042,2.9145,2.906,2.881,2.843,2.8414,2.8608,2.8305,2.8145,2.8439,2.8691,2.8553,2.8691,2.8572,2.8069,2.8108,2.7855,2.7904,2.8018,2.8219,2.8157,2.8298,2.8505,2.8296,2.8157,2.8154,2.8152,2.8121,2.7313,2.6774,2.6534,2.6499,2.6345,2.6289,2.6316,2.63,2.6201,2.6145,2.604,2.5926,2.5821,2.5834,2.5911,2.5616,2.5449,2.543,2.5175,2.4954,2.4864,2.4777,2.4908,2.5243,2.5288,2.5118,2.5109,2.5145,2.5018,2.4905,2.4606,2.4694,2.4451,2.4166,2.4009,2.3824,2.3638,2.3334,3.7832,3.7597,3.5959,3.5119,3.498,3.5051,3.4981,3.4794,3.4735,3.4656,3.4551,3.442,3.4298,3.4197,3.4074,3.3921,3.3788,3.3625,3.3291,3.2844,3.2437,3.2214,3.2055,3.2055,3.1948,3.18,3.18,3.1709,3.1542,3.1466,3.1351,3.1179,3.0925,3.0845,3.0845,3.0601,3.0518,3.0477,3.0477,3.0493,3.0417,3.0267,2.9919,2.9597,2.921,2.8996,2.9104,2.8732,2.8669,2.8811,2.8873,2.9028,2.909,2.879,2.883,2.9039,2.8949,2.8835,2.919,2.9287,2.931,2.9107,2.8977,2.8707,2.8558,2.8257,2.8101,2.8129,2.813,2.8207,2.8384,2.8345,2.834,2.8229,2.8207,2.8112,2.7925,2.7649,2.749,2.7364,2.7444,2.7391,2.7267,2.6829,2.6798,2.6863,2.6559,2.6463,2.639,2.629,2.6099,2.6009,2.5701,2.5539,2.5606,2.5403,2.5124,2.5003,2.4911,2.5141,2.552,2.5505,2.5386,2.5409,2.5454,2.5497,2.5343,2.4989,2.4551,2.4364,2.4086,2.3628,2.3246,2.2994,2.2663,3.7585,3.7338,3.5757,3.4851,3.4572,3.4734,3.4694,3.4464,3.4464,3.442,3.4375,3.4203,3.4105,3.4074,3.3939,3.3807,3.3625,3.335,3.2939,3.2437,3.2249,3.1966,3.1765,3.1654,3.1617,3.1617,3.1617,3.1411,3.1123,3.1004,3.0925,3.0559,3.0435,3.0393,3.0393,3.0251,2.9978,2.9789,2.9789,2.9717,2.9589,2.939,2.8979,2.8466,2.8097,2.803,2.8192,2.7997,2.7963,2.8255,2.7997,2.8304,2.8779,2.9044,2.9148,2.9502,2.9387,2.9468,2.9664,2.9929,2.9907,3.0097,2.9962,2.9658,2.9036,2.876,2.8565,2.8322,2.8208,2.8258,2.7971,2.8232,2.81,2.7953,2.7805,2.7572,2.7572,2.8152,2.8359,2.802,2.7611,2.745,2.7525,2.7332,2.7429,2.7451,2.7121,2.6851,2.672,2.6572,2.6257,2.6108,2.5773,2.5925,2.6024,2.6007,2.5666,2.545,2.527,2.5379,2.5726,2.5718,2.5646,2.5771,2.5813,2.5738,2.5513,2.5062,2.4686,2.4416,2.3831,2.3155,2.2737,2.2334,2.201,3.7432,3.7259,3.5394,3.4572,3.4508,3.4551,3.4442,3.4274,3.425,3.413,3.3947,3.3895,3.3913,3.386,3.386,3.3652,3.3379,3.3032,3.2651,3.2249,3.202,3.1654,3.1355,3.1257,3.1044,3.0885,3.0965,3.0908,3.0666,3.0584,3.046,3.0393,3.0038,2.9865,2.9689,2.9438,2.895,2.8639,2.8544,2.8306,2.8015,2.7853,2.7689,2.7419,2.7217,2.7268,2.7333,2.7333,2.7399,2.7615,2.76,2.7913,2.8319,2.8479,2.8638,2.8857,2.9042,2.9229,2.9307,2.9215,2.9091,2.9045,2.9137,2.9075,2.8762,2.8668,2.8629,2.8825,2.8998,2.9281,2.9437,2.901,2.9122,2.9095,2.8806,2.864,2.8627,2.8637,2.8391,2.7694,2.7413,2.7434,2.7625,2.7678,2.7522,2.7422,2.7112,2.6795,2.6535,2.6334,2.6086,2.5964,2.5884,2.6182,2.6505,2.6535,2.635,2.6182,2.594,2.5692,2.5873,2.5889,2.5887,2.572,2.5731,2.5678,2.5399,2.498,2.4563,2.4155,2.3414,2.2651,2.2234,2.1847,2.1429,3.6877,3.6239,3.5015,3.4334,3.4165,3.426,3.4208,3.4023,3.3998,3.3921,3.3815,3.3807,3.3807,3.3807,3.3807,3.3522,3.3063,3.2684,3.2369,3.202,3.16,3.1372,3.1027,3.0925,3.0543,3.0293,3.0251,3.0276,3.0123,3.0123,2.9995,2.9661,2.9196,2.8904,2.8764,2.8273,2.7849,2.75,2.7449,2.7333,2.699,2.6886,2.673,2.652,2.6481,2.6573,2.673,2.6534,2.6654,2.6864,2.6759,2.6901,2.7159,2.7464,2.7879,2.8462,2.8763,2.8826,2.8842,2.881,2.8779,2.8732,2.8684,2.8636,2.8525,2.8542,2.8558,2.8748,2.8826,2.9044,2.8888,2.8951,2.8842,2.8685,2.8591,2.848,2.8384,2.8367,2.792,2.7427,2.7887,2.8099,2.8086,2.7966,2.7627,2.7334,2.7116,2.6849,2.6467,2.6253,2.6085,2.5981,2.598,2.6116,2.6385,2.6322,2.6326,2.6272,2.615,2.5853,2.5633,2.5495,2.5412,2.5338,2.5357,2.5212,2.5036,2.4588,2.421,2.3832,2.3067,2.2337,2.1822,2.1391,2.1,3.6328,3.5343,3.4577,3.4025,3.3762,3.3831,3.385,3.3734,3.3707,3.3753,3.3807,3.3807,3.3753,3.3698,3.3569,3.3273,3.2716,3.242,3.2144,3.1802,3.1372,3.1083,3.0885,3.0502,3.0038,2.9601,2.9316,2.9377,2.9556,2.9572,2.9319,2.8889,2.8271,2.7978,2.7864,2.7485,2.7041,2.6782,2.6782,2.6782,2.6534,2.6283,2.6082,2.577,2.5729,2.5865,2.6068,2.592,2.5934,2.6096,2.6042,2.5948,2.6042,2.6312,2.7122,2.8204,2.8398,2.8411,2.8376,2.8299,2.8107,2.8057,2.8171,2.8107,2.8107,2.8024,2.8235,2.8314,2.8444,2.8396,2.8332,2.8171,2.8073,2.7925,2.7875,2.7775,2.776,2.776,2.781,2.7811,2.8479,2.8418,2.8074,2.7867,2.7425,2.7327,2.7115,2.7061,2.6695,2.6425,2.6275,2.6136,2.6076,2.6062,2.6068,2.5783,2.5756,2.5701,2.5522,2.5258,2.5034,2.4851,2.4784,2.4673,2.4446,2.4273,2.4186,2.4303,2.4117,2.3685,2.2792,2.2156,2.1809,2.1197,2.068,3.6217,3.5293,3.3982,3.339,3.335,3.3105,3.3136,3.3332,3.335,3.3522,3.3688,3.3753,3.3587,3.3357,3.3032,3.2716,3.2437,3.2283,3.2038,3.1654,3.124,3.0788,3.046,2.9968,2.9361,2.8857,2.8384,2.8496,2.8732,2.8826,2.8574,2.811,2.7849,2.77,2.7166,2.6834,2.6663,2.6187,2.6068,2.5825,2.5439,2.5272,2.523,2.5174,2.5174,2.5216,2.5328,2.5272,2.5342,2.5592,2.5592,2.5853,2.6312,2.6351,2.6602,2.6953,2.7137,2.7122,2.7217,2.724,2.721,2.721,2.7108,2.6953,2.7137,2.7444,2.7775,2.821,2.8247,2.8088,2.784,2.789,2.789,2.769,2.7423,2.7473,2.7524,2.7342,2.7357,2.7414,2.7819,2.77,2.7425,2.7348,2.724,2.7218,2.713,2.7041,2.6884,2.65,2.6056,2.5825,2.5701,2.5687,2.5577,2.5356,2.5147,2.509,2.4851,2.461,2.4394,2.4118,2.3884,2.3741,2.3543,2.359,2.3826,2.3948,2.4019,2.3521,2.2629,2.2242,2.1924,2.1205,2.0428,3.5375,3.4147,3.3564,3.3184,3.2983,3.2876,3.2858,3.3001,3.3014,3.3092,3.3214,3.3252,3.3124,3.2957,3.2651,3.2437,3.2283,3.2091,3.1748,3.1261,3.0811,3.0218,2.9432,2.8872,2.8384,2.7981,2.76,2.7434,2.7765,2.7815,2.765,2.7434,2.7063,2.6686,2.6438,2.604,2.5742,2.5481,2.5384,2.5286,2.5061,2.5005,2.5005,2.5005,2.5005,2.5005,2.5005,2.5005,2.5061,2.5201,2.5188,2.5355,2.555,2.5591,2.5646,2.5797,2.5851,2.6125,2.6664,2.6698,2.664,2.6678,2.6692,2.675,2.6756,2.687,2.7026,2.7202,2.7292,2.7203,2.7004,2.6849,2.6811,2.6707,2.6826,2.6997,2.7034,2.7086,2.7004,2.7063,2.7004,2.6879,2.682,2.6864,2.6841,2.687,2.6817,2.6712,2.6553,2.634,2.5825,2.5245,2.5189,2.5175,2.5021,2.4851,2.458,2.4408,2.393,2.3754,2.3649,2.3424,2.3305,2.3198,2.3138,2.3292,2.3505,2.3374,2.317,2.2867,2.2504,2.2129,2.1691,2.1107,2.0336,3.4509,3.3081,3.3063,3.2908,3.2684,3.2586,3.2586,3.2666,3.2684,3.2724,3.2733,3.2706,3.2674,3.2519,3.2196,3.1842,3.1896,3.1545,3.1145,3.0673,3.01,2.9432,2.8732,2.8112,2.75,2.7027,2.6797,2.6692,2.664,2.6625,2.6611,2.6768,2.6375,2.5986,2.5673,2.5425,2.5104,2.5118,2.5061,2.5005,2.5005,2.5005,2.5005,2.5005,2.5005,2.5005,2.5005,2.5005,2.5005,2.5005,2.5005,2.5061,2.5118,2.5174,2.5118,2.516,2.5216,2.5425,2.5934,2.6108,2.6254,2.6254,2.6283,2.6207,2.646,2.6494,2.6529,2.6529,2.6558,2.6336,2.6079,2.6079,2.6094,2.6054,2.5946,2.6176,2.6351,2.639,2.6371,2.6256,2.6227,2.615,2.6154,2.6308,2.6404,2.65,2.65,2.6379,2.6056,2.577,2.5203,2.4452,2.4323,2.4323,2.4221,2.4118,2.3897,2.3839,2.3365,2.3185,2.3245,2.3198,2.3078,2.2957,2.2775,2.258,2.2604,2.2457,2.2359,2.2298,2.2201,2.1813,2.1428,2.0759,1.9991,3.3723,3.2386,3.2369,3.2335,3.2318,3.1984,3.2038,3.23,3.2352,3.2473,3.2558,3.2387,3.2247,3.2108,3.1531,3.1133,3.1016,3.0435,3.0285,2.9886,2.9236,2.8732,2.8115,2.747,2.6901,2.6692,2.6229,2.5988,2.5879,2.5632,2.5701,2.5839,2.5825,2.555,2.5272,2.5118,2.5005,2.5005,2.5005,2.5005,2.5005,2.5005,2.5005,2.5005,2.5005,2.5005,2.5005,2.5005,2.5005,2.5005,2.5005,2.5005,2.5005,2.5005,2.5005,2.5005,2.5005,2.516,2.537,2.537,2.5216,2.516,2.523,2.5522,2.5814,2.5758,2.5827,2.6063,2.5936,2.5906,2.5823,2.5877,2.5605,2.5508,2.5356,2.5522,2.5687,2.5687,2.5658,2.549,2.549,2.5534,2.5301,2.5412,2.5728,2.5865,2.5756,2.5577,2.5034,2.4694,2.4176,2.3662,2.3424,2.3352,2.3292,2.3305,2.3424,2.3484,2.3245,2.3125,2.3125,2.3017,2.2702,2.2519,2.2273,2.1951,2.1702,2.1639,2.1714,2.1913,2.183,2.1431,2.086,2.0155,1.926,3.3002,3.1565,3.1565,3.1731,3.1984,3.1873,3.1856,3.2001,3.2001,3.1982,3.2015,3.1843,3.1788,3.1596,3.1206,3.0851,3.0771,3.0344,2.9919,2.9419,2.8856,2.8115,2.744,2.6715,2.6082,2.5811,2.5439,2.5342,2.5286,2.5104,2.5118,2.5286,2.5397,2.523,2.5061,2.5005,2.5005,2.5005,2.5005,2.5005,2.5005,2.5005,2.5005,2.5005,2.5005,2.5005,2.5005,2.5005,2.5005,2.5005,2.5005,2.5005,2.5005,2.5005,2.5005,2.5005,2.5005,2.5005,2.5005,2.5005,2.5005,2.4948,2.4948,2.4989,2.5281,2.5075,2.4948,2.5046,2.5131,2.5063,2.4865,2.4808,2.4708,2.4765,2.4808,2.4978,2.5034,2.5021,2.4925,2.4804,2.494,2.5104,2.4791,2.4487,2.4892,2.5189,2.5007,2.4781,2.4292,2.3956,2.3603,2.3378,2.3185,2.3005,2.3005,2.3005,2.3065,2.3005,2.2944,2.2871,2.2689,2.2445,2.2137,2.2013,2.1628,2.1123,2.0858,2.0869,2.0933,2.1071,2.1055,2.0917,2.0284,1.9526,1.8775,3.2291,3.1083,3.1044,3.1257,3.1596,3.1579,3.1671,3.18,3.18,3.1617,3.1393,3.1157,3.1038,3.0925,3.0543,3.0276,3.0048,2.9536,2.9087,2.8529,2.7853,2.7217,2.652,2.592,2.5439,2.5061,2.5005,2.5005,2.5061,2.5005,2.5061,2.5061,2.5005,2.5005,2.5005,2.5005,2.5005,2.5005,2.5005,2.5005,2.5005,2.5005,2.5005,2.5005,2.5005,2.5005,2.5005,2.5005,2.5005,2.5005,2.5005,2.5005,2.5005,2.5005,2.5005,2.5005,2.5005,2.5005,2.4948,2.5005,2.5005,2.5005,2.4892,2.4821,2.4738,2.4637,2.4549,2.4421,2.4363,2.4203,2.4125,2.4287,2.4332,2.439,2.4274,2.439,2.4376,2.4408,2.4218,2.4085,2.42,2.4274,2.4099,2.3819,2.391,2.4208,2.4105,2.3989,2.3826,2.3543,2.3484,2.3245,2.3125,2.2944,2.2811,2.2689,2.2494,2.2063,2.2063,2.2187,2.2051,2.1741,2.1491,2.1302,2.0921,2.0279,2.0085,2.0215,2.0226,2.0226,2.0278,2.0339,1.9469,1.8765,1.8521,3.1694,3.0937,3.0788,3.0868,3.1044,3.1123,3.1334,3.1579,3.1617,3.1355,3.0834,3.0344,3.0133,3.0091,2.9717,2.9451,2.9102,2.8306,2.7735,2.7485,2.6834,2.6136,2.5811,2.5439,2.5118,2.5005,2.5005,2.5005,2.5005,2.4892,2.4948,2.4892,2.4765,2.4835,2.4948,2.5005,2.5005,2.4948,2.4948,2.4948,2.5005,2.4948,2.4892,2.5005,2.5005,2.5005,2.5005,2.5005,2.5005,2.5005,2.5005,2.5005,2.5005,2.5005,2.5005,2.5005,2.5005,2.4948,2.4835,2.4948,2.4948,2.4892,2.4778,2.4708,2.4708,2.4536,2.4305,2.4261,2.4203,2.4171,2.4125,2.4125,2.4125,2.4067,2.3949,2.3878,2.3923,2.3852,2.3722,2.3658,2.3335,2.3185,2.3198,2.3138,2.3138,2.3173,2.3125,2.3125,2.3053,2.2932,2.275,2.2689,2.2506,2.2384,2.2187,2.2113,2.1928,2.1428,2.1239,2.1479,2.129,2.091,2.0719,2.0602,2.015,1.9507,1.9507,1.9573,1.9507,1.9441,1.9704,1.9585,1.8757,1.8151,1.8046,3.0818,3.0021,2.9919,2.9919,3.0005,3.0302,3.0567,3.0633,3.0592,3.0427,3.0243,2.9935,2.9865,2.9733,2.9332,2.8904,2.8401,2.7932,2.7399,2.6886,2.619,2.6002,2.5729,2.5342,2.5005,2.5005,2.5005,2.4948,2.5005,2.4708,2.4536,2.4465,2.4292,2.4305,2.4421,2.4523,2.4536,2.4536,2.4536,2.465,2.4892,2.4708,2.465,2.4948,2.4948,2.4948,2.4948,2.4948,2.4948,2.4948,2.4948,2.5005,2.5005,2.5005,2.5005,2.4948,2.4948,2.4778,2.4721,2.4721,2.4734,2.4664,2.4593,2.4536,2.4465,2.4319,2.4216,2.4157,2.4171,2.4125,2.4125,2.4125,2.4067,2.3949,2.3891,2.37,2.3688,2.3569,2.3458,2.3314,2.3125,2.3005,2.2944,2.2506,2.2384,2.231,2.2249,2.2063,2.199,2.1815,2.1628,2.1628,2.1565,2.1565,2.1502,2.1428,2.1302,2.0921,2.0846,2.1026,2.0707,2.0139,1.9879,1.9748,1.9243,1.8731,1.8787,1.8787,1.8654,1.8664,1.8988,1.9054,1.8459,1.8044,1.7905,3.0175,2.9528,2.9377,2.9196,2.915,2.9629,2.9919,3.0005,2.9816,2.9657,2.9629,2.9438,2.9273,2.9136,2.8779,2.8432,2.7853,2.7232,2.6849,2.6336,2.5811,2.5619,2.5397,2.523,2.5061,2.4948,2.4791,2.4734,2.4708,2.4292,2.4105,2.393,2.3649,2.3603,2.3826,2.4002,2.4221,2.4234,2.4234,2.4465,2.4523,2.4465,2.435,2.4708,2.4765,2.4523,2.4708,2.4765,2.4765,2.4765,2.4878,2.4948,2.5005,2.5005,2.4948,2.4892,2.4708,2.4593,2.4536,2.4447,2.4447,2.439,2.4305,2.4292,2.4292,2.4203,2.4171,2.4112,2.4125,2.4125,2.4125,2.4125,2.4008,2.3891,2.3713,2.3582,2.345,2.333,2.3173,2.304,2.2787,2.2714,2.2506,2.2063,2.1628,2.1491,2.1353,2.1175,2.1049,2.0996,2.0869,2.0933,2.0933,2.0996,2.0869,2.0677,2.0484,2.0355,2.0279,2.0193,1.9879,1.9243,1.911,1.8977,1.8654,1.8472,1.8202,1.8076,1.8202,1.8202,1.8269,1.8202,1.8008,1.7949,1.7861,2.9805,2.9361,2.9166,2.8826,2.8525,2.895,2.9464,2.9843,2.9345,2.9088,2.9042,2.8542,2.8398,2.822,2.773,2.7449,2.7297,2.6404,2.6096,2.577,2.5397,2.5174,2.5005,2.4948,2.4778,2.4677,2.4532,2.4313,2.4247,2.3826,2.3577,2.3399,2.3078,2.3017,2.3185,2.359,2.3767,2.3708,2.3826,2.406,2.4118,2.3884,2.406,2.4292,2.4221,2.4105,2.4163,2.4292,2.4292,2.4408,2.465,2.4835,2.4948,2.4935,2.4892,2.4778,2.4478,2.435,2.4305,2.4229,2.4171,2.4229,2.4247,2.4234,2.4247,2.4157,2.4112,2.4125,2.4125,2.4125,2.4125,2.4008,2.3949,2.3772,2.3582,2.339,2.321,2.3053,2.2942,2.2665,2.2259,2.2011,2.1577,2.1187,2.0933,2.073,2.0602,2.0473,2.0355,2.0537,2.0484,2.0549,2.0549,2.0484,2.0291,1.9966,1.9715,1.9518,1.9121,1.8988,1.8596,1.8596,1.8529,1.8462,1.8395,1.8202,1.8076,1.8008,1.8008,1.8008,1.8008,1.8008,1.8008,1.8008,1.7939,2.9287,2.8842,2.8653,2.8253,2.778,2.7535,2.7555,2.7674,2.7819,2.7834,2.7434,2.7665,2.758,2.7159,2.699,2.6692,2.6404,2.6042,2.5674,2.5342,2.5061,2.4821,2.4607,2.4518,2.4319,2.4112,2.3916,2.3824,2.3721,2.3352,2.2884,2.2592,2.2555,2.2494,2.2665,2.3017,2.3078,2.3198,2.3318,2.3543,2.359,2.3365,2.3649,2.3754,2.3754,2.3636,2.3754,2.3754,2.3754,2.3872,2.4176,2.4363,2.435,2.4536,2.4677,2.4478,2.435,2.4234,2.4157,2.4112,2.4054,2.3995,2.4086,2.4157,2.4157,2.4041,2.4054,2.4125,2.4125,2.4125,2.4054,2.3949,2.376,2.345,2.3258,2.3017,2.2763,2.2494,2.2311,2.1796,2.1455,2.1261,2.082,2.0549,2.0291,2.0031,1.9846,1.9781,1.9781,1.9901,1.9966,1.9966,1.9901,1.9835,1.9518,1.9198,1.8931,1.8674,1.8405,1.8279,1.8337,1.8337,1.8134,1.8144,1.8134,1.8144,1.8008,1.8008,1.8008,1.8008,1.8008,1.8008,1.8008,1.7862,1.7862,2.892,2.8573,2.8171,2.761,2.6901,2.6496,2.6269,2.6215,2.6834,2.699,2.673,2.7041,2.699,2.6745,2.6481,2.6229,2.5948,2.5619,2.5342,2.5118,2.4821,2.458,2.4376,2.408,2.3891,2.362,2.3419,2.3362,2.3223,2.2896,2.242,2.2309,2.2197,2.2197,2.2309,2.2494,2.2604,2.2726,2.2836,2.3065,2.3078,2.2957,2.3065,2.3352,2.3292,2.3173,2.3292,2.3233,2.316,2.316,2.3399,2.3518,2.3446,2.3636,2.3623,2.3433,2.3314,2.3267,2.322,2.3543,2.3484,2.3543,2.3734,2.3734,2.3662,2.3603,2.3923,2.4112,2.4125,2.4067,2.3995,2.3819,2.3497,2.3125,2.2823,2.2506,2.2187,2.1815,2.1335,2.0894,2.064,2.0488,2.026,1.99,1.9649,1.9518,1.9386,1.933,1.9264,1.932,1.932,1.932,1.9187,1.9065,1.8808,1.8674,1.8539,1.8405,1.8269,1.8134,1.8134,1.8134,1.8076,1.8008,1.8008,1.8008,1.794,1.8008,1.8008,1.7872,1.7657,1.7442,1.7364,1.7432,1.7432,2.8525,2.8414,2.7665,2.6811,2.5948,2.5893,2.555,2.516,2.6108,2.6573,2.652,2.6625,2.6573,2.6269,2.596,2.5811,2.5619,2.5286,2.5048,2.4948,2.4593,2.4292,2.3923,2.3765,2.3428,2.3321,2.3117,2.285,2.2763,2.2494,2.2309,2.2197,2.2197,2.2197,2.2197,2.2259,2.2309,2.2371,2.2555,2.2787,2.2726,2.2604,2.2543,2.3113,2.2836,2.2432,2.2604,2.258,2.231,2.2372,2.2421,2.2543,2.2615,2.2579,2.2457,2.2408,2.2482,2.247,2.2531,2.2786,2.2725,2.2847,2.3173,2.3053,2.304,2.3543,2.3995,2.3793,2.3734,2.3603,2.3543,2.3125,2.2689,2.2433,2.2125,2.1741,2.1239,2.0858,2.044,2.0116,1.9998,1.9854,1.9679,1.9386,1.9452,1.9198,1.9065,1.8942,1.8942,1.8931,1.8865,1.8798,1.8741,1.8741,1.8607,1.8482,1.8337,1.8202,1.8066,1.8076,1.8076,1.8076,1.8008,1.8008,1.8008,1.7862,1.7794,1.7725,1.7579,1.7304,1.7019,1.6802,1.6733,1.6655,1.6724,2.7845,2.7665,2.6707,2.6096,2.5825,2.5397,2.5174,2.5005,2.5272,2.5481,2.5481,2.5865,2.5865,2.5536,2.5384,2.5272,2.5174,2.5061,2.4765,2.4536,2.4305,2.3839,2.3378,2.3188,2.2934,2.2629,2.2407,2.2431,2.2383,2.2247,2.2197,2.2197,2.2197,2.2197,2.2197,2.2197,2.2197,2.2123,2.2247,2.2371,2.2309,2.2309,2.2371,2.2482,2.2197,2.2061,2.2099,2.1963,2.1714,2.1588,2.1753,2.1918,2.2177,2.2152,2.2161,2.2109,2.1975,2.1865,2.1978,2.2101,2.2101,2.2101,2.2359,2.2298,2.2616,2.3556,2.3865,2.3471,2.3207,2.3148,2.2907,2.2372,2.1939,2.169,2.1428,2.0921,2.042,2.0031,1.9584,1.9483,1.9393,1.9316,1.9142,1.9131,1.9131,1.9065,1.8942,1.8808,1.8741,1.8741,1.8607,1.8539,1.8549,1.8549,1.8414,1.8279,1.8134,1.7998,1.7862,1.7862,1.794,1.7657,1.7442,1.7862,1.8008,1.7579,1.7226,1.7157,1.6941,1.6664,1.6315,1.6018,1.5525,1.5384,1.5596,2.7565,2.7363,2.6351,2.5729,2.5453,2.5118,2.5005,2.5005,2.5005,2.5005,2.5005,2.5342,2.5286,2.5005,2.5005,2.4948,2.4948,2.4778,2.4593,2.4292,2.3839,2.3378,2.303,2.2678,2.2494,2.2247,2.2197,2.2197,2.2197,2.2197,2.2197,2.2197,2.2197,2.2197,2.2197,2.2197,2.2123,2.1987,2.1987,2.1925,2.1862,2.1862,2.1987,2.1987,2.18,2.1663,2.1474,2.1336,2.1146,2.0903,2.0944,2.0921,2.1106,2.1089,2.1158,2.114,2.1117,2.1198,2.1313,2.1428,2.1439,2.1365,2.1741,2.1803,2.1066,2.188,2.2737,2.2457,2.2481,2.2408,2.2212,2.1753,2.125,2.0921,2.073,2.0355,1.9911,1.9528,1.933,1.9274,1.9229,1.9218,1.9131,1.9131,1.9065,1.9075,1.8942,1.8741,1.8674,1.8395,1.8337,1.8202,1.8134,1.8212,1.8212,1.8076,1.793,1.7794,1.751,1.7226,1.6941,1.6941,1.695,1.7088,1.7079,1.6733,1.6515,1.6446,1.6306,1.6097,1.5604,1.51,1.4673,1.4322,1.4545,2.721,2.7041,2.619,2.5508,2.5061,2.5005,2.5005,2.5005,2.5005,2.5005,2.5005,2.5005,2.5005,2.5005,2.5005,2.4948,2.4835,2.4523,2.435,2.3839,2.3318,2.2957,2.2726,2.2432,2.2247,2.2185,2.2197,2.2197,2.2197,2.2197,2.2197,2.2197,2.2197,2.2197,2.2197,2.2123,2.1999,2.1851,2.1714,2.1588,2.1526,2.1526,2.16,2.1526,2.14,2.1221,2.1031,2.0839,2.0635,2.0518,2.0388,2.0377,2.0366,2.0442,2.0388,2.0422,2.0422,2.0399,2.0399,2.0646,2.0442,2.0431,2.1049,2.0974,2.0246,2.0482,2.1335,2.1549,2.1564,2.1575,2.1381,2.0996,2.0549,2.0226,2.0031,1.9846,1.9462,1.9142,1.9142,1.9131,1.9131,1.9131,1.9131,1.9131,1.9065,1.9008,1.8875,1.8674,1.8472,1.8056,1.7774,1.7569,1.7423,1.7579,1.7725,1.751,1.7226,1.701,1.6655,1.6306,1.6097,1.6237,1.6237,1.6018,1.5877,1.5877,1.5737,1.5596,1.5525,1.5392,1.4895,1.4402,1.4266,1.3985,1.3702,2.592,2.5467,2.5216,2.5118,2.5005,2.5005,2.5005,2.5005,2.5005,2.5005,2.5005,2.5005,2.5005,2.5005,2.5005,2.4835,2.4421,2.4163,2.3708,2.315,2.2969,2.2665,2.2432,2.2309,2.2197,2.2197,2.2197,2.2197,2.2135,2.2197,2.2197,2.2197,2.2123,2.2049,2.1788,2.1788,2.1726,2.1651,2.1651,2.1588,2.1663,2.1537,2.1296,2.1285,2.1221,2.1031,2.0775,2.0635,2.0453,2.027,2.0151,2.0151,2.0085,2.0085,2.0085,2.0085,2.0085,2.0085,2.014,2.014,1.9933,1.9933,2.0302,2.0107,1.9715,1.9726,2.0204,2.0182,2.0267,2.0565,2.0375,1.9955,1.9518,1.9518,1.9386,1.9386,1.9198,1.9131,1.9131,1.9131,1.9131,1.9131,1.9075,1.9008,1.8865,1.8731,1.8462,1.8259,1.7978,1.7569,1.7148,1.6932,1.6724,1.6793,1.6941,1.6515,1.6237,1.6018,1.5816,1.5463,1.5392,1.5737,1.5666,1.5251,1.5313,1.5384,1.5171,1.4824,1.4545,1.441,1.4057,1.3702,1.371,1.363,1.3492]},{"header":{"parameterUnit":"m.s-1","parameterCategory":1,"la1":31.0,"la2":29.5877,"lo1":-88.7671,"lo2":-86.6584,"dy":0.0162,"dx":0.0185,"nx":115,"ny":88,"refTime":"2023-09-22T18:00:00:Z","depth":0,"parameterNumber":3,"parameterNumberName":"V-component_of_WINDS"},"data":[0.0,0.0,0.0,0.0,0.0,0.0,0.0,0.0,0.0,0.0,0.0,0.0,0.0,0.0,0.0,0.0,0.0,0.0,0.0,0.0,0.0,0.0,0.0,0.0,0.0,0.0,0.0,0.0,0.0,0.0,0.0,0.0,0.0,0.0,0.0,0.0,0.0,0.0,0.0,0.0,0.0,0.0,0.0,0.0,0.0,0.0,0.0,0.0,0.0,0.0,0.0,0.0,0.0,0.0,0.0,0.0,0.0,0.0,0.0,0.0,0.0,0.0,0.0,0.0,0.0,0.0,0.0,0.0,0.0,0.0,0.0,0.0,0.0,0.0,0.0,0.0,0.0,0.0,0.0,0.0,0.0,0.0,0.0,0.0,0.0,0.0,0.0,0.0,0.0,0.0,0.0,0.0,0.0,0.0,0.0,0.0,0.0,0.0,0.0,0.0,0.0,0.0,0.0,0.0,0.0,0.0,0.0,0.0,0.0,0.0,0.0,0.0,0.0,0.0,0.0,0.0,0.0,0.0,0.0,0.0,0.0,0.0,0.0,0.0,0.0,0.0,0.0,0.0,0.0,0.0,0.0,0.0,0.0,0.0,0.0,0.0,0.0,0.0,0.0,0.0,0.0,0.0,0.0,0.0,0.0,0.0,0.0,0.0,0.0,0.0,0.0,0.0,0.0,0.0,0.0,0.0,0.0,0.0,0.0,0.0,0.0,0.0,0.0,0.0,0.0,0.0,0.0,0.0,0.0,0.0,0.0,0.0,0.0,0.0,0.0,0.0,0.0,0.0,0.0,0.0,0.0,0.0,0.0,0.0,0.0,0.0,0.0,0.0,0.0,0.0,0.0,0.0,0.0,0.0,0.0,0.0,0.0,0.0,0.0,0.0,0.0,0.0,0.0,0.0,0.0,0.0,0.0,0.0,0.0,0.0,0.0,0.0,0.0,0.0,0.0,0.0,0.0,0.0,0.0,0.0,0.0,0.0,0.0,0.0,0.0,0.0,0.0,0.0,0.0,0.0,0.0,0.0,0.0,0.0,0.0,0.0,0.0,0.0,0.0,0.0,0.0,0.0,0.0,0.0,0.0,0.0,0.0,0.0,0.0,0.0,0.0,0.0,0.0,0.0,0.0,0.0,0.0,0.0,0.0,0.0,0.0,0.0,0.0,0.0,0.0,0.0,0.0,0.0,0.0,0.0,0.0,0.0,0.0,0.0,0.0,0.0,0.0,0.0,0.0,0.0,0.0,0.0,0.0,0.0,0.0,0.0,0.0,0.0,0.0,0.0,0.0,0.0,0.0,0.0,0.0,0.0,0.0,0.0,0.0,0.0,0.0,0.0,0.0,0.0,0.0,0.0,0.0,0.0,0.0,0.0,0.0,0.0,0.0,0.0,0.0,0.0,0.0,0.0,0.0,0.0,0.0,0.0,0.0,0.0,0.0,0.0,0.0,0.0,0.0,0.0,0.0,0.0,0.0,0.0,0.0,0.0,0.0,0.0,0.0,0.0,0.0,0.0,0.0,0.0,0.0,0.0,0.0,0.0,0.0,0.0,0.0,0.0,0.0,0.0,0.0,0.0,0.0,0.0,0.0,0.0,0.0,0.0,0.0,0.0,0.0,0.0,0.0,0.0,0.0,0.0,0.0,0.0,0.0,0.0,0.0,0.0,0.0,0.0,0.0,0.0,0.0,0.0,0.0,0.0,0.0,0.0,0.0,0.0,0.0,0.0,0.0,0.0,0.0,0.0,0.0,0.0,0.0,0.0,0.0,0.0,0.0,0.0,0.0,0.0,0.0,0.0,0.0,0.0,0.0,0.0,0.0,0.0,0.0,0.0,0.0,0.0,0.0,0.0,0.0,0.0,0.0,0.0,0.0,0.0,0.0,0.0,0.0,0.0,0.0,0.0,0.0,0.0,0.0,0.0,0.0,0.0,0.0,0.0,0.0,0.0,0.0,0.0,0.0,0.0,0.0,0.0,0.0,0.0,0.0,0.0,0.0,0.0,0.0,0.0,0.0,0.0,0.0,0.0,0.0,0.0,0.0,0.0,0.0,0.0,0.0,0.0,0.0,0.0,0.0,0.0,0.0,0.0,0.0,0.0,0.0,0.0,0.0,0.0,0.0,0.0,0.0,0.0,0.0,0.0,0.0,0.0,0.0,0.0,0.0,0.0,0.0,0.0,0.0,0.0,0.0,0.0,0.0,0.0,0.0,0.0,0.0,0.0,0.0,0.0,0.0,0.0,0.0,0.0,0.0,0.0,0.0,0.0,0.0,0.0,0.0,0.0,0.0,0.0,0.0,0.0,0.0,0.0,0.0,0.0,0.0,0.0,0.0,0.0,0.0,0.0,0.0,0.0,0.0,0.0,0.0,0.0,0.0,0.0,0.0,0.0,0.0,0.0,0.0,0.0,0.0,0.0,0.0,0.0,0.0,0.0,0.0,0.0,0.0,0.0,0.0,0.0,0.0,0.0,0.0,0.0,0.0,0.0,0.0,0.0,0.0,0.0,0.0,0.0,0.0,0.0,0.0,0.0,0.0,0.0,0.0,0.0,0.0,0.0,0.0,0.0,0.0,0.0,0.0,0.0,0.0,0.0,0.0,0.0,0.0,0.0,0.0,0.0,0.0,0.0,0.0,0.0,0.0,0.0,0.0,0.0,0.0,0.0,0.0,0.0,0.0,0.0,0.0,0.0,0.0,0.0,0.0,0.0,0.0,0.0,0.0,0.0,0.0,0.0,0.0,0.0,0.0,0.0,0.0,0.0,0.0,0.0,0.0,0.0,0.0,0.0,0.0,0.0,0.0,0.0,0.0,0.0,0.0,0.0,0.0,0.0,0.0,0.0,0.0,0.0,0.0,0.0,0.0,0.0,0.0,0.0,0.0,0.0,0.0,0.0,0.0,0.0,0.0,0.0,0.0,0.0,0.0,0.0,0.0,0.0,0.0,0.0,0.0,0.0,0.0,0.0,0.0,0.0,0.0,0.0,0.0,0.0,0.0,0.0,0.0,0.0,0.0,0.0,0.0,0.0,0.0,0.0,0.0,0.0,0.0,0.0,0.0,0.0,0.0,0.0,0.0,0.0,0.0,0.0,0.0,0.0,0.0,0.0,0.0,0.0,0.0,0.0,0.0,0.0,0.0,0.0,0.0,0.0,0.0,0.0,0.0,0.0,0.0,0.0,0.0,0.0,0.0,0.0,0.0,0.0,0.0,0.0,0.0,0.0,0.0,0.0,0.0,0.0,0.0,0.0,0.0,0.0,0.0,0.0,0.0,0.0,0.0,0.0,0.0,0.0,0.0,0.0,0.0,0.0,0.0,0.0,0.0,0.0,0.0,0.0,0.0,0.0,0.0,0.0,0.0,0.0,0.0,0.0,0.0,0.0,0.0,0.0,0.0,0.0,0.0,0.0,0.0,0.0,0.0,0.0,0.0,0.0,0.0,0.0,0.0,0.0,0.0,0.0,0.0,0.0,0.0,0.0,0.0,0.0,0.0,0.0,0.0,0.0,0.0,0.0,0.0,0.0,0.0,0.0,0.0,0.0,0.0,0.0,0.0,0.0,0.0,0.0,0.0,0.0,0.0,0.0,0.0,0.0,0.0,0.0,0.0,0.0,0.0,0.0,0.0,0.0,0.0,0.0,0.0,0.0,0.0,0.0,0.0,0.0,0.0,0.0,0.0,0.0,0.0,0.0,0.0,0.0,0.0,0.0,0.0,0.0,0.0,0.0,0.0,0.0,0.0,0.0,0.0,0.0,0.0,0.0,0.0,0.0,0.0,0.0,0.0,0.0,0.0,0.0,0.0,0.0,0.0,0.0,0.0,0.0,0.0,0.0,0.0,0.0,0.0,0.0,0.0,0.0,0.0,0.0,0.0,0.0,0.0,0.0,0.0,0.0,0.0,0.0,0.0,0.0,0.0,0.0,0.0,0.0,0.0,0.0,0.0,0.0,0.0,0.0,0.0,0.0,0.0,0.0,0.0,0.0,0.0,0.0,0.0,0.0,0.0,0.0,0.0,0.0,0.0,0.0,0.0,0.0,0.0,0.0,0.0,0.0,0.0,0.0,0.0,0.0,0.0,0.0,0.0,0.0,0.0,0.0,0.0,0.0,0.0,0.0,0.0,0.0,0.0,0.0,0.0,0.0,0.0,0.0,0.0,0.0,0.0,0.0,0.0,0.0,0.0,0.0,0.0,0.0,0.0,0.0,0.0,0.0,0.0,0.0,0.0,0.0,0.0,0.0,0.0,0.0,0.0,0.0,0.0,0.0,0.0,0.0,-0.3142,0.0,0.0,0.0,0.0,0.0,0.0,0.0,0.0,0.0,0.0,0.0,0.0,0.0,0.0,0.0,0.0,0.0,0.0,0.0,0.0,0.0,0.0,0.0,0.0,0.0,0.0,0.0,0.0,0.0,0.0,0.0,0.0,0.0,0.0,0.0,0.0,0.0,0.0,0.0,0.0,0.0,0.0,0.0,0.0,0.0,0.0,0.0,0.0,0.0,0.0,0.0,0.0,0.0,0.0,0.0,0.0,0.0,0.0,0.0,0.0,0.0,0.0,0.0,0.0,0.0,0.0,0.0,0.0,0.0,0.0,0.0,0.0,0.0,0.0,0.0,0.0,0.0,0.0,0.0,0.0,0.0,0.0,0.0,0.0,0.0,0.0,0.0,0.0,0.0,0.0,0.0,0.0,0.0,0.0,0.0,0.0,0.0,0.0,0.0,0.0,0.0,0.0,0.0,0.0,0.0,0.0,0.0,0.0,0.0,0.0,-0.3109,-0.2944,-0.2944,-0.301,-0.3212,0.0,0.0,0.0,0.0,0.0,0.0,0.0,0.0,0.0,0.0,0.0,0.0,0.0,0.0,0.0,0.0,0.0,0.0,0.0,0.0,0.0,0.0,0.0,0.0,0.0,0.0,0.0,0.0,0.0,0.0,0.0,0.0,0.0,0.0,0.0,0.0,0.0,0.0,0.0,0.0,0.0,0.0,0.0,0.0,0.0,0.0,0.0,0.0,0.0,0.0,0.0,0.0,0.0,0.0,0.0,0.0,0.0,0.0,0.0,0.0,0.0,0.0,0.0,0.0,0.0,0.0,0.0,0.0,0.0,0.0,0.0,0.0,0.0,0.0,0.0,0.0,0.0,0.0,0.0,0.0,0.0,0.0,0.0,0.0,0.0,0.0,0.0,0.0,0.0,0.0,0.0,0.0,0.0,0.0,0.0,0.0,0.0,0.0,0.0,0.0,0.0,0.0,0.0,0.0,0.0,0.0,0.0,0.0,0.0,0.0,0.0,0.0,-0.2577,-0.2709,-0.3076,0.0,0.0,0.0,0.0,0.0,0.0,0.0,0.0,0.0,0.0,0.0,0.0,0.0,0.0,0.0,0.0,0.0,0.0,0.0,0.0,0.0,0.0,0.0,0.0,0.0,0.0,0.0,0.0,0.0,0.0,0.0,0.0,0.0,0.0,0.0,0.0,0.0,0.0,0.0,0.0,0.0,0.0,0.0,0.0,0.0,0.0,0.0,0.0,0.0,0.0,0.0,0.0,0.0,0.0,0.0,0.0,0.0,0.0,0.0,0.0,0.0,0.0,0.0,0.0,0.0,0.0,0.0,0.0,0.0,0.0,0.0,0.0,0.0,0.0,0.0,0.0,0.0,0.0,0.0,0.0,0.0,0.0,0.0,0.0,0.0,0.0,0.0,0.0,0.0,0.0,0.0,0.0,0.0,0.0,0.0,0.0,0.0,0.0,0.0,0.0,0.0,0.0,0.0,0.0,0.0,0.0,0.0,0.0,0.0,0.0,-0.2305,-0.251,-0.2272,0.0,-0.2712,0.0,0.0,0.0,0.0,0.0,0.0,0.0,0.0,0.0,0.0,0.0,0.0,0.0,0.0,0.0,0.0,0.0,0.0,0.0,0.0,0.0,0.0,0.0,0.0,0.0,0.0,0.0,0.0,0.0,0.0,0.0,0.0,0.0,0.0,0.0,0.0,0.0,0.0,0.0,0.0,0.0,0.0,0.0,0.0,0.0,0.0,0.0,0.0,0.0,0.0,0.0,0.0,0.0,0.0,0.0,0.0,0.0,0.0,0.0,0.0,0.0,0.0,0.0,0.0,0.0,0.0,0.0,0.0,0.0,0.0,0.0,0.0,0.0,0.0,0.0,0.0,0.0,0.0,0.0,0.0,0.0,0.0,0.0,0.0,0.0,0.0,0.0,0.0,0.0,0.0,0.0,0.0,0.0,0.0,0.0,0.0,0.0,0.0,0.0,0.0,0.0,0.0,0.0,0.0,0.0,0.0,0.0,0.0,0.0,0.0,-0.1971,-0.1671,-0.1937,-0.2106,0.0,0.0,0.0,0.0,0.0,0.0,0.0,0.0,0.0,0.0,0.0,0.0,0.0,0.0,0.0,0.0,0.0,0.0,0.0,0.0,0.0,0.0,0.0,0.0,0.0,0.0,0.0,0.0,0.0,0.0,0.0,0.0,0.0,0.0,0.0,0.0,0.0,0.0,0.0,0.0,0.0,0.0,0.0,0.0,0.0,0.0,0.0,0.0,0.0,0.0,0.0,0.0,0.0,0.0,0.0,0.0,0.0,0.0,0.0,0.0,0.0,0.0,0.0,0.0,0.0,0.0,0.0,0.0,0.0,0.0,0.0,0.0,0.0,0.0,0.0,0.0,0.0,0.0,0.0,0.0,0.0,0.0,0.0,0.0,0.0,0.0,0.0,0.0,0.0,0.0,0.0,0.0,0.0,0.0,0.0,0.0,0.0,0.0,0.0,0.0,0.0,0.0,0.0,0.0,0.0,0.0,0.0,0.0,0.0,0.0,-0.174,-0.1607,-0.1173,-0.1573,-0.1738,-0.1607,0.0,0.0,0.0,0.0,0.0,0.0,0.0,0.0,0.0,0.0,0.0,0.0,0.0,0.0,0.0,0.0,0.0,0.0,0.0,0.0,0.0,0.0,0.0,0.0,0.0,0.0,0.0,0.0,0.0,0.0,0.0,0.0,0.0,0.0,0.0,0.0,0.0,0.0,0.0,0.0,0.0,0.0,0.0,0.0,0.0,0.0,0.0,0.0,0.0,0.0,0.0,0.0,0.0,0.0,0.0,0.0,0.0,0.0,0.0,0.0,0.0,0.0,0.0,0.0,0.0,0.0,0.0,0.0,0.0,0.0,0.0,0.0,0.0,0.0,0.0,0.0,0.0,0.0,0.0,0.0,0.0,0.0,0.0,0.0,0.0,0.0,0.0,0.0,0.0,0.0,0.0,0.0,0.0,0.0,0.0,0.0,0.0,0.0,0.0,0.0,0.0,0.0,0.0,0.0,0.0,0.0,0.0,0.0,-0.1143,-0.1145,-0.1145,-0.111,-0.1143,-0.1278,0.0,0.0,0.0,0.0,0.0,0.0,0.0,0.0,0.0,0.0,0.0,0.0,0.0,0.0,0.0,0.0,0.0,0.0,0.0,0.0,0.0,0.0,0.0,0.0,0.0,0.0,0.0,0.0,0.0,0.0,0.0,0.0,0.0,0.0,0.0,0.0,0.0,0.0,0.0,0.0,0.0,0.0,0.0,0.0,0.0,0.0,0.0,0.0,0.0,0.0,0.0,0.0,0.0,0.0,0.0,0.0,0.0,0.0,0.0,0.0,0.0,0.0,0.0,0.0,0.0,0.0,0.0,0.0,0.0,0.0,0.0,0.0,0.0,0.0,0.0,0.0,0.0,0.0,0.0,0.0,0.0,0.0,0.0,0.0,0.0,0.0,0.0,0.0,0.0,0.0,0.0,0.0,0.0,0.0,0.0,0.0,0.0,0.0,0.0,0.0,0.0,0.0,0.0,0.0,0.0,0.0,0.0,0.0,0.0,-0.1111,-0.1111,-0.1111,-0.1111,-0.1111,-0.1143,0.0,0.0,0.0,0.0,0.0,0.0,0.0,0.0,0.0,0.0,0.0,0.0,0.0,0.0,0.0,0.0,0.0,0.0,0.0,0.0,0.0,0.0,0.0,0.0,0.0,0.0,0.0,0.0,0.0,0.0,0.0,0.0,0.0,0.0,0.0,0.0,0.0,0.0,0.0,0.0,0.0,0.0,0.0,0.0,0.0,0.0,0.0,0.0,0.0,0.0,0.0,0.0,0.0,0.0,0.0,0.0,0.0,0.0,0.0,0.0,0.0,0.0,0.0,0.0,0.0,0.0,0.0,0.0,0.0,0.0,0.0,0.0,0.0,0.0,0.0,0.0,0.0,0.0,0.0,0.0,0.0,0.0,0.0,0.0,0.0,0.0,0.0,0.0,0.0,0.0,0.0,0.0,0.0,0.0,0.0,0.0,0.0,0.0,0.0,0.0,0.0,0.0,0.0,0.0,0.0,0.0,0.0,0.0,0.0,-0.1111,0.0,-0.1111,-0.1111,-0.1111,-0.1111,0.0,0.0,0.0,0.0,0.0,0.0,0.0,0.0,0.0,0.0,0.0,0.0,0.0,0.0,0.0,0.0,0.0,0.0,0.0,0.0,0.0,0.0,0.0,0.0,0.0,0.0,0.0,0.0,0.0,0.0,0.0,0.0,0.0,0.0,0.0,0.0,0.0,0.0,0.0,0.0,0.0,0.0,0.0,0.0,0.0,0.0,0.0,0.0,0.0,0.0,0.0,0.0,0.0,0.0,0.0,0.0,0.0,0.0,0.0,0.0,0.0,0.0,0.0,0.0,0.0,0.0,0.0,0.0,0.0,0.0,0.0,0.0,0.0,0.0,0.0,0.0,0.0,0.0,0.0,0.0,0.0,0.0,0.0,0.0,0.0,0.0,0.0,0.0,0.0,0.0,0.0,0.0,0.0,0.0,0.0,0.0,0.0,0.0,0.0,0.0,0.0,0.0,0.0,0.0,0.0,0.0,0.0,0.0,-0.1116,-0.1113,-0.1083,-0.1121,-0.1114,-0.1082,-0.1114,0.0,0.0,0.0,0.0,0.0,0.0,0.0,0.0,0.0,0.0,0.0,0.0,0.0,0.0,0.0,0.0,0.0,0.0,0.0,0.0,0.0,0.0,0.0,0.0,0.0,0.0,0.0,0.0,0.0,0.0,0.0,0.0,0.0,0.0,0.0,0.0,0.0,0.0,0.0,0.0,0.0,0.0,0.0,0.0,0.0,0.0,0.0,0.0,0.0,0.0,0.0,0.0,0.0,0.0,0.0,0.0,0.0,0.0,0.0,0.0,0.0,0.0,0.0,0.0,0.0,0.0,0.0,0.0,0.0,0.0,0.0,0.0,0.0,0.0,0.0,0.0,0.0,0.0,0.0,0.0,0.0,0.0,0.0,0.0,0.0,0.0,0.0,0.0,0.0,0.0,0.0,0.0,0.0,0.0,0.0,0.0,0.0,0.0,0.0,0.0,0.0,0.0,0.0,0.0,0.0,0.0,0.0,0.0,0.0,-0.1241,-0.1241,-0.1241,-0.1239,-0.1197,-0.1175,0.0,0.0,0.0,0.0,0.0,0.0,0.0,0.0,0.0,0.0,0.0,0.0,0.0,0.0,0.0,0.0,0.0,0.0,0.0,0.0,0.0,0.0,0.0,0.0,0.0,0.0,0.0,0.0,0.0,0.0,0.0,0.0,0.0,0.0,0.0,0.0,0.0,0.0,0.0,0.0,0.0,0.0,0.0,0.0,0.0,0.0,0.0,0.0,0.0,0.0,0.0,0.0,0.0,0.0,0.0,0.0,0.0,0.0,0.0,0.0,0.0,0.0,0.0,0.0,0.0,0.0,0.0,0.0,0.0,0.0,0.0,0.0,0.0,0.0,0.0,0.0,0.0,0.0,0.0,0.0,0.0,0.0,0.0,0.0,0.0,0.0,0.0,0.0,0.0,0.0,0.0,0.0,0.0,0.0,0.0,0.0,0.0,0.0,0.0,0.0,0.0,0.0,0.0,0.0,0.0,0.0,0.0,0.0,0.0,-0.1356,-0.1313,-0.133,-0.133,-0.1253,-0.1223,-0.1239,0.0,0.0,0.0,0.0,0.0,0.0,0.0,0.0,0.0,0.0,0.0,0.0,0.0,0.0,0.0,0.0,0.0,0.0,0.0,0.0,0.0,0.0,0.0,0.0,0.0,0.0,0.0,0.0,0.0,0.0,0.0,0.0,0.0,0.0,0.0,0.0,0.0,0.0,0.0,0.0,0.0,0.0,0.0,0.0,0.0,0.0,0.0,0.0,0.0,0.0,0.0,0.0,0.0,0.0,0.0,0.0,0.0,0.0,0.0,0.0,0.0,0.0,0.0,0.0,0.0,0.0,0.0,0.0,0.0,0.0,0.0,0.0,0.0,0.0,0.0,0.0,0.0,0.0,0.0,0.0,0.0,0.0,0.0,0.0,0.0,0.0,0.0,0.0,0.0,0.0,0.0,0.0,0.0,0.0,0.0,0.0,0.0,0.0,0.0,0.0,0.0,0.0,0.0,0.0,0.0,0.0,0.0,0.0,-0.148,-0.1377,-0.1321,-0.1319,-0.1309,-0.1322,0.0,0.0,0.0,0.0,0.0,0.0,0.0,0.0,0.0,0.0,0.0,0.0,0.0,0.0,0.0,0.0,0.0,0.0,0.0,0.0,0.0,0.0,0.0,0.0,0.0,0.0,0.0,0.0,0.0,0.0,0.0,0.0,0.0,0.0,0.0,0.0,0.0,0.0,0.0,0.0,0.0,0.0,0.0,0.0,0.0,0.0,0.0,0.0,0.0,0.0,0.0,0.0,0.0,0.0,0.0,0.0,0.0,0.0,0.0,0.0,0.0,0.0,0.0,0.0,0.0,0.0,0.0,0.0,0.0,0.0,0.0,0.0,0.0,0.0,0.0,0.0,0.0,0.0,0.0,0.0,0.0,0.0,0.0,0.0,0.0,0.0,0.0,0.0,0.0,0.0,0.0,0.0,0.0,0.0,0.0,0.0,0.0,0.0,0.0,0.0,0.0,0.0,0.0,0.0,0.0,0.0,0.0,0.0,0.0,-0.1539,-0.1554,-0.159,-0.1545,-0.1412,-0.136,0.0,0.0,0.0,0.0,0.0,0.0,0.0,0.0,0.0,0.0,0.0,0.0,0.0,0.0,0.0,0.0,0.0,0.0,0.0,0.0,0.0,0.0,0.0,0.0,0.0,0.0,0.0,0.0,0.0,0.0,0.0,0.0,0.0,0.0,0.0,0.0,0.0,0.0,0.0,0.0,0.0,0.0,0.0,0.0,0.0,0.0,0.0,0.0,0.0,0.0,0.0,0.0,0.0,0.0,0.0,0.0,0.0,0.0,0.0,0.0,0.0,0.0,0.0,0.0,0.0,0.0,0.0,0.0,0.0,0.0,0.0,0.0,0.0,0.0,0.0,0.0,0.0,0.0,0.0,0.0,0.0,0.0,0.0,0.0,0.0,0.0,0.0,0.0,0.0,0.0,0.0,0.0,0.0,0.0,0.0,0.0,0.0,0.0,0.0,0.0,0.0,0.0,0.0,0.0,0.0,0.0,0.0,0.0,-0.1481,-0.1363,-0.1381,-0.1457,-0.1692,-0.1574,-0.1451,0.0,0.0,0.0,0.0,0.0,0.0,0.0,0.0,0.0,0.0,0.0,0.0,0.0,0.0,0.0,0.0,0.0,0.0,0.0,0.0,0.0,0.0,0.0,0.0,0.0,0.0,0.0,0.0,0.0,0.0,0.0,0.0,0.0,0.0,0.0,0.0,0.0,0.0,0.0,0.0,0.0,0.0,0.0,0.0,0.0,0.0,0.0,0.0,0.0,0.0,0.0,0.0,0.0,0.0,0.0,0.0,0.0,0.0,0.0,0.0,0.0,0.0,0.0,0.0,0.0,0.0,0.0,0.0,0.0,0.0,0.0,0.0,0.0,0.0,0.0,0.0,0.0,0.0,0.0,0.0,0.0,0.0,0.0,0.0,0.0,0.0,0.0,0.0,0.0,0.0,0.0,0.0,0.0,0.0,0.0,0.0,0.0,0.0,0.0,0.0,0.0,0.0,0.0,0.0,0.0,0.0,0.0,0.0,-0.1417,-0.1117,-0.103,-0.1178,-0.1625,-0.1574,-0.154,0.0,0.0,0.0,0.0,0.0,0.0,0.0,0.0,0.0,0.0,0.0,0.0,0.0,0.0,0.0,0.0,0.0,0.0,0.0,0.0,0.0,0.0,0.0,0.0,0.0,0.0,0.0,0.0,0.0,0.0,0.0,0.0,0.0,0.0,0.0,0.0,0.0,0.0,0.0,0.0,0.0,0.0,0.0,0.0,0.0,0.0,0.0,0.0,0.0,0.0,0.0,0.0,0.0,0.0,0.0,0.0,0.0,0.0,0.0,0.0,0.0,0.0,0.0,0.0,0.0,0.0,0.0,0.0,0.0,0.0,0.0,0.0,0.0,0.0,0.0,0.0,0.0,0.0,0.0,0.0,0.0,0.0,0.0,0.0,0.0,0.0,0.0,0.0,0.0,0.0,0.0,0.0,0.0,0.0,0.0,0.0,0.0,0.0,0.0,0.0,0.0,0.0,0.0,0.0,0.0,0.0,0.0,0.0,-0.1433,-0.1054,-0.1428,-0.129,-0.0729,-0.0943,-0.1206,0.0,0.0,0.0,0.0,0.0,0.0,0.0,0.0,0.0,0.0,0.0,0.0,0.0,0.0,0.0,0.0,0.0,0.0,0.0,0.0,0.0,0.0,0.0,0.0,0.0,0.0,0.0,0.0,0.0,0.0,0.0,0.0,0.0,0.0,0.0,0.0,0.0,0.0,0.0,0.0,0.0,0.0,0.0,0.0,0.0,0.0,0.0,0.0,0.3072,0.0,0.0,0.0,0.0,0.0,0.0,0.0,0.0,0.0,0.0,0.0,0.0,0.0,0.0,0.0,0.0,0.0,0.0,0.0,0.0,0.0,0.0,0.0,0.0,0.0,0.0,0.0,0.0,0.0,0.0,0.0,0.0,0.0,0.0,0.0,0.0,0.0,0.0,0.0,0.0,0.0,0.0,0.0,0.0,0.0,0.0,0.0,0.0,0.0,0.0,0.0,0.0,0.0,0.0,0.0,0.0,0.0,0.0,0.0,-0.1439,-0.1118,-0.1324,-0.1178,-0.0559,-0.0479,-0.0719,0.0,0.0,0.0,0.0,0.0,0.0,0.0,0.0,0.0,0.0,0.0,0.0,0.0,0.0,0.0,0.0,0.0,0.0,0.0,0.0,0.0,0.0,0.0,0.0,0.0,0.0,0.0,0.0,0.0,0.0,0.0,0.0,0.0,0.0,0.0,0.0,0.0,0.0,0.0,0.0,0.0,0.0,0.0,0.0,0.0,0.0,0.0,0.0,0.0,0.0,0.0,0.0,0.0,0.0,0.0,0.0,0.0,0.0,0.0,0.0,0.0,0.0,0.0,0.0,0.0,0.0,0.0,0.0,0.0,0.0,0.0,0.0,0.0,0.0,0.0,0.0,0.0,0.0,0.0,0.0,0.0,0.0,0.0,0.0,0.0,0.0,0.0,0.0,0.0,0.0,0.0,0.0,0.0,0.0,0.0,0.0,0.0,0.0,0.0,0.0,0.0,0.0,0.0,0.0,0.0,0.0,0.0,-0.1489,-0.1443,-0.1181,-0.1105,-0.084,-0.0447,-0.0054,-0.0157,-0.0707,0.0,0.0,0.0,0.0,0.0,0.0,0.0,0.0,0.0,0.0,0.0,0.0,0.0,0.0,0.0,0.0,0.0,0.0,0.0,0.0,0.0,0.0,0.0,0.0,0.0,0.0,0.0,0.0,0.0,0.0,0.0,0.0,0.0,0.0,0.0,0.0,0.0,0.0,0.2035,0.2474,0.0,0.0,0.0,0.0,0.0,0.0,0.0,0.0,0.3147,0.0,0.0,0.0,0.0,0.0,0.0,0.0,0.0,0.0,0.0,0.0,0.0,0.0,0.0,0.0,0.0,0.0,0.0,0.0,0.0,0.0,0.0,0.0,0.0,0.0,0.0,0.0,0.0,0.0,0.0,0.0,0.0,0.0,0.0,0.0,0.0,0.0,0.0,0.0,0.0,0.0,0.0,0.0,0.0,0.0,0.0,0.0,0.0,0.0,0.0,0.0,0.0,0.0,0.0,0.0,0.0,-0.2095,-0.176,-0.1409,-0.0944,-0.0837,-0.0336,0.056,0.0379,0.0209,0.0,0.0,0.0,0.0,0.0,0.0,0.0,0.0,0.0,0.0,0.0,0.0,0.0,0.0,0.0,0.0,0.0,0.0,0.0,0.0,0.0,0.0,0.0,0.0,0.0,0.0,0.0,0.0,0.0,0.0,0.0,0.0,0.0,0.0,0.0,0.0,0.0,0.0,0.0,0.0,0.3152,0.3176,0.0,0.0,0.0,0.0,0.0,0.0,0.0,0.0,0.356,0.0,0.0,0.0,0.0,0.0,0.0,0.0,0.0,0.0,0.0,0.0,0.0,0.0,0.0,0.0,0.0,0.0,0.0,0.0,0.0,0.0,0.0,0.0,0.0,0.0,0.0,0.0,0.0,0.0,0.0,0.0,0.0,0.0,0.0,0.0,0.0,0.0,0.0,0.0,0.0,0.0,0.0,0.0,0.0,0.0,0.0,0.0,0.0,0.0,0.0,0.0,0.0,0.0,0.0,0.0,-0.2261,-0.18,-0.1278,-0.0782,-0.0615,0.0056,0.1231,0.1027,0.0731,0.0,0.0,0.0,0.0,0.0,0.0,0.0,0.0,0.0,0.0,0.0,0.0,0.0,0.0,0.0,0.0,0.0,0.0,0.0,0.0,0.0,0.0,0.0,0.0,0.0,0.0,0.0,0.0,0.0,0.0,0.0,0.0,0.0,0.0,0.0,0.0,0.0,0.0,0.0,0.0,0.3543,0.3688,0.4075,0.0,0.0,0.0,0.0,0.0,0.0,0.3639,0.3523,0.0,0.0,0.0,0.0,0.0,0.0,0.0,0.0,0.0,0.0,0.0,0.0,0.0,0.0,0.0,0.0,0.0,0.0,0.0,0.0,0.0,0.0,0.0,0.0,0.0,0.0,0.0,0.0,0.0,0.0,0.0,0.0,0.0,0.0,0.0,0.0,0.0,0.0,0.0,0.0,0.0,0.0,0.0,0.0,0.0,0.0,0.0,0.0,0.0,0.0,0.0,0.0,0.0,0.0,0.0,-0.2062,-0.1464,-0.092,-0.0446,-0.0112,0.0504,0.162,0.1612,0.1296,0.0,0.0,0.0,0.0,0.0,0.0,0.0,0.0,0.0,0.0,0.0,0.0,0.0,0.0,0.0,0.0,0.0,0.0,0.0,0.0,0.0,0.0,0.0,0.0,0.0,0.0,0.0,0.0,0.0,0.0,0.0,0.0,0.0,0.0,0.0,0.0,0.0,0.0,0.0,0.0,0.0,0.4168,0.4526,0.4212,0.0,0.0,0.0,0.0,0.3731,0.3849,0.0,0.0,0.0,0.0,0.0,0.0,0.0,0.0,0.0,0.0,0.0,0.0,0.0,0.0,0.0,0.0,0.0,0.0,0.0,0.0,0.0,0.0,0.0,0.0,0.0,0.0,0.0,0.0,0.0,0.0,0.0,0.0,0.0,0.0,0.0,0.0,0.0,0.0,0.0,0.0,0.0,0.0,0.0,0.0,0.0,0.0,0.0,0.0,0.0,0.0,0.0,0.0,0.0,0.0,0.0,0.0,-0.1305,-0.047,0.0108,0.0558,0.1062,0.151,0.1789,0.2101,0.177,0.0,0.0,0.0,0.0,0.0,0.0,0.0,0.0,0.0,0.0,0.0,0.0,0.0,0.0,0.0,0.0,0.0,0.0,0.0,0.0,0.0,0.0,0.0,0.0,0.0,0.0,0.0,0.0,0.0,0.0,0.0,0.0,0.0,0.0,0.0,0.0,0.0,0.0,0.0,0.0,0.0,0.4317,0.4284,0.402,0.3868,0.0,0.0,0.4568,0.4914,0.5353,0.0,0.0,0.0,0.0,0.0,0.0,0.0,0.0,0.0,0.0,0.0,0.0,0.0,0.0,0.0,0.0,0.0,0.0,0.0,0.0,0.0,0.0,0.0,0.0,0.0,0.0,0.0,0.0,0.0,0.0,0.0,0.0,0.0,0.0,0.0,0.0,0.0,0.0,0.0,0.0,0.0,0.0,0.0,0.0,0.0,0.0,0.0,0.0,0.0,0.0,0.0,0.0,0.0,0.0,0.0,-0.1386,-0.1461,-0.0325,0.051,0.1035,0.1582,0.2055,0.2362,0.2483,0.187,0.0,0.0,0.0,0.0,0.0,0.0,0.0,0.0,0.0,0.0,0.0,0.0,0.0,0.0,0.0,0.0,0.0,0.0,0.0,0.0,0.0,0.0,0.0,0.0,0.0,0.0,0.0,0.0,0.0,0.0,0.0,0.0,0.0,0.0,0.0,0.0,0.0,0.0,0.0,0.0,0.0,0.0,0.4738,0.4342,0.0,0.0,0.0,0.4515,0.4227,0.0,0.0,0.0,0.0,0.0,0.0,0.0,0.0,0.0,0.0,0.0,0.0,0.0,0.0,0.0,0.0,0.0,0.0,0.0,0.0,0.0,0.0,0.0,0.0,0.0,0.0,0.0,0.0,0.0,0.0,0.0,0.0,0.0,0.0,0.0,0.0,0.0,0.0,0.0,0.0,0.0,0.0,0.0,0.0,0.0,0.0,0.0,0.0,0.0,0.0,0.0,0.0,0.0,0.0,0.0,0.0,0.0,-0.1243,0.0,0.0891,0.1427,0.1825,0.2255,0.268,0.2593,0.0,0.0,0.0,0.0,0.0,0.0,0.0,0.0,0.0,0.0,0.0,0.0,0.0,0.0,0.0,0.0,0.0,0.0,0.0,0.0,0.0,0.0,0.0,0.0,0.0,0.0,0.0,0.0729,0.0,0.0,0.0,0.0,0.0,0.0,0.0,0.0,0.0,0.0,0.0,0.0,0.0,0.0,0.4454,0.5099,0.4751,0.4713,0.0,0.0,0.4568,0.4245,0.4766,0.4746,0.0,0.0,0.0,0.0,0.0,0.0,0.0,0.0,0.0,0.0,0.0,0.0,0.0,0.0,0.0,0.0,0.0,0.0,0.0,0.0,0.0,0.0,0.0,0.0,0.0,0.0,0.0,0.0,0.0,0.0,0.0,0.0,0.0,0.0,0.0,0.0,0.0,0.0,0.0,0.0,0.0,0.0,0.0,0.0,0.0,0.0,0.0,0.0,0.0,0.0,0.0,0.0,0.0,0.0,-0.0278,0.0,0.0891,0.1473,0.1843,0.1907,0.2093,0.2397,0.2381,0.1841,0.0,0.0,0.0,0.0,0.0,0.0,0.0,0.0,0.0,0.0,0.0,0.0,0.0,0.0,0.0,0.0,0.0,0.0,0.0,0.0,0.0,0.0,0.0,0.0,0.0,0.0,0.0,0.0,0.0,0.0,0.0,0.0,0.0,0.0,0.0,0.0,0.0,0.0,0.0,0.0,0.0,0.4454,0.5095,0.5095,0.5358,0.0,0.5576,0.5263,0.6044,0.5981,0.5558,0.4791,0.0,0.0,0.0,0.0,0.0,0.0,0.0,0.0,0.0,0.0,0.0,0.0,0.0,0.0,0.0,0.0,0.0,0.0,0.0,0.0,0.0,0.0,0.0,0.0,0.0,0.0,0.0,0.0,0.0,0.0,0.0,0.0,0.0,0.0,0.0,0.0,0.0,0.0,0.0,0.0,0.0,0.0,0.0,0.0,0.0,0.0,0.0,0.0,0.0,0.0,0.0,0.0,0.0,-0.0224,-0.0112,0.0913,0.1584,0.1712,0.1935,0.2262,0.2538,0.2403,0.2028,0.0,0.0,0.0,0.0,0.0,0.0,0.0,0.0,0.0,0.0,0.0,0.0,0.0,0.0,0.0,0.0,0.0,0.0,0.0,0.0,0.0,0.0,0.0,0.0,0.0,0.0,0.0,0.0,0.0784,0.0784,0.0815,0.0,0.0,0.0,0.0,0.0,0.0,0.0,0.0,0.0,0.0,0.4691,0.5259,0.5276,0.0,0.0,0.5636,0.5259,0.5262,0.5531,0.5338,0.4311,0.3986,0.0,0.0,0.0,0.0,0.0,0.0,0.0,0.0,0.0,0.0,0.0,0.0,0.0,0.0,0.0,0.0,0.0,0.0,0.0,0.0,0.0,0.0,0.0,0.0,0.0,0.0,0.0,0.0,0.0,0.0,0.0,0.0,0.0,0.0,0.0,0.0,0.0,0.0,0.0,0.0,0.0,0.0,0.0,0.0,0.0,0.0,0.0,0.0,0.0,0.0,0.0,0.0,-0.0347,-0.0347,0.0878,0.1436,0.1436,0.1732,0.2067,0.2419,0.237,0.2186,0.0,0.0,0.0,0.0,0.0,0.0,0.0,0.0,0.0,0.0,0.0,0.0,0.0,0.0,0.0,0.0,0.0,0.0,0.0,0.0,0.0,0.0,0.0,0.0,0.0,0.0,0.0,0.0,0.069,0.0589,0.0623,0.0,0.0,0.0,0.0,0.0,0.0,0.0,0.0,0.0,0.0,0.4909,0.5289,0.5345,0.5436,0.5699,0.5388,0.5052,0.4766,0.5362,0.545,0.4282,0.0,0.0,0.0,0.0,0.0,0.0,0.0,0.0,0.0,0.0,0.0,0.0,0.0,0.0,0.0,0.0,0.0,0.0,0.0,0.0,0.0,0.0,0.0,0.0,0.0,0.0,0.0,0.0717,0.0,0.0,0.0089,0.0,0.0,0.0,0.0,0.0,0.0,0.0,0.0,0.0,0.0,0.0,0.0,0.0,0.0,0.0,0.0,0.0,0.0,0.0,0.0,0.0,0.0,-0.0369,-0.037,0.0587,0.1141,0.1141,0.1142,0.1479,0.215,0.2217,0.2183,0.1986,0.0,0.0,0.0,0.0,0.0,0.0,0.0,0.0,0.0,0.0,0.0,0.0,0.0,0.0,0.0,0.0,0.0,0.0,0.0,0.0,0.0,0.0,0.0,0.0,0.0,0.0,0.0681,0.042,0.0191,0.0,0.0,0.0,0.0,0.0,0.0,0.0,0.0,0.0,0.3513,0.4446,0.5058,0.5192,0.5212,0.5284,0.534,0.4939,0.4676,0.4914,0.5681,0.6078,0.0,0.0,0.0,0.0,0.0,0.0,0.0,0.0,0.0,0.0,0.0,0.0,0.0,0.0,0.0,0.0,0.0,0.0,0.0,0.0,0.0,0.0,0.0,0.0,0.0,0.0,0.0,0.0092,0.0689,0.0,0.0,0.0,0.0,0.0,0.0,0.0,0.0,0.0,0.0,0.0,0.0704,0.0704,0.0,0.0,0.0,0.0,0.0,0.0,0.0,0.0,0.0,0.0,0.0,0.0,-0.037,-0.0371,0.0588,0.1076,0.1076,0.1344,0.1614,0.1951,0.2354,0.2583,0.2633,0.0,0.0,0.0,0.0,0.0,0.0,0.0,0.0,0.0,0.0,0.0,0.0,0.0,0.0,0.0,0.0,0.0,0.0,0.0,0.0,0.0,0.0,0.0,0.0,0.0,0.0713,0.0,0.0,0.0,0.0,0.0,0.0,0.0,0.0,0.0,0.0,0.0,0.3482,0.3969,0.4789,0.5414,0.5584,0.5961,0.6103,0.0,0.0,0.0,0.0,0.0,0.0,0.0,0.0,0.0,0.0,0.0,0.0,0.0,0.0,0.7051,0.5859,0.5638,0.5628,0.5628,0.0,0.0,0.0,0.0,0.0,0.0,0.0,0.0,0.0,0.0,0.0,0.0,0.0,0.0,0.0193,0.0718,0.029,0.0,0.0,0.0,0.0,0.0,0.0,0.0,0.0,0.088,0.0967,0.0929,0.0929,0.0945,0.0,0.0964,0.0762,0.0,0.0,0.0,0.0,0.0,0.0,0.0,0.0,-0.0185,-0.0124,0.0653,0.1143,0.1277,0.1479,0.1748,0.2084,0.2621,0.2994,0.3327,0.2975,0.2837,0.0,0.0,0.0,0.0,0.0,0.0,0.0,0.0,0.0,0.0,0.0,0.0,0.0,0.0,0.0,0.0,0.0,0.0,0.0,0.0,0.0,0.0,0.0,0.1047,0.0,0.0,0.0,0.0,0.0,0.0,0.0,0.0,0.0,0.2082,0.3259,0.4209,0.4513,0.5222,0.5698,0.5582,0.0,0.0,0.0,0.0,0.0,0.0,0.0,0.4953,0.5841,0.5772,0.5702,0.6117,0.6973,0.7612,0.7671,0.0,0.0,0.7067,0.6824,0.6763,0.6814,0.6819,0.6859,0.6999,0.737,0.7868,0.0,0.0,0.0,0.0,0.0,0.0,0.0,0.0,0.0761,0.0798,0.0,0.0802,0.0,0.0,0.0,0.0,0.0641,0.0883,0.0,0.0,0.0961,0.099,0.0991,0.099,0.1007,0.1032,0.1005,0.0991,0.099,0.0557,0.0,0.0,0.0,0.0,0.0,0.0,0.0309,0.031,0.085,0.1277,0.1614,0.1614,0.1949,0.2686,0.3025,0.3426,0.3956,0.3392,0.3209,0.3582,0.2122,0.0,0.0,0.0,0.0,0.0,0.0,0.0,0.0,0.0,0.0,0.0,0.0,0.0,0.0,0.0,0.0,0.0,0.0,0.0,0.0,0.1914,0.0,0.0,0.0,0.0,0.0,0.0,0.0,0.0,0.0,0.0,0.2709,0.371,0.4739,0.5183,0.0,0.0,0.0,0.0,0.5651,0.5108,0.5653,0.5899,0.5156,0.6445,0.7349,0.679,0.0,0.0,0.7623,0.7962,0.8201,0.7822,0.8497,0.9059,0.8741,0.8269,0.7984,0.7925,0.7925,0.7925,0.8043,0.877,0.9596,0.0623,0.0,0.0,0.0,0.0,0.0968,0.0931,0.0847,0.0847,0.0899,0.0892,0.0844,0.0,0.0,0.0,0.0,0.0,0.0,0.1,0.0964,0.1003,0.1031,0.105,0.105,0.1056,0.1063,0.1055,0.105,0.105,0.0919,0.0634,0.0118,0.0,0.0,0.0,0.0,0.0312,0.0383,0.0858,0.1277,0.1748,0.1951,0.2354,0.3025,0.3159,0.3625,0.455,0.438,0.4387,0.4553,0.3585,0.0,0.0,0.0,0.0,0.0,0.0,0.0,0.0,0.0,0.0,0.0,0.0,0.0,0.0,0.0,0.0,0.0,0.0,0.0,0.1965,0.2221,0.216,0.0,0.0,0.0,0.0,0.0,0.0,0.0,0.0,0.0,0.4115,0.4674,0.5022,0.0,0.0,0.5389,0.512,0.5858,0.6425,0.6625,0.6977,0.0,0.7275,0.7171,0.7195,0.7429,0.7868,0.8151,0.8151,0.8482,0.8811,0.8794,0.9115,0.934,0.9274,0.9125,0.9056,0.9056,0.9062,0.9056,0.9062,0.9375,0.9743,0.0938,0.0723,0.0745,0.0791,0.0973,0.0973,0.0932,0.0961,0.096,0.0954,0.0944,0.0956,0.0937,0.1011,0.091,0.0,0.0,0.0,0.0994,0.1024,0.1042,0.1059,0.1075,0.1076,0.1076,0.1076,0.1076,0.1076,0.1076,0.1064,0.0903,0.0613,0.0,0.0,0.018,0.0434,0.0571,0.0646,0.1061,0.1479,0.1816,0.2287,0.2824,0.3159,0.3226,0.3692,0.4749,0.4812,0.5045,0.5546,0.4571,0.3903,0.0,0.0,0.0,0.0,0.0,0.0,0.0,0.0,0.0,0.0,0.0,0.1641,0.1128,0.0,0.0,0.0,0.3329,0.3556,0.3324,0.3227,0.0,0.0,0.0,0.0,0.0,0.0,0.0,0.3373,0.4253,0.4894,0.5204,0.5405,0.5477,0.5304,0.549,0.564,0.562,0.0,0.6978,0.7315,0.7558,0.7779,0.7984,0.7659,0.7598,0.8003,0.8194,0.8354,0.8559,0.8798,0.9075,0.9274,0.9408,0.9478,0.9478,0.9478,0.9478,0.9478,0.9478,0.9542,0.9862,0.9926,1.0047,0.1081,0.107,0.1021,0.0989,0.1012,0.0954,0.0969,0.0995,0.0995,0.098,0.1016,0.0983,0.1025,0.1085,0.0999,0.0,0.1102,0.1037,0.105,0.1076,0.1076,0.1076,0.1076,0.1076,0.1076,0.1076,0.1076,0.1076,0.1074,0.105,0.1036,0.1034,0.1034,0.1018,0.0991,0.1016,0.1031,0.1034,0.139,0.1678,0.1884,0.2757,0.3226,0.3226,0.3228,0.3756,0.4749,0.4815,0.5348,0.628,0.5345,0.488,0.5055,0.0,0.0,0.0,0.0,0.0,0.0,0.0,0.0,0.0,0.0,0.0,0.0,0.0,0.0,0.0,0.4232,0.0,0.5297,0.468,0.0,0.0,0.0,0.3567,0.3785,0.4418,0.485,0.4901,0.0,0.0,0.5908,0.5908,0.5973,0.6207,0.6203,0.6249,0.6315,0.6757,0.7145,0.739,0.7675,0.786,0.793,0.8059,0.8242,0.8436,0.8517,0.8565,0.8759,0.8882,0.9081,0.9268,0.9408,0.9542,0.9606,0.9606,0.9606,0.9728,0.9676,0.9798,1.0295,1.0485,1.0548,0.1131,0.1108,0.108,0.1059,0.1044,0.1044,0.1048,0.1054,0.1055,0.105,0.1109,0.1051,0.1112,0.1098,0.1041,0.1052,0.1065,0.1065,0.1069,0.1076,0.1076,0.1076,0.1076,0.1076,0.1076,0.1076,0.1076,0.1076,0.1076,0.1069,0.1055,0.1035,0.1034,0.1018,0.099,0.0995,0.101,0.1034,0.1363,0.1907,0.2484,0.2956,0.3226,0.3226,0.3627,0.4092,0.4746,0.5216,0.5749,0.635,0.611,0.5959,0.5895,0.4639,0.0,0.0,0.0,0.0,0.0,0.0,0.0,0.0,0.0,0.3477,0.2661,0.0,0.4773,0.0,0.4942,0.5391,0.5008,0.4853,0.0,0.0,0.4019,0.4008,0.5019,0.5068,0.5158,0.5597,0.5936,0.6145,0.6145,0.6145,0.6152,0.6319,0.6362,0.6224,0.5949,0.6648,0.7269,0.7541,0.7777,0.8016,0.8265,0.8382,0.8441,0.8506,0.8517,0.8582,0.877,0.8894,0.9081,0.9268,0.9408,0.967,1.0174,1.0295,1.0478,1.0843,1.0604,1.0295,1.0485,1.0618,1.0618,0.1157,0.1141,0.1141,0.1124,0.1095,0.1082,0.1076,0.1076,0.1076,0.1076,0.1076,0.1076,0.1076,0.1076,0.1076,0.1076,0.1076,0.1076,0.1076,0.1076,0.1076,0.1076,0.1076,0.1076,0.1076,0.1076,0.1076,0.1076,0.1076,0.1076,0.1067,0.1052,0.1052,0.1038,0.1009,0.1119,0.1182,0.1202,0.16,0.2222,0.2885,0.3092,0.3141,0.2967,0.3556,0.4056,0.4446,0.5021,0.5601,0.6054,0.6117,0.6069,0.5968,0.5005,0.447,0.0,0.0,0.0,0.0,0.0,0.0,0.0,0.0,0.0,0.0,0.0,0.6361,0.5793,0.6047,0.6174,0.5894,0.5701,0.5636,0.5559,0.5058,0.5026,0.5853,0.5755,0.5781,0.6073,0.6209,0.6266,0.6266,0.6266,0.6367,0.6605,0.6753,0.68,0.6621,0.7093,0.7678,0.7942,0.8104,0.8252,0.8447,0.8517,0.8517,0.8517,0.8517,0.8582,0.877,0.8894,0.9081,0.9274,0.9658,1.0047,1.0421,1.0793,1.1094,1.1329,1.1212,1.1031,1.1045,1.1163,1.1108,0.1249,0.1172,0.1172,0.1155,0.1125,0.1094,0.1079,0.1076,0.1076,0.1076,0.1076,0.1076,0.1076,0.1076,0.1076,0.1076,0.1076,0.1076,0.1076,0.1076,0.1076,0.1076,0.1076,0.1076,0.1076,0.1076,0.1076,0.1076,0.1076,0.1076,0.1074,0.107,0.1204,0.1188,0.1028,0.1499,0.1663,0.1478,0.1905,0.2479,0.3141,0.3064,0.2956,0.2691,0.345,0.3974,0.4174,0.4844,0.5396,0.5703,0.5763,0.5771,0.5726,0.5392,0.5013,0.0,0.4482,0.0,0.0,0.0,0.0,0.0,0.0,0.0,0.0,0.5828,0.701,0.7832,0.7249,0.6963,0.729,0.6908,0.6739,0.697,0.6556,0.6305,0.6588,0.6613,0.6548,0.6548,0.6482,0.642,0.6412,0.6416,0.6548,0.6881,0.7251,0.7483,0.7577,0.7767,0.8037,0.8382,0.8447,0.8452,0.8511,0.8517,0.8517,0.8517,0.8517,0.8576,0.877,0.8894,0.9081,0.9396,0.997,1.0541,1.0667,1.1274,1.164,1.1826,1.1888,1.1772,1.1608,1.1655,1.1903,0.1226,0.1204,0.1203,0.1186,0.1155,0.1125,0.1098,0.1076,0.1076,0.1076,0.1076,0.1076,0.1076,0.1076,0.1076,0.1076,0.1076,0.1076,0.1076,0.1076,0.1076,0.1076,0.1076,0.1076,0.1076,0.1076,0.1076,0.1076,0.1076,0.1076,0.1063,0.1042,0.1626,0.1601,0.1123,0.0,0.0,0.0,0.1841,0.2065,0.2655,0.2538,0.2688,0.3104,0.384,0.0,0.4904,0.5453,0.5763,0.5828,0.5888,0.0,0.0,0.0,0.0,0.0,0.0,0.0,0.0,0.0,0.0,0.0,0.6419,0.6134,0.4911,0.5642,0.6745,0.8191,0.7716,0.7458,0.784,0.785,0.7861,0.7832,0.7906,0.7986,0.7892,0.7512,0.7326,0.7265,0.6745,0.642,0.642,0.6618,0.6815,0.6942,0.7466,0.7857,0.7917,0.7987,0.8052,0.8117,0.8317,0.8517,0.8517,0.8517,0.8517,0.8517,0.8517,0.8576,0.877,0.8958,0.9332,0.9901,1.0351,1.0919,1.1896,1.2205,1.2443,1.3009,1.3199,1.2895,1.1365,1.1531,1.1896,0.1249,0.1234,0.1234,0.1217,0.0,0.1172,0.114,0.1097,0.1082,0.1076,0.1076,0.1076,0.1076,0.1076,0.1076,0.1076,0.1076,0.1076,0.1076,0.1076,0.1076,0.1076,0.1076,0.1076,0.1076,0.1143,0.1411,0.1612,0.1612,0.1946,0.2132,0.2105,0.2432,0.2479,0.2124,0.3275,0.3697,0.3395,0.3062,0.3168,0.3666,0.3754,0.3763,0.371,0.4457,0.0,0.0,0.0,0.0,0.0,0.0,0.0,0.0,0.6583,0.0,0.7026,0.6875,0.6796,0.682,0.7143,0.7191,0.704,0.7255,0.7154,0.6621,0.6644,0.7317,0.8794,0.8397,0.8175,0.8683,0.8554,0.842,0.849,0.8425,0.8361,0.8285,0.7837,0.7526,0.7531,0.6946,0.642,0.642,0.6683,0.7012,0.7204,0.7657,0.8052,0.8187,0.8252,0.8247,0.8247,0.8382,0.8517,0.8517,0.8517,0.8641,0.877,0.8705,0.8776,0.9221,0.9402,0.9709,1.0275,1.0968,1.1772,1.2328,1.2757,1.3009,1.3139,1.3268,1.2956,1.1841,1.2397,1.3017,0.1336,0.1336,0.1336,0.1243,0.1219,0.1214,0.1177,0.1119,0.1089,0.0,0.0,0.1076,0.1076,0.1076,0.121,0.1277,0.1277,0.1411,0.1478,0.1478,0.1478,0.1479,0.1478,0.1478,0.1478,0.1478,0.2013,0.228,0.2347,0.2948,0.3218,0.3218,0.3349,0.3549,0.3749,0.4015,0.4435,0.4922,0.4437,0.4344,0.471,0.5026,0.4893,0.433,0.4968,0.5227,0.5029,0.5699,0.6005,0.5936,0.6533,0.6962,0.6995,0.747,0.7855,0.8209,0.822,0.8238,0.837,0.8324,0.828,0.8086,0.7842,0.796,0.8335,0.793,0.8102,0.942,0.9017,0.8888,0.9484,0.9139,0.9,0.9145,0.8818,0.8683,0.8812,0.8296,0.7977,0.7922,0.733,0.6675,0.6605,0.6937,0.7269,0.7591,0.7922,0.8187,0.8447,0.8511,0.8452,0.8452,0.8511,0.8511,0.8641,0.8765,0.8958,0.9396,0.9204,0.921,0.9792,1.0155,1.0401,1.085,1.1779,1.2389,1.2696,1.313,1.339,1.3017,1.3017,1.2956,1.2826,1.3519,1.4079,0.1336,0.1336,0.1336,0.1255,0.1249,0.1223,0.1177,0.1119,0.1089,0.1076,0.1076,0.1076,0.1076,0.1143,0.1678,0.1945,0.2013,0.2614,0.2882,0.2882,0.2882,0.2882,0.2883,0.2882,0.2882,0.2882,0.3015,0.3015,0.3082,0.3151,0.3218,0.3351,0.402,0.4888,0.5679,0.5219,0.5342,0.6113,0.4868,0.424,0.4257,0.4278,0.4461,0.4748,0.5067,0.5422,0.5763,0.6422,0.6717,0.6777,0.7429,0.7871,0.7998,0.7952,0.8302,0.9012,0.8972,0.9122,0.966,0.973,0.9685,0.9536,0.9285,0.9075,0.872,0.8474,0.8694,0.9414,0.935,0.942,0.9478,0.9664,0.9786,0.9856,1.011,1.0301,1.0231,0.9588,0.9134,0.9,0.8544,0.7832,0.7372,0.7772,0.8107,0.8047,0.8247,0.8452,0.8511,0.8517,0.8517,0.8517,0.8517,0.8705,0.9145,0.9454,0.9773,1.0268,1.0458,1.0514,1.0773,1.0954,1.1274,1.1896,1.2328,1.2696,1.3199,1.339,1.3511,1.358,1.364,1.3769,1.383,1.4198,1.4258,0.1336,0.1336,0.1336,0.1336,0.1333,0.1225,0.1187,0.1144,0.1113,0.1091,0.1143,0.1478,0.1612,0.1679,0.2347,0.2681,0.2748,0.3015,0.3218,0.3218,0.3218,0.3218,0.3151,0.2948,0.2948,0.3218,0.3482,0.3616,0.3818,0.4154,0.442,0.455,0.502,0.5617,0.6145,0.5881,0.5947,0.635,0.5745,0.5567,0.5952,0.5563,0.584,0.6782,0.6602,0.6728,0.7298,0.7606,0.7731,0.7793,0.8415,0.8838,0.8885,0.9086,0.946,0.997,0.9728,0.9664,0.9983,0.9798,0.967,0.9676,0.9548,0.942,0.9221,0.9092,0.9215,0.9484,0.9478,0.9548,0.967,0.9862,1.0047,1.0174,1.0434,1.0561,1.0491,0.9913,0.9606,0.9783,0.9163,0.877,0.9244,0.8922,0.8613,0.8425,0.8694,0.8958,0.8958,0.9139,0.9204,0.9022,0.8964,0.9268,0.9837,1.0085,1.0458,1.108,1.108,1.1205,1.1461,1.171,1.195,1.232,1.2765,1.313,1.345,1.3571,1.37,1.3881,1.4079,1.4207,1.4387,1.4455,1.4387,0.1343,0.1336,0.1336,0.1336,0.1256,0.1232,0.1204,0.1174,0.1144,0.1183,0.1427,0.1885,0.2214,0.2415,0.3082,0.3418,0.3485,0.3618,0.3685,0.3685,0.3685,0.3685,0.3682,0.3347,0.3347,0.3682,0.4082,0.4353,0.4619,0.5156,0.5554,0.5749,0.5888,0.6086,0.6284,0.6218,0.6346,0.6609,0.6613,0.6937,0.7456,0.7064,0.7386,0.8355,0.7967,0.7977,0.849,0.8619,0.8748,0.8742,0.939,0.9773,0.9779,1.004,1.0301,1.0434,1.011,0.9862,0.9862,0.9606,0.9478,0.9478,0.9478,0.9478,0.9478,0.9478,0.9478,0.9478,0.9548,0.9676,0.9804,0.9983,1.0117,1.0301,1.0498,1.0561,1.0555,1.0104,0.9938,1.0418,0.9765,0.9707,1.0606,1.0007,0.9134,0.9128,0.9262,0.946,0.9524,0.9767,0.9831,0.9716,0.9588,0.9837,1.0521,1.0836,1.1267,1.1965,1.1834,1.195,1.2274,1.2458,1.2581,1.2765,1.313,1.3381,1.3502,1.364,1.383,1.395,1.4139,1.4327,1.4446,1.4515,1.4515,0.1282,0.1338,0.1336,0.1336,0.1335,0.1332,0.1312,0.128,0.1174,0.1573,0.2154,0.2103,0.248,0.3149,0.3887,0.422,0.4287,0.4891,0.516,0.516,0.516,0.516,0.509,0.509,0.516,0.516,0.516,0.5223,0.5355,0.555,0.5815,0.6083,0.6148,0.628,0.642,0.642,0.6741,0.7396,0.7391,0.7461,0.7521,0.8037,0.8361,0.849,0.8425,0.8425,0.8619,0.9064,0.939,0.9454,1.0104,1.0491,1.0428,1.0238,1.0053,1.0047,0.9734,0.9548,0.9548,0.9548,0.9478,0.9478,0.9542,0.9542,0.9542,0.9542,0.9478,0.9606,0.974,0.9734,0.9804,1.0117,1.0244,1.0308,1.0491,1.0618,1.0555,1.0555,1.0498,1.0568,1.0504,1.0848,1.127,1.0749,1.0161,0.9767,0.9894,0.9964,0.9964,1.0148,1.0338,1.0541,1.0534,1.0654,1.1163,1.1779,1.2212,1.272,1.3078,1.313,1.3199,1.326,1.339,1.3199,1.3381,1.345,1.3571,1.3631,1.3821,1.4019,1.4207,1.4327,1.4455,1.4575,1.4565,0.1285,0.1337,0.1336,0.1336,0.1335,0.1805,0.2012,0.1963,0.2429,0.2938,0.3487,0.3459,0.3551,0.3887,0.4622,0.4957,0.4957,0.5296,0.5428,0.5428,0.5428,0.5428,0.5428,0.5428,0.5428,0.5428,0.5428,0.569,0.6207,0.6793,0.7186,0.7386,0.7517,0.7582,0.7652,0.7647,0.7777,0.8107,0.849,0.8683,0.8683,0.8554,0.8947,0.9588,0.9326,0.9326,0.9716,1.004,1.0168,1.0168,1.0434,1.0618,1.0618,1.0308,1.018,1.018,0.9862,0.9676,0.967,0.9548,0.967,1.0047,1.011,1.0231,1.0654,1.0654,1.0717,1.078,1.0231,0.9862,1.0047,1.0238,1.0364,1.0434,1.0561,1.0618,1.0618,1.0618,1.0568,1.0588,1.0828,1.1094,1.1417,1.1052,1.0548,1.0155,1.0218,1.0478,1.0478,1.0919,1.1296,1.1553,1.1787,1.1973,1.205,1.2413,1.2842,1.3208,1.339,1.3511,1.3511,1.3511,1.3511,1.3511,1.3511,1.3571,1.37,1.3821,1.395,1.4139,1.4327,1.4506,1.4961,1.502,1.5128,0.1297,0.135,0.1341,0.1336,0.1336,0.1885,0.2331,0.2516,0.3046,0.3706,0.4553,0.4404,0.4473,0.4672,0.5179,0.5428,0.5428,0.5428,0.5428,0.5428,0.5428,0.5428,0.5428,0.5428,0.5557,0.5749,0.5885,0.6342,0.7116,0.7837,0.8236,0.8301,0.8425,0.849,0.849,0.849,0.8613,0.8807,0.9262,0.9582,0.9716,0.9326,0.9588,1.0428,1.0098,1.004,1.0555,1.0618,1.0618,1.0618,1.0751,1.087,1.087,1.0724,1.0577,1.0514,1.0345,1.0295,1.0358,1.0174,1.0288,1.073,1.0787,1.0968,1.1392,1.1578,1.1633,1.1703,1.1031,1.0611,1.0555,1.0498,1.0434,1.0561,1.0618,1.0618,1.0618,1.0624,1.0631,1.0651,1.0947,1.1269,1.1445,1.1283,1.0856,1.0661,1.0793,1.1059,1.1178,1.1685,1.2058,1.2243,1.2674,1.2867,1.2736,1.2911,1.3216,1.339,1.3511,1.3511,1.3511,1.3511,1.3511,1.3511,1.3511,1.3571,1.37,1.389,1.407,1.4258,1.4446,1.4734,1.5186,1.5362,1.5748,0.1328,0.1296,0.1348,0.1336,0.1336,0.1414,0.1884,0.2574,0.2667,0.346,0.476,0.4629,0.4879,0.55,0.544,0.5432,0.5428,0.5428,0.5428,0.5428,0.5428,0.5428,0.5428,0.5428,0.5815,0.6527,0.6798,0.7391,0.8172,0.8236,0.8301,0.8549,0.8619,0.8554,0.8619,0.8683,0.8877,0.9454,0.9588,0.9843,1.0428,1.0498,1.0555,1.0688,1.0555,1.0555,1.0681,1.0618,1.0618,1.0618,1.1178,1.1483,1.1483,1.1472,1.1367,1.1243,1.1293,1.1454,1.1586,1.1399,1.1392,1.1454,1.1454,1.1516,1.1703,1.1826,1.2012,1.2012,1.2081,1.1911,1.1421,1.1059,1.0744,1.0751,1.0618,1.0618,1.0624,1.0744,1.073,1.073,1.1052,1.1373,1.1567,1.1622,1.1553,1.149,1.156,1.1622,1.1872,1.2065,1.2243,1.249,1.2797,1.2981,1.3042,1.3155,1.339,1.3511,1.3511,1.3571,1.3511,1.3511,1.3511,1.3511,1.3571,1.364,1.3769,1.395,1.4198,1.4378,1.4556,1.4911,1.569,1.5526,1.5921,0.1319,0.1273,0.1341,0.1336,0.1414,0.243,0.3054,0.3435,0.4346,0.5052,0.547,0.5375,0.5509,0.5718,0.5572,0.5454,0.5432,0.5428,0.5428,0.5428,0.5428,0.5428,0.5425,0.5943,0.6334,0.6719,0.7381,0.8382,0.959,0.9746,0.9779,0.9843,0.9849,0.9843,0.9849,0.9843,0.9977,1.0231,1.0541,1.0919,1.1192,1.16,1.1841,1.1779,1.1421,1.1358,1.1779,1.1841,1.1841,1.1841,1.2027,1.2151,1.2143,1.2058,1.2104,1.2251,1.2012,1.1826,1.1888,1.1772,1.1826,1.2135,1.2135,1.232,1.2704,1.2948,1.3139,1.3199,1.3017,1.2834,1.265,1.2158,1.1779,1.1779,1.1421,1.1178,1.1115,1.0989,1.08,1.0919,1.124,1.1498,1.1685,1.1809,1.1934,1.1934,1.2058,1.2243,1.2367,1.256,1.2736,1.2858,1.3094,1.339,1.3769,1.3519,1.3511,1.3571,1.3692,1.3881,1.3941,1.4112,1.4172,1.4163,1.4052,1.3881,1.407,1.4258,1.4497,1.4843,1.502,1.5468,1.6358,1.6255,1.6765,0.1318,0.1274,0.134,0.1492,0.1805,0.2898,0.3677,0.4213,0.5222,0.5799,0.5999,0.5942,0.5874,0.585,0.5722,0.5606,0.5494,0.548,0.5495,0.5749,0.5815,0.5947,0.621,0.6789,0.7307,0.7632,0.8409,0.9484,1.0437,1.0588,1.0615,1.0695,1.0701,1.0755,1.0822,1.0842,1.0965,1.1224,1.166,1.1988,1.2221,1.2492,1.2803,1.2911,1.246,1.2212,1.2512,1.2512,1.2512,1.2512,1.2696,1.294,1.3078,1.3017,1.3086,1.3302,1.2956,1.2696,1.2704,1.2573,1.2642,1.2948,1.3009,1.3199,1.3631,1.3821,1.401,1.401,1.389,1.37,1.37,1.3381,1.3009,1.2573,1.2089,1.1849,1.1911,1.1732,1.1663,1.1919,1.2166,1.2228,1.2236,1.2359,1.2351,1.2351,1.2597,1.2789,1.2903,1.3216,1.3519,1.3649,1.3812,1.4112,1.43,1.4231,1.4172,1.4231,1.4231,1.4419,1.4597,1.4715,1.4824,1.4815,1.4638,1.4419,1.4369,1.4616,1.4961,1.5362,1.5642,1.5968,1.6641,1.7101,1.7435,0.133,0.1298,0.1349,0.1728,0.2354,0.2666,0.3522,0.4766,0.5074,0.561,0.621,0.6091,0.603,0.6,0.5943,0.5868,0.588,0.5795,0.5933,0.639,0.6639,0.7025,0.754,0.7872,0.8436,0.9204,1.0123,1.0518,1.0608,1.0776,1.0904,1.1028,1.1186,1.1434,1.1464,1.1607,1.1838,1.2416,1.2669,1.2966,1.3579,1.3405,1.3553,1.3962,1.3697,1.3291,1.2699,1.2658,1.2696,1.2696,1.3199,1.3812,1.4198,1.4207,1.4276,1.4267,1.4139,1.4079,1.4148,1.395,1.3821,1.3821,1.3941,1.3881,1.395,1.4139,1.4276,1.4267,1.4327,1.4455,1.4387,1.4327,1.3881,1.2826,1.2573,1.2581,1.2765,1.2887,1.307,1.3268,1.3407,1.3511,1.345,1.326,1.307,1.3139,1.326,1.3511,1.3683,1.4052,1.4469,1.4715,1.4647,1.4656,1.4775,1.4893,1.4951,1.4951,1.4951,1.501,1.5235,1.54,1.5633,1.5623,1.5332,1.5108,1.5001,1.5186,1.5459,1.5853,1.614,1.6539,1.7045,1.7501,1.7611,0.1331,0.13,0.1349,0.1806,0.251,0.3132,0.4068,0.5004,0.5631,0.6025,0.6251,0.621,0.619,0.6301,0.6544,0.683,0.7021,0.7293,0.732,0.7043,0.7582,0.7981,0.8143,0.8799,0.9569,1.0168,1.0632,1.0927,1.1091,1.1643,1.2011,1.2136,1.2609,1.2861,1.2923,1.2967,1.3161,1.3361,1.3842,1.4172,1.4436,1.4716,1.4976,1.5159,1.5052,1.4926,1.47,1.4171,1.3899,1.383,1.4079,1.4258,1.4455,1.4455,1.4455,1.4515,1.4396,1.4327,1.4276,1.4267,1.4139,1.407,1.401,1.401,1.401,1.4198,1.4336,1.4336,1.4396,1.4515,1.4515,1.4515,1.4258,1.3941,1.3502,1.326,1.3373,1.3235,1.3174,1.3588,1.4454,1.4653,1.4019,1.3726,1.3983,1.4043,1.4222,1.441,1.4529,1.4715,1.4775,1.4893,1.4951,1.5128,1.5303,1.5536,1.571,1.571,1.571,1.5758,1.5989,1.6151,1.6322,1.6255,1.6016,1.5786,1.568,1.5796,1.6073,1.6415,1.681,1.7213,1.7667,1.7843,1.7897,0.1337,0.1315,0.1672,0.2196,0.3056,0.391,0.4691,0.5473,0.6022,0.6261,0.6338,0.6416,0.6338,0.6468,0.7131,0.753,0.7733,0.8709,0.8934,0.8394,0.874,0.9104,0.9315,0.9926,1.073,1.1262,1.1518,1.1741,1.2087,1.2669,1.3096,1.3263,1.3692,1.3898,1.4002,1.4018,1.4155,1.4494,1.4934,1.5262,1.5513,1.5794,1.5927,1.59,1.578,1.5827,1.6036,1.5628,1.5126,1.4796,1.4607,1.4515,1.4515,1.4515,1.4515,1.4515,1.4515,1.4455,1.4396,1.4387,1.4327,1.4207,1.4198,1.4198,1.4198,1.4327,1.4387,1.4396,1.4455,1.4515,1.4515,1.4556,1.4556,1.4556,1.4172,1.4052,1.4172,1.4016,1.4007,1.4428,1.5172,1.5231,1.4821,1.4569,1.4824,1.4883,1.5069,1.5186,1.5254,1.5371,1.5371,1.543,1.5604,1.5788,1.5904,1.6192,1.6467,1.6524,1.6513,1.6627,1.6797,1.6899,1.7067,1.6877,1.6641,1.6301,1.6197,1.6415,1.6698,1.709,1.7368,1.7667,1.7963,1.8018,1.8073,0.1431,0.1507,0.2242,0.3054,0.391,0.4611,0.5395,0.6183,0.6338,0.6335,0.6416,0.6563,0.6563,0.6718,0.7681,0.8201,0.83,0.9772,1.0558,1.0381,1.042,1.0533,1.1175,1.1328,1.181,1.2491,1.2631,1.299,1.3467,1.3763,1.3985,1.4292,1.4478,1.4539,1.4803,1.4712,1.5168,1.5713,1.5834,1.6175,1.6738,1.6532,1.6349,1.6331,1.6037,1.6187,1.6757,1.6811,1.6316,1.5386,1.507,1.4782,1.4561,1.4543,1.4818,1.4611,1.4524,1.4575,1.4515,1.4455,1.4455,1.4455,1.4506,1.4506,1.4506,1.4565,1.4565,1.4515,1.4515,1.4515,1.4565,1.4616,1.4715,1.4706,1.4656,1.4784,1.5147,1.5186,1.5177,1.5303,1.5702,1.5838,1.5556,1.5478,1.5478,1.5478,1.5604,1.573,1.5788,1.5961,1.6249,1.6249,1.6134,1.6239,1.6285,1.6461,1.6743,1.7032,1.7145,1.7256,1.7368,1.7479,1.7579,1.739,1.7202,1.6922,1.6866,1.7101,1.7268,1.7435,1.7667,1.8018,1.8139,1.8139,1.8344,0.2267,0.2339,0.3114,0.3912,0.4613,0.4927,0.5553,0.6261,0.649,0.6563,0.6563,0.6714,0.7169,0.7702,0.8537,0.9291,1.0034,1.1019,1.17,1.1755,1.1793,1.1995,1.2416,1.2334,1.2714,1.3357,1.3711,1.3889,1.4118,1.4872,1.5272,1.539,1.587,1.6139,1.6324,1.6184,1.6403,1.6551,1.6621,1.6691,1.6821,1.6807,1.6752,1.6743,1.6615,1.6947,1.7654,1.79,1.7706,1.7112,1.6498,1.5609,1.4854,1.566,1.583,1.4888,1.4928,1.4921,1.4593,1.4552,1.4543,1.4575,1.4937,1.4951,1.4565,1.4902,1.4902,1.4625,1.4515,1.4556,1.4606,1.4666,1.4843,1.502,1.5079,1.5088,1.5205,1.5313,1.5478,1.5614,1.5808,1.5924,1.5961,1.6019,1.6077,1.6077,1.6134,1.6202,1.6192,1.6202,1.6431,1.641,1.6343,1.6503,1.6652,1.6802,1.7092,1.7457,1.7645,1.7755,1.781,1.781,1.792,1.7843,1.7733,1.7446,1.7623,1.7854,1.7843,1.7722,1.7952,1.8193,1.8193,1.8259,1.8614,0.3434,0.3421,0.4223,0.4844,0.5312,0.5622,0.6093,0.6483,0.6637,0.6714,0.6865,0.7318,0.7778,0.8232,0.9448,1.0276,1.0858,1.17,1.215,1.2298,1.2645,1.2905,1.3155,1.3307,1.386,1.4501,1.4759,1.5066,1.5394,1.6027,1.6245,1.6315,1.6691,1.6908,1.683,1.6908,1.6908,1.6908,1.6908,1.6908,1.6908,1.6908,1.7185,1.7323,1.7451,1.7774,1.8716,1.9026,1.8733,1.7957,1.7348,1.6782,1.6127,1.681,1.687,1.5837,1.5914,1.5734,1.5185,1.501,1.5001,1.5072,1.535,1.5196,1.493,1.5097,1.5018,1.4693,1.4625,1.4666,1.4784,1.4902,1.502,1.5196,1.5313,1.5313,1.5254,1.5362,1.5478,1.5672,1.5876,1.605,1.6114,1.6249,1.6363,1.6374,1.6306,1.6374,1.6374,1.6431,1.6566,1.669,1.6719,1.6789,1.7401,1.7723,1.7877,1.8176,1.8565,1.8639,1.8499,1.8421,1.8239,1.8294,1.8216,1.8139,1.8193,1.8193,1.8018,1.8018,1.8193,1.841,1.8464,1.8614,1.8975,0.468,0.4585,0.5416,0.5777,0.5854,0.6553,0.6861,0.7015,0.7092,0.7242,0.7472,0.8228,0.8609,0.8537,1.0282,1.1025,1.1087,1.1922,1.2291,1.2732,1.3317,1.386,1.3981,1.4427,1.5056,1.5721,1.5886,1.6158,1.6489,1.6821,1.6839,1.683,1.6968,1.7038,1.7166,1.7176,1.7176,1.7314,1.7382,1.7373,1.7373,1.7382,1.7725,1.8212,1.8385,1.8834,1.9694,2.0009,1.9628,1.8237,1.806,1.8123,1.8081,1.8184,1.7895,1.7605,1.7171,1.6707,1.609,1.5996,1.5935,1.6015,1.6088,1.586,1.5718,1.5869,1.5814,1.5305,1.5025,1.5248,1.5276,1.5338,1.5496,1.5653,1.5635,1.5566,1.5527,1.5478,1.5546,1.573,1.5924,1.6029,1.6134,1.6306,1.6374,1.6374,1.642,1.6477,1.6581,1.674,1.7062,1.7396,1.7311,1.707,1.7899,1.874,1.8861,1.9083,1.9588,1.9757,1.9545,1.9309,1.8885,1.8724,1.8787,1.8694,1.8452,1.841,1.8325,1.8464,1.8732,1.8839,1.8946,1.9186,1.95,0.5598,0.5579,0.6366,0.663,0.663,0.6861,0.7246,0.7851,0.8003,0.838,0.8988,0.9367,0.9895,1.0426,1.0887,1.1409,1.1848,1.2224,1.2592,1.3382,1.4752,1.5259,1.533,1.5471,1.5974,1.6473,1.6621,1.676,1.6908,1.6978,1.6908,1.7038,1.7569,1.7765,1.7774,1.8172,1.8576,1.8576,1.8509,1.8442,1.8452,1.8442,1.8643,1.8988,1.9431,1.9759,2.0096,2.07,2.0778,2.043,1.9938,1.9786,2.008,1.9907,1.9346,1.8667,1.8382,1.8017,1.7513,1.7324,1.7326,1.7324,1.7595,1.7882,1.7564,1.7746,1.7521,1.7002,1.6705,1.6503,1.6338,1.6292,1.6419,1.6503,1.6584,1.6665,1.6564,1.6089,1.585,1.6022,1.608,1.6144,1.6347,1.6524,1.6514,1.6452,1.6576,1.6669,1.6917,1.7253,1.7755,1.8397,1.8103,1.8069,1.925,2.0025,2.0207,2.0224,2.0607,2.118,2.0902,2.0477,2.0159,1.9794,1.9557,1.9371,1.9197,1.8881,1.8863,1.9018,1.9223,1.9356,1.9552,1.9747,2.0105,0.7012,0.7308,0.7234,0.7625,0.8156,0.7931,0.8237,0.8836,0.9064,0.9286,0.9744,1.0196,1.0732,1.1111,1.1484,1.1929,1.2298,1.2739,1.3535,1.4537,1.5471,1.5974,1.6333,1.6333,1.6542,1.6908,1.6908,1.7038,1.7304,1.7442,1.7647,1.791,1.8307,1.8442,1.8442,1.8844,1.8977,1.9044,1.9044,1.9054,1.9285,1.9375,1.9803,2.0246,2.0835,2.1164,2.1049,2.1553,2.1702,2.1514,2.1365,2.1187,2.1135,2.0917,2.0187,1.9221,1.9252,1.9176,1.8776,1.8478,1.8404,1.8543,1.8818,1.8731,1.8458,1.8526,1.8337,1.8006,1.7749,1.7626,1.7564,1.7626,1.7709,1.7811,1.7883,1.7996,1.7962,1.7193,1.6517,1.6687,1.6818,1.6867,1.6956,1.7174,1.7403,1.7696,1.8253,1.8358,1.8564,1.8839,1.9137,1.9422,1.9018,1.9333,2.0643,2.1411,2.1648,2.1639,2.1655,2.2341,2.2678,2.2074,2.1491,2.1039,2.052,2.0372,2.0159,1.9788,1.9617,1.9818,2.0032,2.0091,2.0207,2.0523,2.0858,0.8505,0.8878,0.8173,0.8689,0.9669,0.9145,0.9296,1.0045,1.0045,1.0196,1.0346,1.1031,1.1329,1.1484,1.1935,1.2305,1.2739,1.339,1.4322,1.5471,1.5903,1.6464,1.689,1.7097,1.7166,1.7166,1.7166,1.7501,1.7969,1.8172,1.8307,1.8911,1.911,1.9177,1.9177,1.9365,1.9748,1.9998,1.9998,2.0139,2.0431,2.0579,2.1055,2.1744,2.225,2.2396,2.2224,2.247,2.2543,2.2175,2.247,2.2113,2.1588,2.1198,2.0887,1.9619,2.0103,2.0158,2.0009,1.9716,1.9608,1.9639,1.9738,1.963,1.9402,1.9217,1.9087,1.8924,1.8848,1.8703,1.8956,1.8953,1.9043,1.9122,1.9199,1.9396,1.9396,1.8545,1.8154,1.785,1.8016,1.8083,1.8218,1.8436,1.8676,1.8955,1.9524,1.996,2.0135,2.0297,2.0514,2.086,2.0685,2.09,2.2128,2.2508,2.2808,2.2815,2.2753,2.3358,2.399,2.3566,2.289,2.1913,2.1469,2.1406,2.1219,2.0936,2.0806,2.0853,2.0991,2.1218,2.1295,2.138,2.163,0.9073,0.9203,0.9401,0.9669,0.9895,0.9744,1.0121,1.0807,1.0881,1.1254,1.1855,1.2003,1.2009,1.2157,1.2157,1.2666,1.3317,1.4106,1.4966,1.5903,1.6403,1.7097,1.756,1.7774,1.8104,1.8375,1.824,1.8297,1.87,1.8834,1.9034,1.9177,1.9694,1.9955,2.0215,2.0613,2.1227,2.1581,2.1705,2.2015,2.2384,2.2555,2.2724,2.311,2.3348,2.3289,2.3242,2.3242,2.3195,2.2967,2.2955,2.2604,2.2125,2.1951,2.1678,2.1353,2.1101,2.1042,2.1001,2.1129,2.1233,2.1296,2.1169,2.1221,2.1186,2.1116,2.0705,2.0466,2.0117,1.9843,1.9856,2.0031,2.0109,2.0184,2.0358,2.0523,2.0608,2.0427,2.0065,1.9663,1.9553,1.9388,1.9524,1.9652,1.9904,2.0107,2.0523,2.0935,2.1202,2.142,2.1599,2.2078,2.2501,2.2961,2.3657,2.3683,2.383,2.3782,2.3874,2.4169,2.466,2.4784,2.4246,2.3362,2.2765,2.2618,2.2373,2.2198,2.2311,2.2525,2.2512,2.2454,2.2429,2.2426,2.2287,1.0054,1.0306,1.004,1.0415,1.1019,1.072,1.095,1.1632,1.1706,1.1929,1.2224,1.2305,1.2305,1.2305,1.2305,1.2952,1.4034,1.4895,1.5613,1.6403,1.7157,1.7569,1.8094,1.8307,1.89,1.9299,1.9365,1.9288,1.9562,1.9562,1.9759,2.0291,2.0921,2.129,2.1479,2.2089,2.2652,2.3075,2.3135,2.3242,2.3669,2.3787,2.3962,2.4195,2.4266,2.4137,2.3962,2.4208,2.4105,2.3872,2.3989,2.38,2.3505,2.3148,2.2677,2.2037,2.1675,2.1624,2.1635,2.171,2.1686,2.1749,2.1812,2.1874,2.1987,2.1901,2.1913,2.1663,2.1526,2.1198,2.1279,2.1325,2.1439,2.1616,2.1741,2.1854,2.1978,2.2063,2.1716,2.1236,2.0824,2.0603,2.0688,2.0883,2.1104,2.1356,2.1569,2.1839,2.2209,2.2522,2.2776,2.3189,2.3598,2.3826,2.4284,2.4439,2.4549,2.4607,2.4708,2.5075,2.53,2.5384,2.5301,2.4791,2.438,2.4135,2.4177,2.4162,2.421,2.4146,2.3991,2.3849,2.3607,2.3447,2.3221,1.1107,1.1313,1.0819,1.1385,1.2372,1.2063,1.207,1.2445,1.2519,1.2452,1.2305,1.2305,1.2452,1.2599,1.2886,1.3528,1.4824,1.5551,1.6114,1.6821,1.7569,1.8037,1.8375,1.8967,1.9694,2.0344,2.0719,2.0666,2.0409,2.042,2.0816,2.1376,2.2187,2.2555,2.2665,2.3062,2.361,2.3904,2.3904,2.3904,2.4208,2.4509,2.4751,2.5104,2.5174,2.4978,2.4738,2.4921,2.4935,2.4765,2.4821,2.4948,2.4821,2.4536,2.3577,2.2334,2.2087,2.2197,2.237,2.2309,2.2457,2.2519,2.2408,2.2457,2.2457,2.2592,2.2359,2.2321,2.2123,2.2185,2.2235,2.2408,2.2531,2.2714,2.2775,2.2896,2.2884,2.2884,2.2823,2.242,2.1951,2.1806,2.1836,2.2068,2.2307,2.2427,2.2652,2.2808,2.3205,2.3689,2.3971,2.4266,2.453,2.4517,2.4738,2.5007,2.509,2.5147,2.53,2.5591,2.5811,2.596,2.5889,2.5887,2.6101,2.5916,2.605,2.5834,2.5526,2.5289,2.5313,2.5043,2.4542,2.417,2.3895,1.1593,1.1467,1.2621,1.3237,1.339,1.3882,1.381,1.3382,1.339,1.2952,1.2345,1.2452,1.2893,1.3477,1.4106,1.4824,1.5471,1.5833,1.6324,1.7097,1.7765,1.8499,1.9034,1.9835,2.0655,2.1353,2.1978,2.1865,2.1553,2.1526,2.1827,2.2359,2.2652,2.2834,2.3408,2.3846,2.4008,2.4526,2.4738,2.5048,2.5439,2.5605,2.5674,2.5729,2.5729,2.566,2.555,2.5605,2.5564,2.5369,2.5369,2.5075,2.4536,2.4465,2.4163,2.3741,2.359,2.3785,2.3974,2.368,2.3446,2.3446,2.3564,2.3741,2.359,2.3233,2.2896,2.2641,2.2469,2.2543,2.2848,2.2787,2.2787,2.303,2.3318,2.3258,2.3198,2.3352,2.3365,2.3207,2.2628,2.2834,2.3012,2.3255,2.3471,2.3556,2.3688,2.3819,2.3995,2.439,2.4835,2.5048,2.5147,2.5133,2.5245,2.5467,2.5701,2.5756,2.596,2.6162,2.639,2.6669,2.6878,2.6953,2.7203,2.7137,2.6695,2.648,2.6442,2.6469,2.6495,2.5927,2.5221,2.4938,2.4672,1.2963,1.2682,1.3221,1.3745,1.4171,1.4466,1.4458,1.4178,1.4099,1.3454,1.2666,1.3266,1.389,1.433,1.4966,1.5471,1.5833,1.6263,1.6881,1.7687,1.8422,1.9344,2.0417,2.1267,2.1978,2.2457,2.2955,2.3122,2.2786,2.2725,2.2895,2.3122,2.3526,2.3923,2.4226,2.4711,2.5077,2.537,2.5495,2.5619,2.5839,2.5893,2.5893,2.5893,2.5893,2.5893,2.5893,2.5893,2.5839,2.5757,2.5743,2.5578,2.5328,2.5258,2.5203,2.5021,2.4964,2.4791,2.4326,2.4144,2.4092,2.4021,2.4034,2.4086,2.4197,2.3982,2.3806,2.3961,2.362,2.3543,2.3682,2.3859,2.393,2.4047,2.3943,2.378,2.3708,2.3649,2.3682,2.3526,2.3475,2.3677,2.3833,2.3872,2.3956,2.3982,2.4041,2.4157,2.4332,2.4563,2.5048,2.5577,2.5632,2.5618,2.5797,2.596,2.6244,2.6404,2.6811,2.6967,2.7086,2.7306,2.7408,2.7524,2.7575,2.7393,2.7159,2.7246,2.7369,2.7495,2.7667,2.6965,2.6314,2.5833,2.5452,1.4118,1.4042,1.4034,1.4394,1.4895,1.5108,1.5108,1.4887,1.4895,1.4229,1.381,1.4561,1.515,1.5251,1.5877,1.6576,1.6515,1.7217,1.7891,1.8613,1.9454,2.0417,2.1358,2.2262,2.3075,2.3598,2.3917,2.4034,2.4092,2.4079,2.4066,2.3891,2.4381,2.4768,2.5119,2.5425,2.577,2.5784,2.5839,2.5893,2.5893,2.5893,2.5893,2.5893,2.5893,2.5893,2.5893,2.5893,2.5893,2.5893,2.5893,2.5839,2.5784,2.5729,2.5784,2.5715,2.566,2.5425,2.4935,2.4667,2.4483,2.4483,2.4509,2.4761,2.4891,2.4598,2.4416,2.4847,2.4443,2.4452,2.4641,2.4641,2.4654,2.4724,2.4838,2.4624,2.4465,2.4394,2.4271,2.4165,2.4138,2.4279,2.4389,2.4425,2.4408,2.439,2.439,2.4492,2.4835,2.5104,2.5646,2.6336,2.6428,2.6428,2.6549,2.6669,2.6893,2.6945,2.7357,2.7509,2.7458,2.7524,2.7625,2.7725,2.7875,2.8008,2.7913,2.8107,2.8235,2.8158,2.8036,2.7919,2.7426,2.6932,2.629,1.4576,1.5621,1.5613,1.5683,1.5762,1.6473,1.6324,1.5754,1.5692,1.5576,1.5443,1.6413,1.6431,1.6272,1.712,1.7794,1.7997,1.8926,1.9201,1.9781,2.0662,2.1358,2.2164,2.305,2.38,2.4034,2.4567,2.4878,2.4991,2.5189,2.5147,2.5061,2.5048,2.5328,2.5605,2.5784,2.5893,2.5893,2.5893,2.5893,2.5893,2.5893,2.5893,2.5893,2.5893,2.5893,2.5893,2.5893,2.5893,2.5893,2.5893,2.5893,2.5893,2.5893,2.5893,2.5893,2.5893,2.5715,2.5481,2.5481,2.566,2.5715,2.5674,2.5522,2.5589,2.5312,2.5269,2.5279,2.5046,2.4908,2.4937,2.4881,2.5161,2.5287,2.5467,2.53,2.5133,2.5133,2.4995,2.4831,2.4831,2.4983,2.5301,2.5412,2.5063,2.4978,2.509,2.5245,2.5811,2.6136,2.6616,2.71,2.7306,2.7342,2.7393,2.7408,2.7306,2.7255,2.7458,2.756,2.756,2.7675,2.791,2.8057,2.8253,2.8479,2.8669,2.8716,2.8685,2.8558,2.8449,2.8311,2.7934,2.7363,2.6878,1.6007,1.7139,1.7139,1.6872,1.6473,1.6769,1.676,1.6482,1.6482,1.656,1.6666,1.72,1.726,1.7245,1.7745,1.8355,1.8489,1.9145,1.9803,2.0504,2.1255,2.2164,2.3025,2.3949,2.4751,2.5034,2.5439,2.5564,2.5619,2.577,2.5784,2.5619,2.5508,2.5674,2.5839,2.5893,2.5893,2.5893,2.5893,2.5893,2.5893,2.5893,2.5893,2.5893,2.5893,2.5893,2.5893,2.5893,2.5893,2.5893,2.5893,2.5893,2.5893,2.5893,2.5893,2.5893,2.5893,2.5893,2.5893,2.5893,2.5893,2.5948,2.5948,2.599,2.5952,2.5853,2.5948,2.5936,2.5798,2.5728,2.5974,2.6028,2.615,2.6096,2.6028,2.5865,2.5811,2.5797,2.5699,2.5462,2.5602,2.577,2.6125,2.649,2.6002,2.5632,2.5783,2.6,2.651,2.6841,2.7152,2.7372,2.7509,2.766,2.766,2.766,2.761,2.766,2.771,2.7745,2.7894,2.8091,2.8334,2.8431,2.8701,2.9074,2.9241,2.9257,2.9212,2.9136,2.8979,2.879,2.8307,2.7886,2.7574,1.6899,1.8037,1.8104,1.7774,1.7245,1.7235,1.7107,1.6908,1.6908,1.7166,1.7491,1.7988,1.8192,1.8307,1.89,1.9288,1.9607,2.03,2.0939,2.1694,2.2555,2.3348,2.4195,2.4921,2.5439,2.5839,2.5893,2.5893,2.5839,2.5893,2.5839,2.5839,2.5893,2.5893,2.5893,2.5893,2.5893,2.5893,2.5893,2.5893,2.5893,2.5893,2.5893,2.5893,2.5893,2.5893,2.5893,2.5893,2.5893,2.5893,2.5893,2.5893,2.5893,2.5893,2.5893,2.5893,2.5893,2.5893,2.5948,2.5893,2.5893,2.5893,2.6002,2.6042,2.6068,2.619,2.6326,2.6418,2.6472,2.6645,2.6794,2.6621,2.6553,2.65,2.6606,2.65,2.6486,2.6404,2.6313,2.617,2.6409,2.6606,2.6765,2.7041,2.6907,2.6534,2.6654,2.6759,2.693,2.7203,2.7255,2.7458,2.756,2.771,2.7795,2.7894,2.8027,2.8367,2.8367,2.8271,2.8352,2.8591,2.8779,2.8919,2.9196,2.9645,2.9777,2.9689,2.9705,2.9705,2.9504,2.9319,2.9554,2.9173,2.8657,1.6941,1.8133,1.8499,1.8365,1.8104,1.7969,1.7638,1.7235,1.7166,1.756,1.8345,1.9145,1.9475,1.9541,2.0139,2.0526,2.0951,2.2015,2.2761,2.3062,2.3846,2.4694,2.5034,2.5439,2.5784,2.5893,2.5893,2.5893,2.5893,2.6002,2.5948,2.6002,2.6096,2.6056,2.5948,2.5893,2.5893,2.5948,2.5948,2.5948,2.5893,2.5948,2.6002,2.5893,2.5893,2.5893,2.5893,2.5893,2.5893,2.5893,2.5893,2.5893,2.5893,2.5893,2.5893,2.5893,2.5893,2.5948,2.6056,2.5948,2.5948,2.6002,2.6111,2.615,2.615,2.6312,2.6525,2.6592,2.6645,2.6727,2.6794,2.6794,2.6794,2.6846,2.6951,2.6989,2.6922,2.6959,2.6813,2.674,2.7202,2.7509,2.7524,2.7575,2.7575,2.7494,2.756,2.756,2.7595,2.7695,2.7845,2.7894,2.8042,2.814,2.8271,2.8304,2.8448,2.8826,2.8966,2.8764,2.8904,2.918,2.9316,2.9422,2.9733,3.0182,3.0182,3.014,3.0182,3.0225,3.0054,3.0015,3.031,3.0359,2.9738,1.8335,1.9683,1.9803,1.9803,1.9672,1.9212,1.8824,1.868,1.8747,1.9013,1.9267,1.9814,1.9955,2.015,2.073,2.129,2.1892,2.2518,2.3195,2.3787,2.4637,2.4892,2.5174,2.5564,2.5893,2.5893,2.5893,2.5948,2.5893,2.615,2.6312,2.6351,2.651,2.6525,2.6418,2.6297,2.6312,2.6312,2.6312,2.6204,2.6002,2.615,2.6204,2.5948,2.5948,2.5948,2.5948,2.5948,2.5948,2.5948,2.5948,2.5893,2.5893,2.5893,2.5893,2.5948,2.5948,2.6111,2.6165,2.6165,2.6179,2.6218,2.6258,2.6312,2.6351,2.6539,2.6659,2.6712,2.6727,2.6794,2.6794,2.6794,2.6846,2.6951,2.7003,2.7144,2.713,2.7233,2.7225,2.7297,2.756,2.766,2.771,2.8042,2.814,2.8174,2.8222,2.8367,2.84,2.8559,2.8701,2.8701,2.8748,2.8748,2.8795,2.8826,2.8919,2.9196,2.9225,2.9073,2.93,2.9717,2.9892,2.9978,3.0351,3.0716,3.0658,3.0658,3.074,3.0757,3.0535,3.0493,3.0721,3.0785,3.0549,1.941,2.0484,2.0666,2.0921,2.0985,2.0268,1.9803,1.9672,1.9922,2.0193,2.0268,2.0613,2.088,2.1071,2.1491,2.1916,2.2555,2.3361,2.3859,2.4452,2.5034,2.5286,2.5508,2.5674,2.5839,2.5948,2.6125,2.6179,2.615,2.651,2.6654,2.6811,2.7086,2.7152,2.693,2.6774,2.6549,2.6563,2.6563,2.6351,2.6297,2.6351,2.6457,2.615,2.6096,2.6297,2.615,2.6096,2.6096,2.6096,2.5988,2.5948,2.5893,2.5893,2.5948,2.6002,2.615,2.6258,2.6312,2.6447,2.6447,2.65,2.6525,2.651,2.651,2.6645,2.6727,2.6779,2.6794,2.6794,2.6794,2.6794,2.6899,2.7003,2.7159,2.7248,2.7335,2.7437,2.7494,2.758,2.789,2.7925,2.8042,2.8367,2.8701,2.8779,2.8857,2.9012,2.9104,2.9166,2.9257,2.9212,2.9212,2.9166,2.9257,2.9393,2.9528,2.9617,2.9645,2.9657,2.9892,3.0351,3.0435,3.0518,3.074,3.0895,3.1055,3.1151,3.1055,3.1055,3.1015,3.1055,3.119,3.1089,3.0937,2.0009,2.0655,2.0996,2.1526,2.1987,2.1227,2.044,1.9846,2.0643,2.1037,2.1101,2.1901,2.2087,2.2347,2.2859,2.3135,2.3314,2.4408,2.4765,2.5104,2.5508,2.5729,2.5893,2.5948,2.6111,2.6233,2.6422,2.665,2.6578,2.693,2.7122,2.7276,2.7625,2.7675,2.7509,2.7137,2.6982,2.7034,2.693,2.6721,2.6669,2.6878,2.6721,2.651,2.6549,2.6654,2.6602,2.651,2.651,2.6404,2.6204,2.6056,2.5948,2.5934,2.6002,2.6111,2.6365,2.6457,2.6525,2.6674,2.6727,2.6674,2.6578,2.6563,2.6578,2.6712,2.6779,2.6794,2.6794,2.6794,2.6794,2.6899,2.6951,2.7107,2.7248,2.7386,2.7539,2.7595,2.7585,2.7864,2.8363,2.8556,2.8764,2.9028,2.9212,2.9332,2.9422,2.9512,2.9617,2.9467,2.9528,2.9483,2.9483,2.9528,2.9661,2.9881,3.007,3.0199,3.0452,3.0535,3.0797,3.0797,3.0838,3.0878,3.0918,3.1055,3.1151,3.119,3.119,3.119,3.119,3.119,3.119,3.119,3.1072,2.0794,2.1537,2.1788,2.2273,2.2798,2.3002,2.2917,2.2712,2.2628,2.264,2.3122,2.2907,2.304,2.3505,2.3669,2.4034,2.4408,2.4821,2.523,2.5564,2.5839,2.6042,2.6272,2.6408,2.6539,2.6779,2.7033,2.7166,2.7049,2.7342,2.776,2.8024,2.8103,2.8152,2.7989,2.7675,2.7625,2.7524,2.7423,2.7203,2.7137,2.7357,2.7086,2.6967,2.6967,2.7071,2.6967,2.6967,2.6967,2.6864,2.6616,2.6472,2.6457,2.6312,2.6233,2.6365,2.6457,2.6563,2.6712,2.6779,2.6832,2.6884,2.675,2.6712,2.6712,2.6817,2.6832,2.6794,2.6794,2.6794,2.6832,2.6951,2.7093,2.7335,2.7473,2.7675,2.786,2.8027,2.8048,2.8278,2.8732,2.9264,2.946,2.9483,2.9661,2.9837,2.9984,3.0027,3.0027,2.9924,2.9881,2.9881,2.9924,2.9968,3.0199,3.0426,3.0593,3.0773,3.0935,3.1032,3.0975,3.0975,3.1095,3.1112,3.1095,3.1112,3.119,3.119,3.119,3.119,3.119,3.119,3.119,3.1252,3.1252,2.14,2.1925,2.2408,2.3065,2.38,2.4279,2.4496,2.4553,2.3846,2.3669,2.3962,2.361,2.3669,2.3975,2.4266,2.4567,2.4948,2.5286,2.5564,2.5784,2.6042,2.6244,2.6486,2.6861,2.7003,2.7292,2.7542,2.7718,2.7554,2.7775,2.8186,2.8299,2.8411,2.8411,2.8299,2.8152,2.8039,2.794,2.7825,2.761,2.7625,2.7725,2.761,2.7342,2.7393,2.7494,2.7393,2.7444,2.7479,2.7479,2.7276,2.7174,2.721,2.7071,2.7056,2.7195,2.7297,2.7363,2.7429,2.7203,2.7255,2.7203,2.7063,2.7063,2.71,2.7152,2.6922,2.6779,2.6794,2.6846,2.6884,2.7041,2.7269,2.756,2.781,2.8042,2.8271,2.8559,2.8701,2.8758,2.9204,2.981,3.0036,3.0065,3.0113,3.0199,3.0284,3.0342,3.0384,3.0326,3.0326,3.0326,3.041,3.051,3.0692,3.0773,3.0855,3.0935,3.1015,3.1095,3.1095,3.1095,3.1151,3.119,3.119,3.119,3.123,3.119,3.119,3.1269,3.1368,3.1466,3.1487,3.1449,3.1449,2.1987,2.2099,2.2907,2.393,2.4948,2.5005,2.5328,2.5715,2.4667,2.4137,2.4195,2.4079,2.4137,2.4496,2.4851,2.5034,2.5286,2.5619,2.5825,2.5948,2.6258,2.651,2.6922,2.7218,2.7431,2.7548,2.7795,2.8091,2.7985,2.8152,2.8299,2.8411,2.8411,2.8411,2.8411,2.8363,2.8299,2.825,2.8103,2.789,2.794,2.8039,2.8088,2.7545,2.7825,2.8201,2.8039,2.8008,2.8174,2.8125,2.8061,2.7963,2.7803,2.7883,2.7981,2.8046,2.8012,2.7997,2.7947,2.7765,2.7815,2.7715,2.7494,2.7595,2.758,2.7203,2.6884,2.7011,2.7063,2.7152,2.7203,2.756,2.7894,2.8076,2.8319,2.8591,2.8966,2.9241,2.9464,2.9544,2.9789,3.0283,3.0303,3.0284,3.0241,3.0426,3.051,3.0609,3.0609,3.0593,3.0634,3.0675,3.0733,3.0733,3.0814,3.0912,3.0975,3.1055,3.1134,3.1151,3.1151,3.1151,3.119,3.119,3.119,3.1252,3.1291,3.1329,3.1389,3.1542,3.1674,3.1768,3.1804,3.1823,3.1787,2.275,2.2907,2.4047,2.4765,2.5048,2.5508,2.5729,2.5893,2.5605,2.537,2.537,2.4978,2.4978,2.5314,2.5495,2.5605,2.5729,2.5839,2.6096,2.6312,2.6525,2.6945,2.7372,2.7634,2.7821,2.8069,2.8296,2.8327,2.8266,2.8348,2.8411,2.8411,2.8411,2.8411,2.8411,2.8411,2.8411,2.8444,2.8348,2.825,2.8299,2.8299,2.825,2.8137,2.8411,2.8493,2.8414,2.8494,2.8685,2.8779,2.8606,2.8307,2.788,2.81,2.8365,2.8554,2.851,2.8496,2.8384,2.8288,2.8288,2.8288,2.811,2.8158,2.7929,2.7218,2.6974,2.724,2.7414,2.7464,2.7665,2.8125,2.8463,2.8654,2.8826,2.9196,2.9572,2.9837,3.0156,3.029,3.0441,3.0467,3.0485,3.0468,3.0468,3.051,3.0609,3.0692,3.0733,3.0733,3.0814,3.0855,3.0871,3.0871,3.0952,3.1032,3.1095,3.1173,3.1252,3.1252,3.123,3.1368,3.1466,3.1252,3.119,3.1389,3.1562,3.16,3.1694,3.1841,3.202,3.2127,3.2368,3.2435,3.2334,2.3027,2.3267,2.4465,2.5174,2.5453,2.5784,2.5893,2.5893,2.5893,2.5893,2.5893,2.5564,2.5619,2.5893,2.5893,2.5948,2.5948,2.6111,2.6258,2.651,2.6945,2.7372,2.769,2.8005,2.8152,2.8348,2.8411,2.8411,2.8411,2.8411,2.8411,2.8411,2.8411,2.8411,2.8411,2.8411,2.8444,2.8525,2.8525,2.8573,2.8621,2.8621,2.8525,2.8525,2.8668,2.8748,2.8889,2.8967,2.9106,2.9305,2.9227,2.9196,2.8917,2.9027,2.9121,2.9231,2.9199,2.9044,2.8935,2.8826,2.8842,2.8873,2.8591,2.8543,2.8995,2.8386,2.7705,2.7856,2.7762,2.7795,2.8176,2.8606,2.8982,2.9196,2.9332,2.9617,2.9941,3.0215,3.0342,3.0401,3.0476,3.0459,3.0468,3.0468,3.051,3.0526,3.0609,3.0733,3.0773,3.0918,3.0975,3.1055,3.1095,3.1072,3.1072,3.1151,3.1213,3.1291,3.1428,3.1562,3.1694,3.1694,3.1711,3.1637,3.162,3.1804,3.1896,3.1932,3.2003,3.2109,3.2351,3.2568,3.2763,3.2939,3.2862,2.3446,2.361,2.4637,2.5397,2.5839,2.5893,2.5893,2.5893,2.5893,2.5893,2.5893,2.5893,2.5893,2.5893,2.5893,2.5948,2.6056,2.6297,2.6457,2.6945,2.7423,2.7725,2.794,2.8201,2.8348,2.8396,2.8411,2.8411,2.8411,2.8411,2.8411,2.8411,2.8411,2.8411,2.8411,2.8444,2.8541,2.8605,2.8685,2.8779,2.8826,2.8826,2.8795,2.8826,2.892,2.9075,2.9213,2.935,2.947,2.9576,2.9665,2.9649,2.9633,2.9605,2.9665,2.9714,2.9714,2.9681,2.9681,2.9486,2.9605,2.9589,2.9104,2.9134,2.9597,2.9387,2.8701,2.8467,2.8358,2.8373,2.8763,2.9166,2.9483,2.9705,2.9837,2.9984,3.0258,3.0485,3.0485,3.0468,3.0468,3.0468,3.0468,3.0468,3.051,3.0568,3.0651,3.0773,3.0895,3.1117,3.1257,3.1372,3.1432,3.1389,3.1329,3.1428,3.1562,3.1657,3.1823,3.2003,3.2109,3.2039,3.2039,3.2127,3.2196,3.2196,3.2265,3.2334,3.2368,3.2453,3.2684,3.2925,3.3006,3.3147,3.3286,2.4921,2.5356,2.566,2.5784,2.5893,2.5893,2.5893,2.5893,2.5893,2.5893,2.5893,2.5893,2.5893,2.5893,2.5893,2.6056,2.6418,2.6602,2.7034,2.759,2.774,2.7989,2.8201,2.8299,2.8411,2.8411,2.8411,2.8411,2.846,2.8411,2.8411,2.8411,2.8444,2.8477,2.8653,2.8653,2.87,2.8732,2.8732,2.8779,2.8748,2.8842,2.9045,2.9029,2.9075,2.9213,2.9396,2.947,2.9621,2.977,2.9874,2.9874,2.9918,2.9918,2.9918,2.9918,2.9918,2.9918,2.9858,2.9858,2.9973,2.9973,2.9677,2.981,3.007,3.0087,2.9673,2.9641,2.9488,2.9233,2.9508,2.9865,3.0199,3.0199,3.0284,3.0284,3.0426,3.0468,3.0468,3.0468,3.0468,3.0468,3.0526,3.0568,3.0634,3.0716,3.0878,3.0998,3.114,3.1372,3.1582,3.1677,3.1787,3.175,3.1694,3.1896,3.2039,3.2127,3.2248,3.2419,3.2453,3.2265,3.2299,3.2519,3.2468,3.2435,3.2535,3.2716,3.2862,3.2943,3.3117,3.3286,3.3304,3.3316,3.3393]}]]